<?xml version='1.0' encoding='UTF-8'?>
<gpx version="1.1" creator="https://www.komoot.de" xmlns="http://www.topografix.com/GPX/1/1" xmlns:xsi="http://www.w3.org/2001/XMLSchema-instance" xsi:schemaLocation="http://www.topografix.com/GPX/1/1 http://www.topografix.com/GPX/1/1/gpx.xsd">
  <metadata>
    <name>RTCN Abcoude 75 km gpx</name>
    <author>
      <link href="https://www.komoot.de">
        <text>komoot</text>
        <type>text/html</type>
      </link>
    </author>
  </metadata>
  <trk>
    <name>RTCN Abcoude 75 km gpx</name>
    <trkseg>
      <trkpt lat="52.132624" lon="4.762807">
        <ele>-0.750879</ele>
        <time>2026-04-17T14:35:42.798Z</time>
      </trkpt>
      <trkpt lat="52.132726" lon="4.762964">
        <ele>-0.750879</ele>
        <time>2026-04-17T14:35:45.539Z</time>
      </trkpt>
      <trkpt lat="52.132814" lon="4.763143">
        <ele>-0.750879</ele>
        <time>2026-04-17T14:35:48.293Z</time>
      </trkpt>
      <trkpt lat="52.132968" lon="4.763456">
        <ele>-0.750879</ele>
        <time>2026-04-17T14:35:53.036Z</time>
      </trkpt>
      <trkpt lat="52.133001" lon="4.763528">
        <ele>-0.750879</ele>
        <time>2026-04-17T14:35:54.167Z</time>
      </trkpt>
      <trkpt lat="52.133199" lon="4.763873">
        <ele>-0.750879</ele>
        <time>2026-04-17T14:35:59.858Z</time>
      </trkpt>
      <trkpt lat="52.133226" lon="4.763918">
        <ele>-0.751817</ele>
        <time>2026-04-17T14:36:00.614Z</time>
      </trkpt>
      <trkpt lat="52.133456" lon="4.764302">
        <ele>-0.778207</ele>
        <time>2026-04-17T14:36:07.148Z</time>
      </trkpt>
      <trkpt lat="52.133537" lon="4.764438">
        <ele>-0.787528</ele>
        <time>2026-04-17T14:36:09.471Z</time>
      </trkpt>
      <trkpt lat="52.133659" lon="4.764591">
        <ele>-0.799866</ele>
        <time>2026-04-17T14:36:12.575Z</time>
      </trkpt>
      <trkpt lat="52.134311" lon="4.765224">
        <ele>-0.860686</ele>
        <time>2026-04-17T14:36:27.667Z</time>
      </trkpt>
      <trkpt lat="52.134794" lon="4.765634">
        <ele>-0.905082</ele>
        <time>2026-04-17T14:36:38.643Z</time>
      </trkpt>
      <trkpt lat="52.134871" lon="4.765699">
        <ele>-0.912592</ele>
        <time>2026-04-17T14:36:40.383Z</time>
      </trkpt>
      <trkpt lat="52.134905" lon="4.765728">
        <ele>-0.915915</ele>
        <time>2026-04-17T14:36:41.168Z</time>
      </trkpt>
      <trkpt lat="52.135289" lon="4.765926">
        <ele>-0.950795</ele>
        <time>2026-04-17T14:36:49.185Z</time>
      </trkpt>
      <trkpt lat="52.135842" lon="4.766196">
        <ele>-1.000789</ele>
        <time>2026-04-17T14:37:00.657Z</time>
      </trkpt>
      <trkpt lat="52.136032" lon="4.766290">
        <ele>-1.017985</ele>
        <time>2026-04-17T14:37:04.671Z</time>
      </trkpt>
      <trkpt lat="52.136241" lon="4.766402">
        <ele>-1.037038</ele>
        <time>2026-04-17T14:37:09.115Z</time>
      </trkpt>
      <trkpt lat="52.136380" lon="4.766475">
        <ele>-1.049686</ele>
        <time>2026-04-17T14:37:12.032Z</time>
      </trkpt>
      <trkpt lat="52.136592" lon="4.766588">
        <ele>-1.110012</ele>
        <time>2026-04-17T14:37:16.341Z</time>
      </trkpt>
      <trkpt lat="52.136639" lon="4.766611">
        <ele>-1.123822</ele>
        <time>2026-04-17T14:37:17.294Z</time>
      </trkpt>
      <trkpt lat="52.136838" lon="4.766707">
        <ele>-1.182227</ele>
        <time>2026-04-17T14:37:21.294Z</time>
      </trkpt>
      <trkpt lat="52.137017" lon="4.766794">
        <ele>-1.234793</ele>
        <time>2026-04-17T14:37:24.895Z</time>
      </trkpt>
      <trkpt lat="52.137027" lon="4.766800">
        <ele>-1.237792</ele>
        <time>2026-04-17T14:37:25.102Z</time>
      </trkpt>
      <trkpt lat="52.137180" lon="4.766877">
        <ele>-1.282855</ele>
        <time>2026-04-17T14:37:28.220Z</time>
      </trkpt>
      <trkpt lat="52.137249" lon="4.766911">
        <ele>-1.303141</ele>
        <time>2026-04-17T14:37:29.600Z</time>
      </trkpt>
      <trkpt lat="52.137395" lon="4.766985">
        <ele>-1.346170</ele>
        <time>2026-04-17T14:37:32.468Z</time>
      </trkpt>
      <trkpt lat="52.137492" lon="4.767033">
        <ele>-1.374698</ele>
        <time>2026-04-17T14:37:34.339Z</time>
      </trkpt>
      <trkpt lat="52.137619" lon="4.767097">
        <ele>-1.412108</ele>
        <time>2026-04-17T14:37:36.790Z</time>
      </trkpt>
      <trkpt lat="52.137697" lon="4.767136">
        <ele>-1.435068</ele>
        <time>2026-04-17T14:37:38.285Z</time>
      </trkpt>
      <trkpt lat="52.138196" lon="4.767383">
        <ele>-1.557156</ele>
        <time>2026-04-17T14:37:48.110Z</time>
      </trkpt>
      <trkpt lat="52.138605" lon="4.767595">
        <ele>-1.558241</ele>
        <time>2026-04-17T14:37:56.493Z</time>
      </trkpt>
      <trkpt lat="52.139087" lon="4.767849">
        <ele>-1.559521</ele>
        <time>2026-04-17T14:38:06.901Z</time>
      </trkpt>
      <trkpt lat="52.139183" lon="4.767905">
        <ele>-1.559778</ele>
        <time>2026-04-17T14:38:08.955Z</time>
      </trkpt>
      <trkpt lat="52.139325" lon="4.767986">
        <ele>-1.560159</ele>
        <time>2026-04-17T14:38:11.969Z</time>
      </trkpt>
      <trkpt lat="52.139504" lon="4.768092">
        <ele>-1.560640</ele>
        <time>2026-04-17T14:38:15.836Z</time>
      </trkpt>
      <trkpt lat="52.139841" lon="4.768296">
        <ele>-1.555962</ele>
        <time>2026-04-17T14:38:23.697Z</time>
      </trkpt>
      <trkpt lat="52.140168" lon="4.768555">
        <ele>-1.484329</ele>
        <time>2026-04-17T14:38:31.504Z</time>
      </trkpt>
      <trkpt lat="52.140409" lon="4.768805">
        <ele>-1.428041</ele>
        <time>2026-04-17T14:38:37.495Z</time>
      </trkpt>
      <trkpt lat="52.140748" lon="4.769156">
        <ele>-1.348908</ele>
        <time>2026-04-17T14:38:45.754Z</time>
      </trkpt>
      <trkpt lat="52.140865" lon="4.769284">
        <ele>-1.321143</ele>
        <time>2026-04-17T14:38:48.678Z</time>
      </trkpt>
      <trkpt lat="52.141382" lon="4.769843">
        <ele>-1.203221</ele>
        <time>2026-04-17T14:39:01.814Z</time>
      </trkpt>
      <trkpt lat="52.141906" lon="4.770411">
        <ele>-1.144480</ele>
        <time>2026-04-17T14:39:14.864Z</time>
      </trkpt>
      <trkpt lat="52.142087" lon="4.770607">
        <ele>-1.124196</ele>
        <time>2026-04-17T14:39:19.330Z</time>
      </trkpt>
      <trkpt lat="52.143000" lon="4.771604">
        <ele>-1.050885</ele>
        <time>2026-04-17T14:39:41.807Z</time>
      </trkpt>
      <trkpt lat="52.143098" lon="4.771706">
        <ele>-1.058060</ele>
        <time>2026-04-17T14:39:44.121Z</time>
      </trkpt>
      <trkpt lat="52.143991" lon="4.772627">
        <ele>-1.123274</ele>
        <time>2026-04-17T14:40:05.286Z</time>
      </trkpt>
      <trkpt lat="52.144553" lon="4.773200">
        <ele>-1.192129</ele>
        <time>2026-04-17T14:40:18.200Z</time>
      </trkpt>
      <trkpt lat="52.145034" lon="4.773719">
        <ele>-1.299000</ele>
        <time>2026-04-17T14:40:29.758Z</time>
      </trkpt>
      <trkpt lat="52.145210" lon="4.773910">
        <ele>-1.338173</ele>
        <time>2026-04-17T14:40:34.025Z</time>
      </trkpt>
      <trkpt lat="52.145493" lon="4.774211">
        <ele>-1.400778</ele>
        <time>2026-04-17T14:40:40.807Z</time>
      </trkpt>
      <trkpt lat="52.145901" lon="4.774621">
        <ele>-1.515056</ele>
        <time>2026-04-17T14:40:49.954Z</time>
      </trkpt>
      <trkpt lat="52.146166" lon="4.774880">
        <ele>-1.809478</ele>
        <time>2026-04-17T14:40:55.682Z</time>
      </trkpt>
      <trkpt lat="52.146296" lon="4.774848">
        <ele>-1.934748</ele>
        <time>2026-04-17T14:40:58.087Z</time>
      </trkpt>
      <trkpt lat="52.146325" lon="4.774809">
        <ele>-1.970573</ele>
        <time>2026-04-17T14:40:58.779Z</time>
      </trkpt>
      <trkpt lat="52.146628" lon="4.774234">
        <ele>-2.413711</ele>
        <time>2026-04-17T14:41:06.871Z</time>
      </trkpt>
      <trkpt lat="52.146825" lon="4.773908">
        <ele>-2.681222</ele>
        <time>2026-04-17T14:41:10.164Z</time>
      </trkpt>
      <trkpt lat="52.147079" lon="4.773652">
        <ele>-2.965779</ele>
        <time>2026-04-17T14:41:13.629Z</time>
      </trkpt>
      <trkpt lat="52.147162" lon="4.773595">
        <ele>-3.051597</ele>
        <time>2026-04-17T14:41:14.670Z</time>
      </trkpt>
      <trkpt lat="52.147644" lon="4.773278">
        <ele>-3.364801</ele>
        <time>2026-04-17T14:41:20.720Z</time>
      </trkpt>
      <trkpt lat="52.147799" lon="4.773179">
        <ele>-3.440844</ele>
        <time>2026-04-17T14:41:22.812Z</time>
      </trkpt>
      <trkpt lat="52.147863" lon="4.773137">
        <ele>-3.472358</ele>
        <time>2026-04-17T14:41:23.706Z</time>
      </trkpt>
      <trkpt lat="52.148058" lon="4.773015">
        <ele>-3.567766</ele>
        <time>2026-04-17T14:41:26.441Z</time>
      </trkpt>
      <trkpt lat="52.148075" lon="4.773004">
        <ele>-3.576121</ele>
        <time>2026-04-17T14:41:26.683Z</time>
      </trkpt>
      <trkpt lat="52.148257" lon="4.772896">
        <ele>-3.664592</ele>
        <time>2026-04-17T14:41:29.340Z</time>
      </trkpt>
      <trkpt lat="52.148394" lon="4.772859">
        <ele>-3.728023</ele>
        <time>2026-04-17T14:41:32.048Z</time>
      </trkpt>
      <trkpt lat="52.148439" lon="4.772839">
        <ele>-3.749328</ele>
        <time>2026-04-17T14:41:32.965Z</time>
      </trkpt>
      <trkpt lat="52.148483" lon="4.772903">
        <ele>-3.776267</ele>
        <time>2026-04-17T14:41:33.853Z</time>
      </trkpt>
      <trkpt lat="52.148541" lon="4.772914">
        <ele>-3.802938</ele>
        <time>2026-04-17T14:41:34.838Z</time>
      </trkpt>
      <trkpt lat="52.148555" lon="4.772964">
        <ele>-3.818342</ele>
        <time>2026-04-17T14:41:35.322Z</time>
      </trkpt>
      <trkpt lat="52.148637" lon="4.773205">
        <ele>-3.895579</ele>
        <time>2026-04-17T14:41:38.046Z</time>
      </trkpt>
      <trkpt lat="52.148842" lon="4.774047">
        <ele>-3.920839</ele>
        <time>2026-04-17T14:41:46.748Z</time>
      </trkpt>
      <trkpt lat="52.148873" lon="4.774176">
        <ele>-3.891762</ele>
        <time>2026-04-17T14:41:47.922Z</time>
      </trkpt>
      <trkpt lat="52.148947" lon="4.774468">
        <ele>-3.825454</ele>
        <time>2026-04-17T14:41:51.171Z</time>
      </trkpt>
      <trkpt lat="52.148959" lon="4.774520">
        <ele>-3.813794</ele>
        <time>2026-04-17T14:41:51.795Z</time>
      </trkpt>
      <trkpt lat="52.149054" lon="4.774921">
        <ele>-3.723575</ele>
        <time>2026-04-17T14:41:56.480Z</time>
      </trkpt>
      <trkpt lat="52.149087" lon="4.775063">
        <ele>-3.691706</ele>
        <time>2026-04-17T14:41:58.008Z</time>
      </trkpt>
      <trkpt lat="52.149134" lon="4.775262">
        <ele>-3.646952</ele>
        <time>2026-04-17T14:42:00.183Z</time>
      </trkpt>
      <trkpt lat="52.149195" lon="4.775507">
        <ele>-3.591458</ele>
        <time>2026-04-17T14:42:02.791Z</time>
      </trkpt>
      <trkpt lat="52.149239" lon="4.775684">
        <ele>-3.551376</ele>
        <time>2026-04-17T14:42:04.685Z</time>
      </trkpt>
      <trkpt lat="52.149264" lon="4.775786">
        <ele>-3.528323</ele>
        <time>2026-04-17T14:42:05.680Z</time>
      </trkpt>
      <trkpt lat="52.149303" lon="4.775941">
        <ele>-3.493163</ele>
        <time>2026-04-17T14:42:07.425Z</time>
      </trkpt>
      <trkpt lat="52.149368" lon="4.776189">
        <ele>-3.436562</ele>
        <time>2026-04-17T14:42:10.035Z</time>
      </trkpt>
      <trkpt lat="52.149450" lon="4.776394">
        <ele>-3.387490</ele>
        <time>2026-04-17T14:42:12.320Z</time>
      </trkpt>
      <trkpt lat="52.149721" lon="4.776629">
        <ele>-3.295612</ele>
        <time>2026-04-17T14:42:17.013Z</time>
      </trkpt>
      <trkpt lat="52.149775" lon="4.776670">
        <ele>-3.277781</ele>
        <time>2026-04-17T14:42:17.886Z</time>
      </trkpt>
      <trkpt lat="52.150291" lon="4.777057">
        <ele>-3.107772</ele>
        <time>2026-04-17T14:42:27.580Z</time>
      </trkpt>
      <trkpt lat="52.150394" lon="4.777173">
        <ele>-3.070299</ele>
        <time>2026-04-17T14:42:29.576Z</time>
      </trkpt>
      <trkpt lat="52.150417" lon="4.777204">
        <ele>-3.061366</ele>
        <time>2026-04-17T14:42:30.039Z</time>
      </trkpt>
      <trkpt lat="52.150494" lon="4.777314">
        <ele>-3.030719</ele>
        <time>2026-04-17T14:42:31.570Z</time>
      </trkpt>
      <trkpt lat="52.150712" lon="4.777639">
        <ele>-2.942290</ele>
        <time>2026-04-17T14:42:36.103Z</time>
      </trkpt>
      <trkpt lat="52.150777" lon="4.777737">
        <ele>-2.915788</ele>
        <time>2026-04-17T14:42:37.546Z</time>
      </trkpt>
      <trkpt lat="52.151088" lon="4.778184">
        <ele>-2.826801</ele>
        <time>2026-04-17T14:42:44.163Z</time>
      </trkpt>
      <trkpt lat="52.151146" lon="4.778271">
        <ele>-2.814482</ele>
        <time>2026-04-17T14:42:45.422Z</time>
      </trkpt>
      <trkpt lat="52.151386" lon="4.778632">
        <ele>-2.763444</ele>
        <time>2026-04-17T14:42:50.562Z</time>
      </trkpt>
      <trkpt lat="52.151718" lon="4.779146">
        <ele>-2.691883</ele>
        <time>2026-04-17T14:42:57.723Z</time>
      </trkpt>
      <trkpt lat="52.151969" lon="4.779519">
        <ele>-2.638800</ele>
        <time>2026-04-17T14:43:02.872Z</time>
      </trkpt>
      <trkpt lat="52.152140" lon="4.779860">
        <ele>-2.596572</ele>
        <time>2026-04-17T14:43:06.937Z</time>
      </trkpt>
      <trkpt lat="52.152889" lon="4.781855">
        <ele>-2.306131</ele>
        <time>2026-04-17T14:43:28.557Z</time>
      </trkpt>
      <trkpt lat="52.153266" lon="4.782862">
        <ele>-2.063308</ele>
        <time>2026-04-17T14:43:40.649Z</time>
      </trkpt>
      <trkpt lat="52.153445" lon="4.783544">
        <ele>-1.816751</ele>
        <time>2026-04-17T14:43:48.850Z</time>
      </trkpt>
      <trkpt lat="52.153487" lon="4.783749">
        <ele>-1.744913</ele>
        <time>2026-04-17T14:43:51.230Z</time>
      </trkpt>
      <trkpt lat="52.153503" lon="4.783820">
        <ele>-1.719772</ele>
        <time>2026-04-17T14:43:52.277Z</time>
      </trkpt>
      <trkpt lat="52.153287" lon="4.783953">
        <ele>-1.594684</ele>
        <time>2026-04-17T14:43:57.643Z</time>
      </trkpt>
      <trkpt lat="52.153203" lon="4.784152">
        <ele>-1.514397</ele>
        <time>2026-04-17T14:44:00.988Z</time>
      </trkpt>
      <trkpt lat="52.153206" lon="4.784287">
        <ele>-1.469495</ele>
        <time>2026-04-17T14:44:02.804Z</time>
      </trkpt>
      <trkpt lat="52.153507" lon="4.784930">
        <ele>-1.231631</ele>
        <time>2026-04-17T14:44:13.864Z</time>
      </trkpt>
      <trkpt lat="52.154466" lon="4.786838">
        <ele>-1.044794</ele>
        <time>2026-04-17T14:44:44.888Z</time>
      </trkpt>
      <trkpt lat="52.154535" lon="4.787043">
        <ele>-1.027082</ele>
        <time>2026-04-17T14:44:47.813Z</time>
      </trkpt>
      <trkpt lat="52.154790" lon="4.787747">
        <ele>-1.090128</ele>
        <time>2026-04-17T14:44:57.864Z</time>
      </trkpt>
      <trkpt lat="52.154857" lon="4.787821">
        <ele>-1.103456</ele>
        <time>2026-04-17T14:44:59.463Z</time>
      </trkpt>
      <trkpt lat="52.155047" lon="4.788415">
        <ele>-1.171137</ele>
        <time>2026-04-17T14:45:07.459Z</time>
      </trkpt>
      <trkpt lat="52.155784" lon="4.790725">
        <ele>-1.312025</ele>
        <time>2026-04-17T14:45:38.330Z</time>
      </trkpt>
      <trkpt lat="52.156479" lon="4.793111">
        <ele>-1.324354</ele>
        <time>2026-04-17T14:46:12.291Z</time>
      </trkpt>
      <trkpt lat="52.156605" lon="4.793550">
        <ele>-1.333387</ele>
        <time>2026-04-17T14:46:18.254Z</time>
      </trkpt>
      <trkpt lat="52.156936" lon="4.794703">
        <ele>-1.357111</ele>
        <time>2026-04-17T14:46:33.505Z</time>
      </trkpt>
      <trkpt lat="52.157355" lon="4.796170">
        <ele>-1.358559</ele>
        <time>2026-04-17T14:46:53.447Z</time>
      </trkpt>
      <trkpt lat="52.157830" lon="4.797868">
        <ele>-1.368281</ele>
        <time>2026-04-17T14:47:10.658Z</time>
      </trkpt>
      <trkpt lat="52.158075" lon="4.798610">
        <ele>-1.413173</ele>
        <time>2026-04-17T14:47:18.180Z</time>
      </trkpt>
      <trkpt lat="52.158197" lon="4.799199">
        <ele>-1.446292</ele>
        <time>2026-04-17T14:47:23.653Z</time>
      </trkpt>
      <trkpt lat="52.158701" lon="4.801008">
        <ele>-1.509502</ele>
        <time>2026-04-17T14:47:41.161Z</time>
      </trkpt>
      <trkpt lat="52.159239" lon="4.802843">
        <ele>-1.507821</ele>
        <time>2026-04-17T14:47:59.717Z</time>
      </trkpt>
      <trkpt lat="52.159503" lon="4.803778">
        <ele>-1.421344</ele>
        <time>2026-04-17T14:48:09.384Z</time>
      </trkpt>
      <trkpt lat="52.160011" lon="4.805587">
        <ele>-1.234381</ele>
        <time>2026-04-17T14:48:28.422Z</time>
      </trkpt>
      <trkpt lat="52.160480" lon="4.807187">
        <ele>-1.061975</ele>
        <time>2026-04-17T14:48:45.264Z</time>
      </trkpt>
      <trkpt lat="52.160533" lon="4.807373">
        <ele>-1.042026</ele>
        <time>2026-04-17T14:48:47.198Z</time>
      </trkpt>
      <trkpt lat="52.160558" lon="4.807479">
        <ele>-1.030980</ele>
        <time>2026-04-17T14:48:48.274Z</time>
      </trkpt>
      <trkpt lat="52.160532" lon="4.807614">
        <ele>-1.017217</ele>
        <time>2026-04-17T14:48:49.598Z</time>
      </trkpt>
      <trkpt lat="52.161476" lon="4.810932">
        <ele>-0.730890</ele>
        <time>2026-04-17T14:49:24.040Z</time>
      </trkpt>
      <trkpt lat="52.161774" lon="4.812112">
        <ele>-0.774153</ele>
        <time>2026-04-17T14:49:35.607Z</time>
      </trkpt>
      <trkpt lat="52.162254" lon="4.814108">
        <ele>-0.835789</ele>
        <time>2026-04-17T14:49:54.651Z</time>
      </trkpt>
      <trkpt lat="52.162664" lon="4.815808">
        <ele>-0.856666</ele>
        <time>2026-04-17T14:50:11.374Z</time>
      </trkpt>
      <trkpt lat="52.163535" lon="4.819429">
        <ele>-1.078551</ele>
        <time>2026-04-17T14:50:45.598Z</time>
      </trkpt>
      <trkpt lat="52.163547" lon="4.819475">
        <ele>-1.079339</ele>
        <time>2026-04-17T14:50:46.027Z</time>
      </trkpt>
      <trkpt lat="52.163827" lon="4.820597">
        <ele>-1.098441</ele>
        <time>2026-04-17T14:50:56.733Z</time>
      </trkpt>
      <trkpt lat="52.163946" lon="4.821500">
        <ele>-1.113006</ele>
        <time>2026-04-17T14:51:05.169Z</time>
      </trkpt>
      <trkpt lat="52.164085" lon="4.823041">
        <ele>-0.945435</ele>
        <time>2026-04-17T14:51:20.007Z</time>
      </trkpt>
      <trkpt lat="52.164109" lon="4.823316">
        <ele>-0.903554</ele>
        <time>2026-04-17T14:51:22.967Z</time>
      </trkpt>
      <trkpt lat="52.164116" lon="4.823434">
        <ele>-0.885680</ele>
        <time>2026-04-17T14:51:24.280Z</time>
      </trkpt>
      <trkpt lat="52.164174" lon="4.824277">
        <ele>-0.757778</ele>
        <time>2026-04-17T14:51:32.662Z</time>
      </trkpt>
      <trkpt lat="52.164217" lon="4.824908">
        <ele>-0.688040</ele>
        <time>2026-04-17T14:51:38.731Z</time>
      </trkpt>
      <trkpt lat="52.164226" lon="4.825076">
        <ele>-0.706059</ele>
        <time>2026-04-17T14:51:40.844Z</time>
      </trkpt>
      <trkpt lat="52.164250" lon="4.825355">
        <ele>-0.736162</ele>
        <time>2026-04-17T14:51:44.457Z</time>
      </trkpt>
      <trkpt lat="52.164269" lon="4.825594">
        <ele>-0.761913</ele>
        <time>2026-04-17T14:51:47.471Z</time>
      </trkpt>
      <trkpt lat="52.164288" lon="4.825821">
        <ele>-0.786393</ele>
        <time>2026-04-17T14:51:50.281Z</time>
      </trkpt>
      <trkpt lat="52.164305" lon="4.825998">
        <ele>-0.805536</ele>
        <time>2026-04-17T14:51:52.460Z</time>
      </trkpt>
      <trkpt lat="52.164338" lon="4.826394">
        <ele>-0.848237</ele>
        <time>2026-04-17T14:51:57.323Z</time>
      </trkpt>
      <trkpt lat="52.164344" lon="4.826456">
        <ele>-0.854944</ele>
        <time>2026-04-17T14:51:58.020Z</time>
      </trkpt>
      <trkpt lat="52.164443" lon="4.827687">
        <ele>-0.987602</ele>
        <time>2026-04-17T14:52:07.980Z</time>
      </trkpt>
      <trkpt lat="52.164494" lon="4.828288">
        <ele>-1.024373</ele>
        <time>2026-04-17T14:52:13.380Z</time>
      </trkpt>
      <trkpt lat="52.164640" lon="4.830006">
        <ele>-1.125635</ele>
        <time>2026-04-17T14:52:28.939Z</time>
      </trkpt>
      <trkpt lat="52.164654" lon="4.830161">
        <ele>-1.134782</ele>
        <time>2026-04-17T14:52:30.433Z</time>
      </trkpt>
      <trkpt lat="52.164660" lon="4.830230">
        <ele>-1.138851</ele>
        <time>2026-04-17T14:52:31.095Z</time>
      </trkpt>
      <trkpt lat="52.164810" lon="4.832104">
        <ele>-1.152062</ele>
        <time>2026-04-17T14:52:48.646Z</time>
      </trkpt>
      <trkpt lat="52.164837" lon="4.832656">
        <ele>-1.148470</ele>
        <time>2026-04-17T14:52:53.569Z</time>
      </trkpt>
      <trkpt lat="52.164973" lon="4.834018">
        <ele>-1.099799</ele>
        <time>2026-04-17T14:53:05.871Z</time>
      </trkpt>
      <trkpt lat="52.165077" lon="4.835164">
        <ele>-1.000011</ele>
        <time>2026-04-17T14:53:16.667Z</time>
      </trkpt>
      <trkpt lat="52.165226" lon="4.837550">
        <ele>-0.846426</ele>
        <time>2026-04-17T14:53:39.898Z</time>
      </trkpt>
      <trkpt lat="52.165330" lon="4.838589">
        <ele>-0.805423</ele>
        <time>2026-04-17T14:53:49.496Z</time>
      </trkpt>
      <trkpt lat="52.165398" lon="4.839382">
        <ele>-0.777770</ele>
        <time>2026-04-17T14:53:56.569Z</time>
      </trkpt>
      <trkpt lat="52.165561" lon="4.841862">
        <ele>-0.879506</ele>
        <time>2026-04-17T14:54:18.701Z</time>
      </trkpt>
      <trkpt lat="52.165667" lon="4.843196">
        <ele>-0.993520</ele>
        <time>2026-04-17T14:54:31.004Z</time>
      </trkpt>
      <trkpt lat="52.165769" lon="4.844503">
        <ele>-1.129176</ele>
        <time>2026-04-17T14:54:42.736Z</time>
      </trkpt>
      <trkpt lat="52.165807" lon="4.845055">
        <ele>-1.186368</ele>
        <time>2026-04-17T14:54:47.379Z</time>
      </trkpt>
      <trkpt lat="52.165824" lon="4.845274">
        <ele>-1.223512</ele>
        <time>2026-04-17T14:54:49.195Z</time>
      </trkpt>
      <trkpt lat="52.166013" lon="4.847611">
        <ele>-1.767622</ele>
        <time>2026-04-17T14:55:08.252Z</time>
      </trkpt>
      <trkpt lat="52.166188" lon="4.850094">
        <ele>-1.822040</ele>
        <time>2026-04-17T14:55:30.759Z</time>
      </trkpt>
      <trkpt lat="52.166299" lon="4.851255">
        <ele>-1.752273</ele>
        <time>2026-04-17T14:55:42.386Z</time>
      </trkpt>
      <trkpt lat="52.166483" lon="4.851190">
        <ele>-1.700927</ele>
        <time>2026-04-17T14:55:45.478Z</time>
      </trkpt>
      <trkpt lat="52.166602" lon="4.851712">
        <ele>-1.607771</ele>
        <time>2026-04-17T14:55:52.980Z</time>
      </trkpt>
      <trkpt lat="52.166522" lon="4.851773">
        <ele>-1.583684</ele>
        <time>2026-04-17T14:55:54.912Z</time>
      </trkpt>
      <trkpt lat="52.166481" lon="4.851779">
        <ele>-1.572458</ele>
        <time>2026-04-17T14:55:55.831Z</time>
      </trkpt>
      <trkpt lat="52.166413" lon="4.851868">
        <ele>-1.548676</ele>
        <time>2026-04-17T14:55:57.718Z</time>
      </trkpt>
      <trkpt lat="52.166346" lon="4.852071">
        <ele>-1.510114</ele>
        <time>2026-04-17T14:56:00.795Z</time>
      </trkpt>
      <trkpt lat="52.165912" lon="4.853005">
        <ele>-1.314101</ele>
        <time>2026-04-17T14:56:15.902Z</time>
      </trkpt>
      <trkpt lat="52.165541" lon="4.853636">
        <ele>-1.455825</ele>
        <time>2026-04-17T14:56:26.387Z</time>
      </trkpt>
      <trkpt lat="52.165305" lon="4.853916">
        <ele>-1.539216</ele>
        <time>2026-04-17T14:56:31.907Z</time>
      </trkpt>
      <trkpt lat="52.164919" lon="4.854067">
        <ele>-1.652629</ele>
        <time>2026-04-17T14:56:39.277Z</time>
      </trkpt>
      <trkpt lat="52.163647" lon="4.854447">
        <ele>-1.919694</ele>
        <time>2026-04-17T14:57:03.922Z</time>
      </trkpt>
      <trkpt lat="52.163406" lon="4.854520">
        <ele>-1.953817</ele>
        <time>2026-04-17T14:57:08.766Z</time>
      </trkpt>
      <trkpt lat="52.162508" lon="4.854794">
        <ele>-2.065616</ele>
        <time>2026-04-17T14:57:27.276Z</time>
      </trkpt>
      <trkpt lat="52.161819" lon="4.855004">
        <ele>-1.980732</ele>
        <time>2026-04-17T14:57:41.819Z</time>
      </trkpt>
      <trkpt lat="52.161628" lon="4.855062">
        <ele>-1.957204</ele>
        <time>2026-04-17T14:57:45.873Z</time>
      </trkpt>
      <trkpt lat="52.160764" lon="4.855321">
        <ele>-1.854433</ele>
        <time>2026-04-17T14:58:04.265Z</time>
      </trkpt>
      <trkpt lat="52.156014" lon="4.856775">
        <ele>-1.709951</ele>
        <time>2026-04-17T14:59:42.082Z</time>
      </trkpt>
      <trkpt lat="52.155903" lon="4.856808">
        <ele>-1.701950</ele>
        <time>2026-04-17T14:59:44.426Z</time>
      </trkpt>
      <trkpt lat="52.155461" lon="4.856976">
        <ele>-1.663754</ele>
        <time>2026-04-17T14:59:53.968Z</time>
      </trkpt>
      <trkpt lat="52.155328" lon="4.857056">
        <ele>-1.631229</ele>
        <time>2026-04-17T14:59:56.965Z</time>
      </trkpt>
      <trkpt lat="52.155251" lon="4.857142">
        <ele>-1.609813</ele>
        <time>2026-04-17T14:59:58.964Z</time>
      </trkpt>
      <trkpt lat="52.155225" lon="4.857243">
        <ele>-1.594396</ele>
        <time>2026-04-17T15:00:00.383Z</time>
      </trkpt>
      <trkpt lat="52.155199" lon="4.857877">
        <ele>-1.504957</ele>
        <time>2026-04-17T15:00:08.704Z</time>
      </trkpt>
      <trkpt lat="52.155029" lon="4.858748">
        <ele>-1.376302</ele>
        <time>2026-04-17T15:00:20.704Z</time>
      </trkpt>
      <trkpt lat="52.154840" lon="4.860051">
        <ele>-1.257477</ele>
        <time>2026-04-17T15:00:37.900Z</time>
      </trkpt>
      <trkpt lat="52.154647" lon="4.861851">
        <ele>-1.249165</ele>
        <time>2026-04-17T15:01:00.347Z</time>
      </trkpt>
      <trkpt lat="52.154488" lon="4.863220">
        <ele>-1.229785</ele>
        <time>2026-04-17T15:01:17.450Z</time>
      </trkpt>
      <trkpt lat="52.154261" lon="4.863812">
        <ele>-1.215232</ele>
        <time>2026-04-17T15:01:26.146Z</time>
      </trkpt>
      <trkpt lat="52.154132" lon="4.864209">
        <ele>-1.205867</ele>
        <time>2026-04-17T15:01:31.797Z</time>
      </trkpt>
      <trkpt lat="52.154103" lon="4.864354">
        <ele>-1.202687</ele>
        <time>2026-04-17T15:01:33.718Z</time>
      </trkpt>
      <trkpt lat="52.154090" lon="4.864467">
        <ele>-1.200291</ele>
        <time>2026-04-17T15:01:35.159Z</time>
      </trkpt>
      <trkpt lat="52.154083" lon="4.864539">
        <ele>-1.198771</ele>
        <time>2026-04-17T15:01:36.076Z</time>
      </trkpt>
      <trkpt lat="52.154071" lon="4.864809">
        <ele>-1.193127</ele>
        <time>2026-04-17T15:01:39.489Z</time>
      </trkpt>
      <trkpt lat="52.154124" lon="4.865235">
        <ele>-1.191703</ele>
        <time>2026-04-17T15:01:44.986Z</time>
      </trkpt>
      <trkpt lat="52.154333" lon="4.865891">
        <ele>-1.267718</ele>
        <time>2026-04-17T15:01:54.345Z</time>
      </trkpt>
      <trkpt lat="52.154676" lon="4.867032">
        <ele>-1.398383</ele>
        <time>2026-04-17T15:02:09.531Z</time>
      </trkpt>
      <trkpt lat="52.155153" lon="4.868758">
        <ele>-1.638082</ele>
        <time>2026-04-17T15:02:31.439Z</time>
      </trkpt>
      <trkpt lat="52.155329" lon="4.868997">
        <ele>-1.692756</ele>
        <time>2026-04-17T15:02:35.841Z</time>
      </trkpt>
      <trkpt lat="52.155530" lon="4.869748">
        <ele>-1.812731</ele>
        <time>2026-04-17T15:02:45.730Z</time>
      </trkpt>
      <trkpt lat="52.155621" lon="4.869974">
        <ele>-1.852314</ele>
        <time>2026-04-17T15:02:49.018Z</time>
      </trkpt>
      <trkpt lat="52.155651" lon="4.870072">
        <ele>-1.868351</ele>
        <time>2026-04-17T15:02:50.342Z</time>
      </trkpt>
      <trkpt lat="52.155696" lon="4.870437">
        <ele>-1.914120</ele>
        <time>2026-04-17T15:02:54.864Z</time>
      </trkpt>
      <trkpt lat="52.155942" lon="4.871316">
        <ele>-1.872466</ele>
        <time>2026-04-17T15:03:06.689Z</time>
      </trkpt>
      <trkpt lat="52.156176" lon="4.872151">
        <ele>-1.832889</ele>
        <time>2026-04-17T15:03:18.217Z</time>
      </trkpt>
      <trkpt lat="52.158014" lon="4.878772">
        <ele>-1.163508</ele>
        <time>2026-04-17T15:04:51.541Z</time>
      </trkpt>
      <trkpt lat="52.158080" lon="4.879132">
        <ele>-1.161630</ele>
        <time>2026-04-17T15:04:56.353Z</time>
      </trkpt>
      <trkpt lat="52.158163" lon="4.879425">
        <ele>-1.160016</ele>
        <time>2026-04-17T15:05:00.440Z</time>
      </trkpt>
      <trkpt lat="52.158332" lon="4.880025">
        <ele>-1.156715</ele>
        <time>2026-04-17T15:05:08.670Z</time>
      </trkpt>
      <trkpt lat="52.158438" lon="4.880404">
        <ele>-1.154632</ele>
        <time>2026-04-17T15:05:13.812Z</time>
      </trkpt>
      <trkpt lat="52.158572" lon="4.880792">
        <ele>-1.152406</ele>
        <time>2026-04-17T15:05:19.203Z</time>
      </trkpt>
      <trkpt lat="52.159120" lon="4.882707">
        <ele>-1.200437</ele>
        <time>2026-04-17T15:05:44.563Z</time>
      </trkpt>
      <trkpt lat="52.159439" lon="4.883826">
        <ele>-1.232655</ele>
        <time>2026-04-17T15:06:00.250Z</time>
      </trkpt>
      <trkpt lat="52.159534" lon="4.884308">
        <ele>-1.238477</ele>
        <time>2026-04-17T15:06:06.704Z</time>
      </trkpt>
      <trkpt lat="52.159642" lon="4.884810">
        <ele>-1.244595</ele>
        <time>2026-04-17T15:06:13.438Z</time>
      </trkpt>
      <trkpt lat="52.160338" lon="4.887027">
        <ele>-1.259311</ele>
        <time>2026-04-17T15:06:43.963Z</time>
      </trkpt>
      <trkpt lat="52.161478" lon="4.890300">
        <ele>-1.249108</ele>
        <time>2026-04-17T15:07:30.959Z</time>
      </trkpt>
      <trkpt lat="52.161657" lon="4.891116">
        <ele>-1.253818</ele>
        <time>2026-04-17T15:07:41.548Z</time>
      </trkpt>
      <trkpt lat="52.161752" lon="4.891768">
        <ele>-1.262800</ele>
        <time>2026-04-17T15:07:49.713Z</time>
      </trkpt>
      <trkpt lat="52.161780" lon="4.892194">
        <ele>-1.281574</ele>
        <time>2026-04-17T15:07:54.949Z</time>
      </trkpt>
      <trkpt lat="52.161746" lon="4.893634">
        <ele>-1.344718</ele>
        <time>2026-04-17T15:08:12.636Z</time>
      </trkpt>
      <trkpt lat="52.161762" lon="4.894500">
        <ele>-1.382682</ele>
        <time>2026-04-17T15:08:23.151Z</time>
      </trkpt>
      <trkpt lat="52.161831" lon="4.894491">
        <ele>-1.388464</ele>
        <time>2026-04-17T15:08:24.547Z</time>
      </trkpt>
      <trkpt lat="52.161905" lon="4.894487">
        <ele>-1.395564</ele>
        <time>2026-04-17T15:08:25.979Z</time>
      </trkpt>
      <trkpt lat="52.162016" lon="4.894492">
        <ele>-1.406213</ele>
        <time>2026-04-17T15:08:28.173Z</time>
      </trkpt>
      <trkpt lat="52.162008" lon="4.895627">
        <ele>-1.472985</ele>
        <time>2026-04-17T15:08:41.809Z</time>
      </trkpt>
      <trkpt lat="52.162298" lon="4.905600">
        <ele>-1.782054</ele>
        <time>2026-04-17T15:10:44.126Z</time>
      </trkpt>
      <trkpt lat="52.162269" lon="4.906304">
        <ele>-1.646037</ele>
        <time>2026-04-17T15:10:53.437Z</time>
      </trkpt>
      <trkpt lat="52.162063" lon="4.907665">
        <ele>-1.229026</ele>
        <time>2026-04-17T15:11:12.821Z</time>
      </trkpt>
      <trkpt lat="52.162072" lon="4.908314">
        <ele>-1.035913</ele>
        <time>2026-04-17T15:11:22.092Z</time>
      </trkpt>
      <trkpt lat="52.162166" lon="4.908774">
        <ele>-0.907382</ele>
        <time>2026-04-17T15:11:28.793Z</time>
      </trkpt>
      <trkpt lat="52.162297" lon="4.908695">
        <ele>-0.901691</ele>
        <time>2026-04-17T15:11:31.840Z</time>
      </trkpt>
      <trkpt lat="52.162330" lon="4.908807">
        <ele>-0.898586</ele>
        <time>2026-04-17T15:11:33.495Z</time>
      </trkpt>
      <trkpt lat="52.162353" lon="4.908891">
        <ele>-0.896287</ele>
        <time>2026-04-17T15:11:34.689Z</time>
      </trkpt>
      <trkpt lat="52.162368" lon="4.908950">
        <ele>-0.894690</ele>
        <time>2026-04-17T15:11:35.524Z</time>
      </trkpt>
      <trkpt lat="52.162324" lon="4.909203">
        <ele>-0.888118</ele>
        <time>2026-04-17T15:11:38.911Z</time>
      </trkpt>
      <trkpt lat="52.162307" lon="4.909251">
        <ele>-0.886733</ele>
        <time>2026-04-17T15:11:39.623Z</time>
      </trkpt>
      <trkpt lat="52.162327" lon="4.909337">
        <ele>-0.884434</ele>
        <time>2026-04-17T15:11:40.781Z</time>
      </trkpt>
      <trkpt lat="52.162355" lon="4.909481">
        <ele>-0.880659</ele>
        <time>2026-04-17T15:11:42.680Z</time>
      </trkpt>
      <trkpt lat="52.162449" lon="4.910734">
        <ele>-0.849109</ele>
        <time>2026-04-17T15:11:57.989Z</time>
      </trkpt>
      <trkpt lat="52.162498" lon="4.910988">
        <ele>-0.842455</ele>
        <time>2026-04-17T15:12:01.086Z</time>
      </trkpt>
      <trkpt lat="52.162599" lon="4.911358">
        <ele>-0.852306</ele>
        <time>2026-04-17T15:12:05.764Z</time>
      </trkpt>
      <trkpt lat="52.163293" lon="4.913005">
        <ele>-1.113397</ele>
        <time>2026-04-17T15:12:29.710Z</time>
      </trkpt>
      <trkpt lat="52.163570" lon="4.913955">
        <ele>-1.278141</ele>
        <time>2026-04-17T15:12:42.413Z</time>
      </trkpt>
      <trkpt lat="52.163593" lon="4.914035">
        <ele>-1.299485</ele>
        <time>2026-04-17T15:12:43.481Z</time>
      </trkpt>
      <trkpt lat="52.163661" lon="4.914298">
        <ele>-1.368434</ele>
        <time>2026-04-17T15:12:46.855Z</time>
      </trkpt>
      <trkpt lat="52.164085" lon="4.916023">
        <ele>-1.817369</ele>
        <time>2026-04-17T15:13:08.056Z</time>
      </trkpt>
      <trkpt lat="52.164328" lon="4.916896">
        <ele>-1.998817</ele>
        <time>2026-04-17T15:13:19.066Z</time>
      </trkpt>
      <trkpt lat="52.164439" lon="4.917319">
        <ele>-2.064250</ele>
        <time>2026-04-17T15:13:24.440Z</time>
      </trkpt>
      <trkpt lat="52.164473" lon="4.917450">
        <ele>-2.084479</ele>
        <time>2026-04-17T15:13:26.124Z</time>
      </trkpt>
      <trkpt lat="52.165091" lon="4.919847">
        <ele>-2.415697</ele>
        <time>2026-04-17T15:13:57.386Z</time>
      </trkpt>
      <trkpt lat="52.165676" lon="4.922116">
        <ele>-2.601555</ele>
        <time>2026-04-17T15:14:26.930Z</time>
      </trkpt>
      <trkpt lat="52.165953" lon="4.923192">
        <ele>-2.549360</ele>
        <time>2026-04-17T15:14:41.882Z</time>
      </trkpt>
      <trkpt lat="52.166869" lon="4.926664">
        <ele>-2.158511</ele>
        <time>2026-04-17T15:15:29.875Z</time>
      </trkpt>
      <trkpt lat="52.167163" lon="4.927808">
        <ele>-1.889768</ele>
        <time>2026-04-17T15:15:46.813Z</time>
      </trkpt>
      <trkpt lat="52.167274" lon="4.928155">
        <ele>-1.775681</ele>
        <time>2026-04-17T15:15:52.281Z</time>
      </trkpt>
      <trkpt lat="52.167362" lon="4.928297">
        <ele>-1.716834</ele>
        <time>2026-04-17T15:15:55.151Z</time>
      </trkpt>
      <trkpt lat="52.167627" lon="4.928458">
        <ele>-1.582424</ele>
        <time>2026-04-17T15:16:01.702Z</time>
      </trkpt>
      <trkpt lat="52.167949" lon="4.928663">
        <ele>-1.418129</ele>
        <time>2026-04-17T15:16:09.533Z</time>
      </trkpt>
      <trkpt lat="52.168227" lon="4.928721">
        <ele>-1.284923</ele>
        <time>2026-04-17T15:16:15.537Z</time>
      </trkpt>
      <trkpt lat="52.168267" lon="4.928751">
        <ele>-1.263996</ele>
        <time>2026-04-17T15:16:16.465Z</time>
      </trkpt>
      <trkpt lat="52.168300" lon="4.928975">
        <ele>-1.235760</ele>
        <time>2026-04-17T15:16:19.464Z</time>
      </trkpt>
      <trkpt lat="52.168253" lon="4.929156">
        <ele>-1.287076</ele>
        <time>2026-04-17T15:16:21.987Z</time>
      </trkpt>
      <trkpt lat="52.168202" lon="4.929251">
        <ele>-1.320038</ele>
        <time>2026-04-17T15:16:23.574Z</time>
      </trkpt>
      <trkpt lat="52.168150" lon="4.929358">
        <ele>-1.355680</ele>
        <time>2026-04-17T15:16:25.287Z</time>
      </trkpt>
      <trkpt lat="52.168061" lon="4.929743">
        <ele>-1.463098</ele>
        <time>2026-04-17T15:16:30.277Z</time>
      </trkpt>
      <trkpt lat="52.168050" lon="4.929814">
        <ele>-1.482218</ele>
        <time>2026-04-17T15:16:31.126Z</time>
      </trkpt>
      <trkpt lat="52.168036" lon="4.929914">
        <ele>-1.508997</ele>
        <time>2026-04-17T15:16:32.314Z</time>
      </trkpt>
      <trkpt lat="52.168015" lon="4.930073">
        <ele>-1.551461</ele>
        <time>2026-04-17T15:16:34.192Z</time>
      </trkpt>
      <trkpt lat="52.168009" lon="4.930138">
        <ele>-1.568622</ele>
        <time>2026-04-17T15:16:34.940Z</time>
      </trkpt>
      <trkpt lat="52.167895" lon="4.931222">
        <ele>-1.855766</ele>
        <time>2026-04-17T15:16:47.040Z</time>
      </trkpt>
      <trkpt lat="52.167839" lon="4.931722">
        <ele>-1.987288</ele>
        <time>2026-04-17T15:16:52.466Z</time>
      </trkpt>
      <trkpt lat="52.167833" lon="4.932204">
        <ele>-2.086049</ele>
        <time>2026-04-17T15:16:57.695Z</time>
      </trkpt>
      <trkpt lat="52.167873" lon="4.932670">
        <ele>-2.182443</ele>
        <time>2026-04-17T15:17:02.866Z</time>
      </trkpt>
      <trkpt lat="52.167938" lon="4.933033">
        <ele>-2.259910</ele>
        <time>2026-04-17T15:17:07.109Z</time>
      </trkpt>
      <trkpt lat="52.168158" lon="4.933939">
        <ele>-2.459525</ele>
        <time>2026-04-17T15:17:18.855Z</time>
      </trkpt>
      <trkpt lat="52.168445" lon="4.935124">
        <ele>-2.544718</ele>
        <time>2026-04-17T15:17:35.506Z</time>
      </trkpt>
      <trkpt lat="52.170255" lon="4.942589">
        <ele>-2.023875</ele>
        <time>2026-04-17T15:19:16.800Z</time>
      </trkpt>
      <trkpt lat="52.170824" lon="4.944936">
        <ele>-1.550038</ele>
        <time>2026-04-17T15:19:50.401Z</time>
      </trkpt>
      <trkpt lat="52.171031" lon="4.945512">
        <ele>-1.446069</ele>
        <time>2026-04-17T15:19:59.031Z</time>
      </trkpt>
      <trkpt lat="52.171377" lon="4.946214">
        <ele>-1.414534</ele>
        <time>2026-04-17T15:20:10.626Z</time>
      </trkpt>
      <trkpt lat="52.171053" lon="4.946616">
        <ele>-1.391289</ele>
        <time>2026-04-17T15:20:16.782Z</time>
      </trkpt>
      <trkpt lat="52.170769" lon="4.946936">
        <ele>-1.371579</ele>
        <time>2026-04-17T15:20:21.826Z</time>
      </trkpt>
      <trkpt lat="52.170613" lon="4.947069">
        <ele>-1.361529</ele>
        <time>2026-04-17T15:20:24.342Z</time>
      </trkpt>
      <trkpt lat="52.170508" lon="4.947207">
        <ele>-1.353829</ele>
        <time>2026-04-17T15:20:26.260Z</time>
      </trkpt>
      <trkpt lat="52.170320" lon="4.947360">
        <ele>-1.361771</ele>
        <time>2026-04-17T15:20:29.277Z</time>
      </trkpt>
      <trkpt lat="52.170138" lon="4.947582">
        <ele>-1.385759</ele>
        <time>2026-04-17T15:20:32.580Z</time>
      </trkpt>
      <trkpt lat="52.169548" lon="4.948200">
        <ele>-1.459769</ele>
        <time>2026-04-17T15:20:42.656Z</time>
      </trkpt>
      <trkpt lat="52.169140" lon="4.948720">
        <ele>-1.514424</ele>
        <time>2026-04-17T15:20:50.009Z</time>
      </trkpt>
      <trkpt lat="52.168415" lon="4.949499">
        <ele>-1.580973</ele>
        <time>2026-04-17T15:21:02.529Z</time>
      </trkpt>
      <trkpt lat="52.166769" lon="4.951364">
        <ele>-1.677621</ele>
        <time>2026-04-17T15:21:31.947Z</time>
      </trkpt>
      <trkpt lat="52.165280" lon="4.953100">
        <ele>-1.652985</ele>
        <time>2026-04-17T15:21:58.938Z</time>
      </trkpt>
      <trkpt lat="52.162892" lon="4.955689">
        <ele>-1.480448</ele>
        <time>2026-04-17T15:22:42.747Z</time>
      </trkpt>
      <trkpt lat="52.162202" lon="4.956446">
        <ele>-1.541432</ele>
        <time>2026-04-17T15:22:54.542Z</time>
      </trkpt>
      <trkpt lat="52.162065" lon="4.956596">
        <ele>-1.553532</ele>
        <time>2026-04-17T15:22:56.825Z</time>
      </trkpt>
      <trkpt lat="52.161489" lon="4.957213">
        <ele>-1.594295</ele>
        <time>2026-04-17T15:23:06.912Z</time>
      </trkpt>
      <trkpt lat="52.161260" lon="4.957480">
        <ele>-1.534640</ele>
        <time>2026-04-17T15:23:11.414Z</time>
      </trkpt>
      <trkpt lat="52.160320" lon="4.958518">
        <ele>-1.294072</ele>
        <time>2026-04-17T15:23:29.314Z</time>
      </trkpt>
      <trkpt lat="52.159947" lon="4.958926">
        <ele>-1.231427</ele>
        <time>2026-04-17T15:23:36.594Z</time>
      </trkpt>
      <trkpt lat="52.159910" lon="4.958967">
        <ele>-1.236255</ele>
        <time>2026-04-17T15:23:37.303Z</time>
      </trkpt>
      <trkpt lat="52.159860" lon="4.959021">
        <ele>-1.242726</ele>
        <time>2026-04-17T15:23:38.234Z</time>
      </trkpt>
      <trkpt lat="52.159844" lon="4.959038">
        <ele>-1.244787</ele>
        <time>2026-04-17T15:23:38.543Z</time>
      </trkpt>
      <trkpt lat="52.159777" lon="4.959114">
        <ele>-1.253594</ele>
        <time>2026-04-17T15:23:39.802Z</time>
      </trkpt>
      <trkpt lat="52.160228" lon="4.960250">
        <ele>-1.343161</ele>
        <time>2026-04-17T15:23:51.929Z</time>
      </trkpt>
      <trkpt lat="52.160277" lon="4.960460">
        <ele>-1.358033</ele>
        <time>2026-04-17T15:23:53.953Z</time>
      </trkpt>
      <trkpt lat="52.162783" lon="4.966905">
        <ele>-2.872571</ele>
        <time>2026-04-17T15:24:57.242Z</time>
      </trkpt>
      <trkpt lat="52.162836" lon="4.967070">
        <ele>-2.892387</ele>
        <time>2026-04-17T15:24:58.817Z</time>
      </trkpt>
      <trkpt lat="52.163032" lon="4.967736">
        <ele>-2.970978</ele>
        <time>2026-04-17T15:25:05.184Z</time>
      </trkpt>
      <trkpt lat="52.163658" lon="4.969366">
        <ele>-3.010074</ele>
        <time>2026-04-17T15:25:22.714Z</time>
      </trkpt>
      <trkpt lat="52.164856" lon="4.972480">
        <ele>-2.575584</ele>
        <time>2026-04-17T15:25:58.317Z</time>
      </trkpt>
      <trkpt lat="52.164915" lon="4.972629">
        <ele>-2.548707</ele>
        <time>2026-04-17T15:26:00.683Z</time>
      </trkpt>
      <trkpt lat="52.165041" lon="4.972854">
        <ele>-2.502535</ele>
        <time>2026-04-17T15:26:04.840Z</time>
      </trkpt>
      <trkpt lat="52.165670" lon="4.974564">
        <ele>-2.348546</ele>
        <time>2026-04-17T15:26:30.450Z</time>
      </trkpt>
      <trkpt lat="52.165702" lon="4.974706">
        <ele>-2.345705</ele>
        <time>2026-04-17T15:26:32.303Z</time>
      </trkpt>
      <trkpt lat="52.165717" lon="4.974773">
        <ele>-2.344366</ele>
        <time>2026-04-17T15:26:33.162Z</time>
      </trkpt>
      <trkpt lat="52.165912" lon="4.975384">
        <ele>-2.331431</ele>
        <time>2026-04-17T15:26:41.469Z</time>
      </trkpt>
      <trkpt lat="52.167308" lon="4.979045">
        <ele>-2.312433</ele>
        <time>2026-04-17T15:27:34.405Z</time>
      </trkpt>
      <trkpt lat="52.168746" lon="4.982648">
        <ele>-1.575313</ele>
        <time>2026-04-17T15:28:30.110Z</time>
      </trkpt>
      <trkpt lat="52.168878" lon="4.982871">
        <ele>-1.494206</ele>
        <time>2026-04-17T15:28:34.639Z</time>
      </trkpt>
      <trkpt lat="52.169039" lon="4.983348">
        <ele>-1.351717</ele>
        <time>2026-04-17T15:28:42.609Z</time>
      </trkpt>
      <trkpt lat="52.169247" lon="4.983964">
        <ele>-1.141754</ele>
        <time>2026-04-17T15:28:52.685Z</time>
      </trkpt>
      <trkpt lat="52.169081" lon="4.984124">
        <ele>-1.041923</ele>
        <time>2026-04-17T15:28:55.920Z</time>
      </trkpt>
      <trkpt lat="52.169049" lon="4.984238">
        <ele>-1.002115</ele>
        <time>2026-04-17T15:28:57.136Z</time>
      </trkpt>
      <trkpt lat="52.168911" lon="4.984477">
        <ele>-0.897890</ele>
        <time>2026-04-17T15:29:00.596Z</time>
      </trkpt>
      <trkpt lat="52.168894" lon="4.984801">
        <ele>-0.794638</ele>
        <time>2026-04-17T15:29:03.864Z</time>
      </trkpt>
      <trkpt lat="52.168848" lon="4.984865">
        <ele>-0.763332</ele>
        <time>2026-04-17T15:29:04.784Z</time>
      </trkpt>
      <trkpt lat="52.168801" lon="4.984942">
        <ele>-0.728839</ele>
        <time>2026-04-17T15:29:05.938Z</time>
      </trkpt>
      <trkpt lat="52.168647" lon="4.985365">
        <ele>-0.572648</ele>
        <time>2026-04-17T15:29:11.005Z</time>
      </trkpt>
      <trkpt lat="52.168608" lon="4.985494">
        <ele>-0.526982</ele>
        <time>2026-04-17T15:29:12.439Z</time>
      </trkpt>
      <trkpt lat="52.168948" lon="4.985755">
        <ele>-0.348361</ele>
        <time>2026-04-17T15:29:18.783Z</time>
      </trkpt>
      <trkpt lat="52.169436" lon="4.986184">
        <ele>-0.239061</ele>
        <time>2026-04-17T15:29:27.655Z</time>
      </trkpt>
      <trkpt lat="52.169549" lon="4.986389">
        <ele>-0.205734</ele>
        <time>2026-04-17T15:29:30.426Z</time>
      </trkpt>
      <trkpt lat="52.169721" lon="4.988084">
        <ele>0.000612</ele>
        <time>2026-04-17T15:29:46.512Z</time>
      </trkpt>
      <trkpt lat="52.169790" lon="4.988311">
        <ele>0.023597</ele>
        <time>2026-04-17T15:29:48.649Z</time>
      </trkpt>
      <trkpt lat="52.169897" lon="4.988539">
        <ele>0.049644</ele>
        <time>2026-04-17T15:29:51.199Z</time>
      </trkpt>
      <trkpt lat="52.170138" lon="4.989041">
        <ele>0.107483</ele>
        <time>2026-04-17T15:29:57.350Z</time>
      </trkpt>
      <trkpt lat="52.170230" lon="4.989318">
        <ele>0.136063</ele>
        <time>2026-04-17T15:30:00.161Z</time>
      </trkpt>
      <trkpt lat="52.170261" lon="4.989402">
        <ele>0.144957</ele>
        <time>2026-04-17T15:30:01.018Z</time>
      </trkpt>
      <trkpt lat="52.170356" lon="4.989687">
        <ele>0.174387</ele>
        <time>2026-04-17T15:30:03.875Z</time>
      </trkpt>
      <trkpt lat="52.170523" lon="4.990192">
        <ele>0.226439</ele>
        <time>2026-04-17T15:30:09.529Z</time>
      </trkpt>
      <trkpt lat="52.170538" lon="4.990399">
        <ele>0.245350</ele>
        <time>2026-04-17T15:30:11.659Z</time>
      </trkpt>
      <trkpt lat="52.170538" lon="4.990587">
        <ele>0.262407</ele>
        <time>2026-04-17T15:30:13.605Z</time>
      </trkpt>
      <trkpt lat="52.170538" lon="4.990592">
        <ele>0.262496</ele>
        <time>2026-04-17T15:30:13.648Z</time>
      </trkpt>
      <trkpt lat="52.170538" lon="4.990633">
        <ele>0.262398</ele>
        <time>2026-04-17T15:30:14.045Z</time>
      </trkpt>
      <trkpt lat="52.170538" lon="4.990678">
        <ele>0.262290</ele>
        <time>2026-04-17T15:30:14.518Z</time>
      </trkpt>
      <trkpt lat="52.170538" lon="4.990903">
        <ele>0.261750</ele>
        <time>2026-04-17T15:30:16.846Z</time>
      </trkpt>
      <trkpt lat="52.170538" lon="4.990984">
        <ele>0.261556</ele>
        <time>2026-04-17T15:30:17.692Z</time>
      </trkpt>
      <trkpt lat="52.170539" lon="4.991126">
        <ele>0.261216</ele>
        <time>2026-04-17T15:30:19.155Z</time>
      </trkpt>
      <trkpt lat="52.170539" lon="4.991766">
        <ele>0.259681</ele>
        <time>2026-04-17T15:30:25.637Z</time>
      </trkpt>
      <trkpt lat="52.170624" lon="4.992144">
        <ele>0.258716</ele>
        <time>2026-04-17T15:30:28.999Z</time>
      </trkpt>
      <trkpt lat="52.170656" lon="4.992359">
        <ele>0.258185</ele>
        <time>2026-04-17T15:30:30.720Z</time>
      </trkpt>
      <trkpt lat="52.170682" lon="4.992931">
        <ele>0.256810</ele>
        <time>2026-04-17T15:30:35.501Z</time>
      </trkpt>
      <trkpt lat="52.170733" lon="4.993348">
        <ele>0.255791</ele>
        <time>2026-04-17T15:30:39.453Z</time>
      </trkpt>
      <trkpt lat="52.170839" lon="4.993499">
        <ele>0.257034</ele>
        <time>2026-04-17T15:30:41.531Z</time>
      </trkpt>
      <trkpt lat="52.170871" lon="4.993626">
        <ele>0.259233</ele>
        <time>2026-04-17T15:30:42.717Z</time>
      </trkpt>
      <trkpt lat="52.170874" lon="4.993769">
        <ele>0.261526</ele>
        <time>2026-04-17T15:30:43.987Z</time>
      </trkpt>
      <trkpt lat="52.170738" lon="4.993959">
        <ele>0.266203</ele>
        <time>2026-04-17T15:30:46.466Z</time>
      </trkpt>
      <trkpt lat="52.170592" lon="4.994023">
        <ele>0.270152</ele>
        <time>2026-04-17T15:30:48.518Z</time>
      </trkpt>
      <trkpt lat="52.170044" lon="4.994143">
        <ele>0.284594</ele>
        <time>2026-04-17T15:30:55.918Z</time>
      </trkpt>
      <trkpt lat="52.169139" lon="4.994222">
        <ele>0.406815</ele>
        <time>2026-04-17T15:31:11.500Z</time>
      </trkpt>
      <trkpt lat="52.168996" lon="4.994087">
        <ele>0.484307</ele>
        <time>2026-04-17T15:31:15.303Z</time>
      </trkpt>
      <trkpt lat="52.168905" lon="4.994019">
        <ele>0.531251</ele>
        <time>2026-04-17T15:31:17.587Z</time>
      </trkpt>
      <trkpt lat="52.167974" lon="4.993787">
        <ele>0.972924</ele>
        <time>2026-04-17T15:31:38.685Z</time>
      </trkpt>
      <trkpt lat="52.167849" lon="4.993794">
        <ele>1.031579</ele>
        <time>2026-04-17T15:31:41.425Z</time>
      </trkpt>
      <trkpt lat="52.167738" lon="4.993865">
        <ele>1.087497</ele>
        <time>2026-04-17T15:31:43.923Z</time>
      </trkpt>
      <trkpt lat="52.167656" lon="4.993980">
        <ele>1.138221</ele>
        <time>2026-04-17T15:31:46.155Z</time>
      </trkpt>
      <trkpt lat="52.167605" lon="4.994134">
        <ele>1.163949</ele>
        <time>2026-04-17T15:31:48.391Z</time>
      </trkpt>
      <trkpt lat="52.167601" lon="4.994346">
        <ele>1.189720</ele>
        <time>2026-04-17T15:31:51.081Z</time>
      </trkpt>
      <trkpt lat="52.167726" lon="4.996378">
        <ele>1.437861</ele>
        <time>2026-04-17T15:32:10.258Z</time>
      </trkpt>
      <trkpt lat="52.167806" lon="4.997609">
        <ele>1.565157</ele>
        <time>2026-04-17T15:32:22.410Z</time>
      </trkpt>
      <trkpt lat="52.167864" lon="4.998034">
        <ele>1.603842</ele>
        <time>2026-04-17T15:32:26.734Z</time>
      </trkpt>
      <trkpt lat="52.167952" lon="4.998400">
        <ele>1.638771</ele>
        <time>2026-04-17T15:32:30.559Z</time>
      </trkpt>
      <trkpt lat="52.168021" lon="4.998529">
        <ele>1.653979</ele>
        <time>2026-04-17T15:32:32.224Z</time>
      </trkpt>
      <trkpt lat="52.168128" lon="4.999099">
        <ele>1.706943</ele>
        <time>2026-04-17T15:32:37.784Z</time>
      </trkpt>
      <trkpt lat="52.168194" lon="4.999355">
        <ele>1.731617</ele>
        <time>2026-04-17T15:32:40.291Z</time>
      </trkpt>
      <trkpt lat="52.168277" lon="4.999375">
        <ele>1.743771</ele>
        <time>2026-04-17T15:32:41.512Z</time>
      </trkpt>
      <trkpt lat="52.168807" lon="4.999026">
        <ele>1.626274</ele>
        <time>2026-04-17T15:32:49.730Z</time>
      </trkpt>
      <trkpt lat="52.168861" lon="4.998899">
        <ele>1.596868</ele>
        <time>2026-04-17T15:32:51.006Z</time>
      </trkpt>
      <trkpt lat="52.168930" lon="4.998943">
        <ele>1.573881</ele>
        <time>2026-04-17T15:32:51.989Z</time>
      </trkpt>
      <trkpt lat="52.169030" lon="4.998970">
        <ele>1.542433</ele>
        <time>2026-04-17T15:32:53.884Z</time>
      </trkpt>
      <trkpt lat="52.169144" lon="4.998902">
        <ele>1.504772</ele>
        <time>2026-04-17T15:32:56.130Z</time>
      </trkpt>
      <trkpt lat="52.169455" lon="4.998679">
        <ele>1.399365</ele>
        <time>2026-04-17T15:33:02.479Z</time>
      </trkpt>
      <trkpt lat="52.169486" lon="4.998799">
        <ele>1.374588</ele>
        <time>2026-04-17T15:33:03.962Z</time>
      </trkpt>
      <trkpt lat="52.169531" lon="4.999179">
        <ele>1.300943</ele>
        <time>2026-04-17T15:33:08.403Z</time>
      </trkpt>
      <trkpt lat="52.169505" lon="4.999460">
        <ele>1.246868</ele>
        <time>2026-04-17T15:33:11.665Z</time>
      </trkpt>
      <trkpt lat="52.169327" lon="4.999741">
        <ele>1.205985</ele>
        <time>2026-04-17T15:33:16.359Z</time>
      </trkpt>
      <trkpt lat="52.169388" lon="5.000021">
        <ele>1.207936</ele>
        <time>2026-04-17T15:33:19.841Z</time>
      </trkpt>
      <trkpt lat="52.169522" lon="5.000680">
        <ele>1.212494</ele>
        <time>2026-04-17T15:33:28.171Z</time>
      </trkpt>
      <trkpt lat="52.169725" lon="5.001721">
        <ele>1.219665</ele>
        <time>2026-04-17T15:33:42.157Z</time>
      </trkpt>
      <trkpt lat="52.169908" lon="5.002657">
        <ele>1.310869</ele>
        <time>2026-04-17T15:33:55.147Z</time>
      </trkpt>
      <trkpt lat="52.170027" lon="5.003228">
        <ele>1.476384</ele>
        <time>2026-04-17T15:34:02.686Z</time>
      </trkpt>
      <trkpt lat="52.170049" lon="5.003306">
        <ele>1.499947</ele>
        <time>2026-04-17T15:34:03.873Z</time>
      </trkpt>
      <trkpt lat="52.170120" lon="5.003230">
        <ele>1.537954</ele>
        <time>2026-04-17T15:34:05.360Z</time>
      </trkpt>
      <trkpt lat="52.170330" lon="5.003013">
        <ele>1.649210</ele>
        <time>2026-04-17T15:34:09.725Z</time>
      </trkpt>
      <trkpt lat="52.170611" lon="5.002788">
        <ele>1.789300</ele>
        <time>2026-04-17T15:34:15.142Z</time>
      </trkpt>
      <trkpt lat="52.170639" lon="5.002897">
        <ele>1.821733</ele>
        <time>2026-04-17T15:34:16.745Z</time>
      </trkpt>
      <trkpt lat="52.170662" lon="5.002992">
        <ele>1.849764</ele>
        <time>2026-04-17T15:34:18.157Z</time>
      </trkpt>
      <trkpt lat="52.170686" lon="5.003125">
        <ele>1.887813</ele>
        <time>2026-04-17T15:34:20.065Z</time>
      </trkpt>
      <trkpt lat="52.170740" lon="5.003443">
        <ele>1.978373</ele>
        <time>2026-04-17T15:34:24.642Z</time>
      </trkpt>
      <trkpt lat="52.170769" lon="5.003592">
        <ele>2.021276</ele>
        <time>2026-04-17T15:34:26.824Z</time>
      </trkpt>
      <trkpt lat="52.170841" lon="5.003746">
        <ele>2.032423</ele>
        <time>2026-04-17T15:34:29.499Z</time>
      </trkpt>
      <trkpt lat="52.171024" lon="5.004057">
        <ele>2.041540</ele>
        <time>2026-04-17T15:34:35.340Z</time>
      </trkpt>
      <trkpt lat="52.171099" lon="5.004079">
        <ele>2.044169</ele>
        <time>2026-04-17T15:34:37.002Z</time>
      </trkpt>
      <trkpt lat="52.171301" lon="5.004009">
        <ele>2.051291</ele>
        <time>2026-04-17T15:34:41.293Z</time>
      </trkpt>
      <trkpt lat="52.171695" lon="5.003840">
        <ele>2.065344</ele>
        <time>2026-04-17T15:34:50.176Z</time>
      </trkpt>
      <trkpt lat="52.171708" lon="5.003832">
        <ele>2.065823</ele>
        <time>2026-04-17T15:34:50.444Z</time>
      </trkpt>
      <trkpt lat="52.171761" lon="5.003812">
        <ele>2.067699</ele>
        <time>2026-04-17T15:34:51.507Z</time>
      </trkpt>
      <trkpt lat="52.171971" lon="5.003684">
        <ele>2.075432</ele>
        <time>2026-04-17T15:34:55.822Z</time>
      </trkpt>
      <trkpt lat="52.172056" lon="5.004058">
        <ele>2.083869</ele>
        <time>2026-04-17T15:35:00.401Z</time>
      </trkpt>
      <trkpt lat="52.172283" lon="5.004811">
        <ele>1.922410</ele>
        <time>2026-04-17T15:35:09.707Z</time>
      </trkpt>
      <trkpt lat="52.172335" lon="5.004940">
        <ele>1.870801</ele>
        <time>2026-04-17T15:35:10.889Z</time>
      </trkpt>
      <trkpt lat="52.172366" lon="5.005050">
        <ele>1.830329</ele>
        <time>2026-04-17T15:35:12.218Z</time>
      </trkpt>
      <trkpt lat="52.172482" lon="5.004879">
        <ele>1.745084</ele>
        <time>2026-04-17T15:35:14.992Z</time>
      </trkpt>
      <trkpt lat="52.172893" lon="5.004402">
        <ele>1.470080</ele>
        <time>2026-04-17T15:35:21.472Z</time>
      </trkpt>
      <trkpt lat="52.173001" lon="5.004304">
        <ele>1.402705</ele>
        <time>2026-04-17T15:35:23.124Z</time>
      </trkpt>
      <trkpt lat="52.173125" lon="5.004195">
        <ele>1.325913</ele>
        <time>2026-04-17T15:35:25.026Z</time>
      </trkpt>
      <trkpt lat="52.174121" lon="5.003537">
        <ele>1.110745</ele>
        <time>2026-04-17T15:35:39.773Z</time>
      </trkpt>
      <trkpt lat="52.174329" lon="5.003438">
        <ele>1.110832</ele>
        <time>2026-04-17T15:35:42.982Z</time>
      </trkpt>
      <trkpt lat="52.174526" lon="5.003409">
        <ele>1.110912</ele>
        <time>2026-04-17T15:35:46.063Z</time>
      </trkpt>
      <trkpt lat="52.174833" lon="5.003409">
        <ele>1.111036</ele>
        <time>2026-04-17T15:35:51.051Z</time>
      </trkpt>
      <trkpt lat="52.175345" lon="5.003415">
        <ele>1.108701</ele>
        <time>2026-04-17T15:35:59.237Z</time>
      </trkpt>
      <trkpt lat="52.175733" lon="5.003407">
        <ele>1.100226</ele>
        <time>2026-04-17T15:36:05.339Z</time>
      </trkpt>
      <trkpt lat="52.175995" lon="5.003402">
        <ele>1.094504</ele>
        <time>2026-04-17T15:36:09.438Z</time>
      </trkpt>
      <trkpt lat="52.176484" lon="5.003526">
        <ele>1.083695</ele>
        <time>2026-04-17T15:36:16.853Z</time>
      </trkpt>
      <trkpt lat="52.177009" lon="5.003706">
        <ele>1.071978</ele>
        <time>2026-04-17T15:36:24.113Z</time>
      </trkpt>
      <trkpt lat="52.177910" lon="5.004043">
        <ele>0.751749</ele>
        <time>2026-04-17T15:36:36.444Z</time>
      </trkpt>
      <trkpt lat="52.178095" lon="5.004117">
        <ele>0.685562</ele>
        <time>2026-04-17T15:36:39.036Z</time>
      </trkpt>
      <trkpt lat="52.178448" lon="5.004255">
        <ele>0.559432</ele>
        <time>2026-04-17T15:36:44.042Z</time>
      </trkpt>
      <trkpt lat="52.178864" lon="5.004469">
        <ele>0.437166</ele>
        <time>2026-04-17T15:36:50.170Z</time>
      </trkpt>
      <trkpt lat="52.179448" lon="5.004935">
        <ele>0.380617</ele>
        <time>2026-04-17T15:36:59.468Z</time>
      </trkpt>
      <trkpt lat="52.179878" lon="5.005402">
        <ele>0.335684</ele>
        <time>2026-04-17T15:37:06.970Z</time>
      </trkpt>
      <trkpt lat="52.180150" lon="5.005681">
        <ele>0.307736</ele>
        <time>2026-04-17T15:37:11.717Z</time>
      </trkpt>
      <trkpt lat="52.180391" lon="5.005859">
        <ele>0.282648</ele>
        <time>2026-04-17T15:37:15.656Z</time>
      </trkpt>
      <trkpt lat="52.180701" lon="5.006097">
        <ele>0.242146</ele>
        <time>2026-04-17T15:37:20.808Z</time>
      </trkpt>
      <trkpt lat="52.181298" lon="5.006705">
        <ele>0.158945</ele>
        <time>2026-04-17T15:37:30.981Z</time>
      </trkpt>
      <trkpt lat="52.181392" lon="5.006767">
        <ele>0.146959</ele>
        <time>2026-04-17T15:37:32.438Z</time>
      </trkpt>
      <trkpt lat="52.181480" lon="5.006841">
        <ele>0.135256</ele>
        <time>2026-04-17T15:37:33.835Z</time>
      </trkpt>
      <trkpt lat="52.181698" lon="5.006932">
        <ele>0.108656</ele>
        <time>2026-04-17T15:37:37.007Z</time>
      </trkpt>
      <trkpt lat="52.182370" lon="5.007055">
        <ele>0.090813</ele>
        <time>2026-04-17T15:37:46.391Z</time>
      </trkpt>
      <trkpt lat="52.183222" lon="5.007290">
        <ele>0.117645</ele>
        <time>2026-04-17T15:37:59.030Z</time>
      </trkpt>
      <trkpt lat="52.183827" lon="5.007484">
        <ele>0.172450</ele>
        <time>2026-04-17T15:38:08.840Z</time>
      </trkpt>
      <trkpt lat="52.184826" lon="5.007759">
        <ele>0.572422</ele>
        <time>2026-04-17T15:38:26.297Z</time>
      </trkpt>
      <trkpt lat="52.185001" lon="5.007837">
        <ele>0.644043</ele>
        <time>2026-04-17T15:38:29.341Z</time>
      </trkpt>
      <trkpt lat="52.185286" lon="5.008068">
        <ele>0.769685</ele>
        <time>2026-04-17T15:38:34.517Z</time>
      </trkpt>
      <trkpt lat="52.185299" lon="5.008069">
        <ele>0.774823</ele>
        <time>2026-04-17T15:38:34.727Z</time>
      </trkpt>
      <trkpt lat="52.185362" lon="5.008074">
        <ele>0.799724</ele>
        <time>2026-04-17T15:38:35.724Z</time>
      </trkpt>
      <trkpt lat="52.185444" lon="5.008065">
        <ele>0.832170</ele>
        <time>2026-04-17T15:38:37.041Z</time>
      </trkpt>
      <trkpt lat="52.185910" lon="5.007855">
        <ele>0.790521</ele>
        <time>2026-04-17T15:38:44.191Z</time>
      </trkpt>
      <trkpt lat="52.186059" lon="5.007893">
        <ele>0.772809</ele>
        <time>2026-04-17T15:38:46.323Z</time>
      </trkpt>
      <trkpt lat="52.186222" lon="5.008017">
        <ele>0.751686</ele>
        <time>2026-04-17T15:38:48.819Z</time>
      </trkpt>
      <trkpt lat="52.186481" lon="5.008241">
        <ele>0.717256</ele>
        <time>2026-04-17T15:38:52.830Z</time>
      </trkpt>
      <trkpt lat="52.186641" lon="5.008320">
        <ele>0.697623</ele>
        <time>2026-04-17T15:38:55.113Z</time>
      </trkpt>
      <trkpt lat="52.186760" lon="5.008339">
        <ele>0.683580</ele>
        <time>2026-04-17T15:38:56.744Z</time>
      </trkpt>
      <trkpt lat="52.187171" lon="5.008301">
        <ele>0.635233</ele>
        <time>2026-04-17T15:39:02.463Z</time>
      </trkpt>
      <trkpt lat="52.187478" lon="5.008138">
        <ele>0.717736</ele>
        <time>2026-04-17T15:39:07.107Z</time>
      </trkpt>
      <trkpt lat="52.188395" lon="5.007540">
        <ele>0.997690</ele>
        <time>2026-04-17T15:39:23.221Z</time>
      </trkpt>
      <trkpt lat="52.189325" lon="5.006960">
        <ele>1.165861</ele>
        <time>2026-04-17T15:39:40.210Z</time>
      </trkpt>
      <trkpt lat="52.190090" lon="5.006522">
        <ele>1.204974</ele>
        <time>2026-04-17T15:39:52.524Z</time>
      </trkpt>
      <trkpt lat="52.190658" lon="5.006152">
        <ele>1.179789</ele>
        <time>2026-04-17T15:40:00.750Z</time>
      </trkpt>
      <trkpt lat="52.191473" lon="5.005803">
        <ele>0.796374</ele>
        <time>2026-04-17T15:40:11.775Z</time>
      </trkpt>
      <trkpt lat="52.191623" lon="5.005717">
        <ele>0.724026</ele>
        <time>2026-04-17T15:40:13.862Z</time>
      </trkpt>
      <trkpt lat="52.192191" lon="5.005286">
        <ele>0.438975</ele>
        <time>2026-04-17T15:40:22.194Z</time>
      </trkpt>
      <trkpt lat="52.192585" lon="5.005124">
        <ele>0.375921</ele>
        <time>2026-04-17T15:40:27.729Z</time>
      </trkpt>
      <trkpt lat="52.193677" lon="5.005135">
        <ele>0.265327</ele>
        <time>2026-04-17T15:40:43.619Z</time>
      </trkpt>
      <trkpt lat="52.193833" lon="5.005175">
        <ele>0.249334</ele>
        <time>2026-04-17T15:40:45.999Z</time>
      </trkpt>
      <trkpt lat="52.194168" lon="5.005312">
        <ele>0.213620</ele>
        <time>2026-04-17T15:40:51.254Z</time>
      </trkpt>
      <trkpt lat="52.194483" lon="5.005533">
        <ele>0.177101</ele>
        <time>2026-04-17T15:40:56.540Z</time>
      </trkpt>
      <trkpt lat="52.194675" lon="5.005718">
        <ele>0.153353</ele>
        <time>2026-04-17T15:40:59.889Z</time>
      </trkpt>
      <trkpt lat="52.194867" lon="5.006000">
        <ele>0.125838</ele>
        <time>2026-04-17T15:41:03.654Z</time>
      </trkpt>
      <trkpt lat="52.195225" lon="5.006620">
        <ele>0.070233</ele>
        <time>2026-04-17T15:41:10.664Z</time>
      </trkpt>
      <trkpt lat="52.195737" lon="5.007813">
        <ele>0.097048</ele>
        <time>2026-04-17T15:41:23.703Z</time>
      </trkpt>
      <trkpt lat="52.195872" lon="5.008117">
        <ele>0.120777</ele>
        <time>2026-04-17T15:41:27.302Z</time>
      </trkpt>
      <trkpt lat="52.195912" lon="5.008153">
        <ele>0.125488</ele>
        <time>2026-04-17T15:41:27.978Z</time>
      </trkpt>
      <trkpt lat="52.195997" lon="5.008437">
        <ele>0.145466</ele>
        <time>2026-04-17T15:41:30.997Z</time>
      </trkpt>
      <trkpt lat="52.196084" lon="5.008711">
        <ele>0.164972</ele>
        <time>2026-04-17T15:41:34.024Z</time>
      </trkpt>
      <trkpt lat="52.196154" lon="5.009049">
        <ele>0.187523</ele>
        <time>2026-04-17T15:41:37.519Z</time>
      </trkpt>
      <trkpt lat="52.196187" lon="5.009573">
        <ele>0.220820</ele>
        <time>2026-04-17T15:41:42.821Z</time>
      </trkpt>
      <trkpt lat="52.196177" lon="5.009686">
        <ele>0.203853</ele>
        <time>2026-04-17T15:41:43.952Z</time>
      </trkpt>
      <trkpt lat="52.196131" lon="5.009801">
        <ele>0.174142</ele>
        <time>2026-04-17T15:41:45.286Z</time>
      </trkpt>
      <trkpt lat="52.196068" lon="5.009870">
        <ele>0.147359</ele>
        <time>2026-04-17T15:41:46.456Z</time>
      </trkpt>
      <trkpt lat="52.195817" lon="5.010014">
        <ele>0.053444</ele>
        <time>2026-04-17T15:41:50.333Z</time>
      </trkpt>
      <trkpt lat="52.195773" lon="5.010084">
        <ele>0.031751</ele>
        <time>2026-04-17T15:41:51.169Z</time>
      </trkpt>
      <trkpt lat="52.195760" lon="5.010169">
        <ele>0.012796</ele>
        <time>2026-04-17T15:41:51.890Z</time>
      </trkpt>
      <trkpt lat="52.195808" lon="5.010368">
        <ele>-0.033473</ele>
        <time>2026-04-17T15:41:53.591Z</time>
      </trkpt>
      <trkpt lat="52.195868" lon="5.010613">
        <ele>-0.090555</ele>
        <time>2026-04-17T15:41:55.645Z</time>
      </trkpt>
      <trkpt lat="52.195903" lon="5.010949">
        <ele>-0.164294</ele>
        <time>2026-04-17T15:41:58.256Z</time>
      </trkpt>
      <trkpt lat="52.195891" lon="5.011280">
        <ele>-0.236035</ele>
        <time>2026-04-17T15:42:00.793Z</time>
      </trkpt>
      <trkpt lat="52.195771" lon="5.012501">
        <ele>-0.376976</ele>
        <time>2026-04-17T15:42:11.011Z</time>
      </trkpt>
      <trkpt lat="52.195753" lon="5.012960">
        <ele>-0.338462</ele>
        <time>2026-04-17T15:42:15.193Z</time>
      </trkpt>
      <trkpt lat="52.195780" lon="5.013364">
        <ele>-0.304431</ele>
        <time>2026-04-17T15:42:19.111Z</time>
      </trkpt>
      <trkpt lat="52.195842" lon="5.013776">
        <ele>-0.268907</ele>
        <time>2026-04-17T15:42:23.280Z</time>
      </trkpt>
      <trkpt lat="52.196010" lon="5.014373">
        <ele>-0.213899</ele>
        <time>2026-04-17T15:42:29.964Z</time>
      </trkpt>
      <trkpt lat="52.196100" lon="5.014591">
        <ele>-0.191890</ele>
        <time>2026-04-17T15:42:32.690Z</time>
      </trkpt>
      <trkpt lat="52.196151" lon="5.014717">
        <ele>-0.179246</ele>
        <time>2026-04-17T15:42:34.295Z</time>
      </trkpt>
      <trkpt lat="52.196424" lon="5.015139">
        <ele>-0.176457</ele>
        <time>2026-04-17T15:42:40.345Z</time>
      </trkpt>
      <trkpt lat="52.196986" lon="5.016270">
        <ele>-0.207525</ele>
        <time>2026-04-17T15:42:53.186Z</time>
      </trkpt>
      <trkpt lat="52.197329" lon="5.016753">
        <ele>-0.223298</ele>
        <time>2026-04-17T15:42:59.470Z</time>
      </trkpt>
      <trkpt lat="52.197825" lon="5.017259">
        <ele>-0.281196</ele>
        <time>2026-04-17T15:43:07.722Z</time>
      </trkpt>
      <trkpt lat="52.198115" lon="5.017656">
        <ele>-0.328588</ele>
        <time>2026-04-17T15:43:13.185Z</time>
      </trkpt>
      <trkpt lat="52.198234" lon="5.017818">
        <ele>-0.347990</ele>
        <time>2026-04-17T15:43:15.456Z</time>
      </trkpt>
      <trkpt lat="52.199265" lon="5.019111">
        <ele>-0.435040</ele>
        <time>2026-04-17T15:43:34.451Z</time>
      </trkpt>
      <trkpt lat="52.199939" lon="5.019908">
        <ele>-0.399328</ele>
        <time>2026-04-17T15:43:47.073Z</time>
      </trkpt>
      <trkpt lat="52.200636" lon="5.020551">
        <ele>-0.357912</ele>
        <time>2026-04-17T15:43:59.050Z</time>
      </trkpt>
      <trkpt lat="52.200848" lon="5.020717">
        <ele>-0.341997</ele>
        <time>2026-04-17T15:44:02.633Z</time>
      </trkpt>
      <trkpt lat="52.201157" lon="5.020892">
        <ele>-0.319860</ele>
        <time>2026-04-17T15:44:07.732Z</time>
      </trkpt>
      <trkpt lat="52.201908" lon="5.021216">
        <ele>-0.267285</ele>
        <time>2026-04-17T15:44:19.474Z</time>
      </trkpt>
      <trkpt lat="52.202442" lon="5.021548">
        <ele>-0.184039</ele>
        <time>2026-04-17T15:44:27.817Z</time>
      </trkpt>
      <trkpt lat="52.202476" lon="5.021564">
        <ele>-0.177671</ele>
        <time>2026-04-17T15:44:28.525Z</time>
      </trkpt>
      <trkpt lat="52.202546" lon="5.021594">
        <ele>-0.164646</ele>
        <time>2026-04-17T15:44:29.960Z</time>
      </trkpt>
      <trkpt lat="52.202570" lon="5.021598">
        <ele>-0.160304</ele>
        <time>2026-04-17T15:44:30.450Z</time>
      </trkpt>
      <trkpt lat="52.202622" lon="5.021584">
        <ele>-0.150819</ele>
        <time>2026-04-17T15:44:31.508Z</time>
      </trkpt>
      <trkpt lat="52.202994" lon="5.021377">
        <ele>-0.080086</ele>
        <time>2026-04-17T15:44:37.428Z</time>
      </trkpt>
      <trkpt lat="52.203256" lon="5.021297">
        <ele>-0.032116</ele>
        <time>2026-04-17T15:44:41.574Z</time>
      </trkpt>
      <trkpt lat="52.203476" lon="5.021273">
        <ele>0.007565</ele>
        <time>2026-04-17T15:44:45.039Z</time>
      </trkpt>
      <trkpt lat="52.203679" lon="5.021306">
        <ele>0.044279</ele>
        <time>2026-04-17T15:44:48.309Z</time>
      </trkpt>
      <trkpt lat="52.204112" lon="5.021464">
        <ele>0.265251</ele>
        <time>2026-04-17T15:44:55.864Z</time>
      </trkpt>
      <trkpt lat="52.204464" lon="5.021617">
        <ele>0.496289</ele>
        <time>2026-04-17T15:45:02.331Z</time>
      </trkpt>
      <trkpt lat="52.204572" lon="5.021666">
        <ele>0.567385</ele>
        <time>2026-04-17T15:45:04.343Z</time>
      </trkpt>
      <trkpt lat="52.204651" lon="5.021692">
        <ele>0.618499</ele>
        <time>2026-04-17T15:45:05.826Z</time>
      </trkpt>
      <trkpt lat="52.204707" lon="5.021710">
        <ele>0.654699</ele>
        <time>2026-04-17T15:45:06.864Z</time>
      </trkpt>
      <trkpt lat="52.204780" lon="5.021737">
        <ele>0.702173</ele>
        <time>2026-04-17T15:45:08.267Z</time>
      </trkpt>
      <trkpt lat="52.205221" lon="5.021936">
        <ele>0.992370</ele>
        <time>2026-04-17T15:45:16.616Z</time>
      </trkpt>
      <trkpt lat="52.206075" lon="5.022292">
        <ele>1.262068</ele>
        <time>2026-04-17T15:45:31.437Z</time>
      </trkpt>
      <trkpt lat="52.206508" lon="5.022574">
        <ele>1.307902</ele>
        <time>2026-04-17T15:45:38.425Z</time>
      </trkpt>
      <trkpt lat="52.206886" lon="5.022913">
        <ele>1.350305</ele>
        <time>2026-04-17T15:45:44.712Z</time>
      </trkpt>
      <trkpt lat="52.207333" lon="5.023332">
        <ele>1.313168</ele>
        <time>2026-04-17T15:45:51.762Z</time>
      </trkpt>
      <trkpt lat="52.207649" lon="5.023719">
        <ele>1.127114</ele>
        <time>2026-04-17T15:45:57.092Z</time>
      </trkpt>
      <trkpt lat="52.207978" lon="5.024244">
        <ele>0.910421</ele>
        <time>2026-04-17T15:46:03.313Z</time>
      </trkpt>
      <trkpt lat="52.208050" lon="5.024357">
        <ele>0.863379</ele>
        <time>2026-04-17T15:46:04.641Z</time>
      </trkpt>
      <trkpt lat="52.208129" lon="5.024528">
        <ele>0.801581</ele>
        <time>2026-04-17T15:46:06.380Z</time>
      </trkpt>
      <trkpt lat="52.208250" lon="5.024964">
        <ele>0.663463</ele>
        <time>2026-04-17T15:46:10.199Z</time>
      </trkpt>
      <trkpt lat="52.208562" lon="5.025961">
        <ele>0.321234</ele>
        <time>2026-04-17T15:46:19.036Z</time>
      </trkpt>
      <trkpt lat="52.208738" lon="5.026745">
        <ele>0.057001</ele>
        <time>2026-04-17T15:46:25.508Z</time>
      </trkpt>
      <trkpt lat="52.208824" lon="5.026983">
        <ele>-0.030437</ele>
        <time>2026-04-17T15:46:27.666Z</time>
      </trkpt>
      <trkpt lat="52.208861" lon="5.027066">
        <ele>-0.062918</ele>
        <time>2026-04-17T15:46:28.477Z</time>
      </trkpt>
      <trkpt lat="52.208973" lon="5.027297">
        <ele>-0.156136</ele>
        <time>2026-04-17T15:46:30.851Z</time>
      </trkpt>
      <trkpt lat="52.209274" lon="5.028038">
        <ele>-0.379253</ele>
        <time>2026-04-17T15:46:38.502Z</time>
      </trkpt>
      <trkpt lat="52.209389" lon="5.028251">
        <ele>-0.358767</ele>
        <time>2026-04-17T15:46:41.195Z</time>
      </trkpt>
      <trkpt lat="52.209595" lon="5.028542">
        <ele>-0.326680</ele>
        <time>2026-04-17T15:46:45.498Z</time>
      </trkpt>
      <trkpt lat="52.210239" lon="5.029301">
        <ele>-0.233127</ele>
        <time>2026-04-17T15:46:58.060Z</time>
      </trkpt>
      <trkpt lat="52.210433" lon="5.029461">
        <ele>-0.207528</ele>
        <time>2026-04-17T15:47:01.518Z</time>
      </trkpt>
      <trkpt lat="52.211403" lon="5.029921">
        <ele>-0.216574</ele>
        <time>2026-04-17T15:47:16.733Z</time>
      </trkpt>
      <trkpt lat="52.211994" lon="5.030240">
        <ele>-0.247909</ele>
        <time>2026-04-17T15:47:25.450Z</time>
      </trkpt>
      <trkpt lat="52.213698" lon="5.031267">
        <ele>-0.338785</ele>
        <time>2026-04-17T15:47:51.589Z</time>
      </trkpt>
      <trkpt lat="52.214245" lon="5.031522">
        <ele>-0.350831</ele>
        <time>2026-04-17T15:48:00.479Z</time>
      </trkpt>
      <trkpt lat="52.214287" lon="5.031531">
        <ele>-0.348917</ele>
        <time>2026-04-17T15:48:01.146Z</time>
      </trkpt>
      <trkpt lat="52.214310" lon="5.031537">
        <ele>-0.347865</ele>
        <time>2026-04-17T15:48:01.532Z</time>
      </trkpt>
      <trkpt lat="52.214434" lon="5.031563">
        <ele>-0.342216</ele>
        <time>2026-04-17T15:48:03.478Z</time>
      </trkpt>
      <trkpt lat="52.214880" lon="5.031670">
        <ele>-0.321847</ele>
        <time>2026-04-17T15:48:10.568Z</time>
      </trkpt>
      <trkpt lat="52.215078" lon="5.031759">
        <ele>-0.312567</ele>
        <time>2026-04-17T15:48:13.729Z</time>
      </trkpt>
      <trkpt lat="52.215311" lon="5.031972">
        <ele>-0.300500</ele>
        <time>2026-04-17T15:48:17.733Z</time>
      </trkpt>
      <trkpt lat="52.215412" lon="5.032023">
        <ele>-0.295723</ele>
        <time>2026-04-17T15:48:19.262Z</time>
      </trkpt>
      <trkpt lat="52.216058" lon="5.032215">
        <ele>-0.272514</ele>
        <time>2026-04-17T15:48:28.538Z</time>
      </trkpt>
      <trkpt lat="52.216524" lon="5.032353">
        <ele>-0.263370</ele>
        <time>2026-04-17T15:48:35.320Z</time>
      </trkpt>
      <trkpt lat="52.216864" lon="5.032325">
        <ele>-0.256797</ele>
        <time>2026-04-17T15:48:40.306Z</time>
      </trkpt>
      <trkpt lat="52.217744" lon="5.031812">
        <ele>-0.203880</ele>
        <time>2026-04-17T15:48:54.687Z</time>
      </trkpt>
      <trkpt lat="52.218161" lon="5.031433">
        <ele>-0.111202</ele>
        <time>2026-04-17T15:49:02.162Z</time>
      </trkpt>
      <trkpt lat="52.218621" lon="5.030577">
        <ele>0.024252</ele>
        <time>2026-04-17T15:49:13.036Z</time>
      </trkpt>
      <trkpt lat="52.218698" lon="5.030513">
        <ele>0.041030</ele>
        <time>2026-04-17T15:49:14.383Z</time>
      </trkpt>
      <trkpt lat="52.218763" lon="5.030514">
        <ele>0.053652</ele>
        <time>2026-04-17T15:49:15.407Z</time>
      </trkpt>
      <trkpt lat="52.218818" lon="5.030548">
        <ele>0.065072</ele>
        <time>2026-04-17T15:49:16.330Z</time>
      </trkpt>
      <trkpt lat="52.218918" lon="5.030750">
        <ele>0.095966</ele>
        <time>2026-04-17T15:49:18.822Z</time>
      </trkpt>
      <trkpt lat="52.219136" lon="5.031522">
        <ele>0.202388</ele>
        <time>2026-04-17T15:49:27.083Z</time>
      </trkpt>
      <trkpt lat="52.219387" lon="5.032291">
        <ele>0.312113</ele>
        <time>2026-04-17T15:49:35.665Z</time>
      </trkpt>
      <trkpt lat="52.219662" lon="5.033026">
        <ele>0.420565</ele>
        <time>2026-04-17T15:49:43.931Z</time>
      </trkpt>
      <trkpt lat="52.219841" lon="5.033424">
        <ele>0.473613</ele>
        <time>2026-04-17T15:49:48.527Z</time>
      </trkpt>
      <trkpt lat="52.220036" lon="5.033792">
        <ele>0.447319</ele>
        <time>2026-04-17T15:49:52.991Z</time>
      </trkpt>
      <trkpt lat="52.220347" lon="5.034224">
        <ele>0.411295</ele>
        <time>2026-04-17T15:49:58.944Z</time>
      </trkpt>
      <trkpt lat="52.220615" lon="5.034475">
        <ele>0.384039</ele>
        <time>2026-04-17T15:50:03.330Z</time>
      </trkpt>
      <trkpt lat="52.220891" lon="5.034652">
        <ele>0.357880</ele>
        <time>2026-04-17T15:50:07.485Z</time>
      </trkpt>
      <trkpt lat="52.221249" lon="5.034821">
        <ele>0.325006</ele>
        <time>2026-04-17T15:50:12.791Z</time>
      </trkpt>
      <trkpt lat="52.221780" lon="5.034939">
        <ele>0.234134</ele>
        <time>2026-04-17T15:50:20.532Z</time>
      </trkpt>
      <trkpt lat="52.222055" lon="5.034877">
        <ele>0.182924</ele>
        <time>2026-04-17T15:50:24.499Z</time>
      </trkpt>
      <trkpt lat="52.222400" lon="5.034700">
        <ele>0.116214</ele>
        <time>2026-04-17T15:50:29.573Z</time>
      </trkpt>
      <trkpt lat="52.222888" lon="5.034304">
        <ele>0.015686</ele>
        <time>2026-04-17T15:50:37.133Z</time>
      </trkpt>
      <trkpt lat="52.223427" lon="5.033951">
        <ele>0.000812</ele>
        <time>2026-04-17T15:50:45.338Z</time>
      </trkpt>
      <trkpt lat="52.223613" lon="5.033869">
        <ele>0.007665</ele>
        <time>2026-04-17T15:50:48.132Z</time>
      </trkpt>
      <trkpt lat="52.223967" lon="5.033838">
        <ele>0.020273</ele>
        <time>2026-04-17T15:50:53.452Z</time>
      </trkpt>
      <trkpt lat="52.224036" lon="5.033837">
        <ele>0.022727</ele>
        <time>2026-04-17T15:50:54.511Z</time>
      </trkpt>
      <trkpt lat="52.224674" lon="5.033817">
        <ele>0.045422</ele>
        <time>2026-04-17T15:51:04.411Z</time>
      </trkpt>
      <trkpt lat="52.225068" lon="5.033846">
        <ele>0.122979</ele>
        <time>2026-04-17T15:51:10.666Z</time>
      </trkpt>
      <trkpt lat="52.225343" lon="5.033833">
        <ele>0.197655</ele>
        <time>2026-04-17T15:51:15.020Z</time>
      </trkpt>
      <trkpt lat="52.225553" lon="5.033862">
        <ele>0.254860</ele>
        <time>2026-04-17T15:51:18.366Z</time>
      </trkpt>
      <trkpt lat="52.226500" lon="5.034079">
        <ele>0.514429</ele>
        <time>2026-04-17T15:51:33.700Z</time>
      </trkpt>
      <trkpt lat="52.226618" lon="5.034099">
        <ele>0.547612</ele>
        <time>2026-04-17T15:51:35.624Z</time>
      </trkpt>
      <trkpt lat="52.226683" lon="5.034072">
        <ele>0.567908</ele>
        <time>2026-04-17T15:51:36.734Z</time>
      </trkpt>
      <trkpt lat="52.226925" lon="5.033953">
        <ele>0.644388</ele>
        <time>2026-04-17T15:51:40.729Z</time>
      </trkpt>
      <trkpt lat="52.227300" lon="5.033949">
        <ele>0.757868</ele>
        <time>2026-04-17T15:51:46.927Z</time>
      </trkpt>
      <trkpt lat="52.227503" lon="5.034033">
        <ele>0.821239</ele>
        <time>2026-04-17T15:51:50.404Z</time>
      </trkpt>
      <trkpt lat="52.227691" lon="5.034270">
        <ele>0.893115</ele>
        <time>2026-04-17T15:51:54.369Z</time>
      </trkpt>
      <trkpt lat="52.227774" lon="5.034164">
        <ele>0.925004</ele>
        <time>2026-04-17T15:51:56.056Z</time>
      </trkpt>
      <trkpt lat="52.227826" lon="5.034158">
        <ele>0.940778</ele>
        <time>2026-04-17T15:51:56.884Z</time>
      </trkpt>
      <trkpt lat="52.227979" lon="5.034292">
        <ele>0.993318</ele>
        <time>2026-04-17T15:51:59.587Z</time>
      </trkpt>
      <trkpt lat="52.228069" lon="5.034365">
        <ele>1.023729</ele>
        <time>2026-04-17T15:52:01.114Z</time>
      </trkpt>
      <trkpt lat="52.228255" lon="5.034518">
        <ele>1.079293</ele>
        <time>2026-04-17T15:52:04.287Z</time>
      </trkpt>
      <trkpt lat="52.228377" lon="5.034617">
        <ele>1.050438</ele>
        <time>2026-04-17T15:52:06.351Z</time>
      </trkpt>
      <trkpt lat="52.228546" lon="5.034724">
        <ele>1.012048</ele>
        <time>2026-04-17T15:52:09.087Z</time>
      </trkpt>
      <trkpt lat="52.228674" lon="5.034719">
        <ele>0.984931</ele>
        <time>2026-04-17T15:52:11.001Z</time>
      </trkpt>
      <trkpt lat="52.229000" lon="5.034589">
        <ele>0.913856</ele>
        <time>2026-04-17T15:52:17.822Z</time>
      </trkpt>
      <trkpt lat="52.230064" lon="5.034332">
        <ele>0.677915</ele>
        <time>2026-04-17T15:52:37.905Z</time>
      </trkpt>
      <trkpt lat="52.230021" lon="5.034166">
        <ele>0.642151</ele>
        <time>2026-04-17T15:52:39.916Z</time>
      </trkpt>
      <trkpt lat="52.229906" lon="5.033720">
        <ele>0.546129</ele>
        <time>2026-04-17T15:52:45.398Z</time>
      </trkpt>
      <trkpt lat="52.229819" lon="5.033224">
        <ele>0.443752</ele>
        <time>2026-04-17T15:52:51.371Z</time>
      </trkpt>
      <trkpt lat="52.229814" lon="5.033153">
        <ele>0.429570</ele>
        <time>2026-04-17T15:52:52.193Z</time>
      </trkpt>
      <trkpt lat="52.229810" lon="5.033106">
        <ele>0.420154</ele>
        <time>2026-04-17T15:52:52.734Z</time>
      </trkpt>
      <trkpt lat="52.229806" lon="5.033048">
        <ele>0.408573</ele>
        <time>2026-04-17T15:52:53.228Z</time>
      </trkpt>
      <trkpt lat="52.229790" lon="5.032840">
        <ele>0.366975</ele>
        <time>2026-04-17T15:52:54.958Z</time>
      </trkpt>
      <trkpt lat="52.229781" lon="5.032709">
        <ele>0.340818</ele>
        <time>2026-04-17T15:52:56.057Z</time>
      </trkpt>
      <trkpt lat="52.229775" lon="5.032638">
        <ele>0.326596</ele>
        <time>2026-04-17T15:52:56.862Z</time>
      </trkpt>
      <trkpt lat="52.230125" lon="5.032542">
        <ele>0.211617</ele>
        <time>2026-04-17T15:53:03.623Z</time>
      </trkpt>
      <trkpt lat="52.230252" lon="5.032423">
        <ele>0.164179</ele>
        <time>2026-04-17T15:53:06.481Z</time>
      </trkpt>
      <trkpt lat="52.230345" lon="5.032517">
        <ele>0.128743</ele>
        <time>2026-04-17T15:53:08.618Z</time>
      </trkpt>
      <trkpt lat="52.230806" lon="5.032531">
        <ele>0.099593</ele>
        <time>2026-04-17T15:53:18.155Z</time>
      </trkpt>
      <trkpt lat="52.230880" lon="5.032529">
        <ele>0.096303</ele>
        <time>2026-04-17T15:53:19.764Z</time>
      </trkpt>
      <trkpt lat="52.231177" lon="5.032478">
        <ele>0.083025</ele>
        <time>2026-04-17T15:53:26.128Z</time>
      </trkpt>
      <trkpt lat="52.231447" lon="5.032338">
        <ele>0.070430</ele>
        <time>2026-04-17T15:53:31.814Z</time>
      </trkpt>
      <trkpt lat="52.231537" lon="5.032258">
        <ele>0.065874</ele>
        <time>2026-04-17T15:53:33.841Z</time>
      </trkpt>
      <trkpt lat="52.231596" lon="5.032179">
        <ele>0.062481</ele>
        <time>2026-04-17T15:53:35.327Z</time>
      </trkpt>
      <trkpt lat="52.231727" lon="5.031816">
        <ele>0.051008</ele>
        <time>2026-04-17T15:53:40.368Z</time>
      </trkpt>
      <trkpt lat="52.231783" lon="5.031660">
        <ele>0.046084</ele>
        <time>2026-04-17T15:53:41.964Z</time>
      </trkpt>
      <trkpt lat="52.232040" lon="5.031104">
        <ele>0.002666</ele>
        <time>2026-04-17T15:53:47.998Z</time>
      </trkpt>
      <trkpt lat="52.232290" lon="5.030727">
        <ele>-0.044269</ele>
        <time>2026-04-17T15:53:52.754Z</time>
      </trkpt>
      <trkpt lat="52.232326" lon="5.030611">
        <ele>-0.055253</ele>
        <time>2026-04-17T15:53:53.861Z</time>
      </trkpt>
      <trkpt lat="52.232417" lon="5.030630">
        <ele>-0.067906</ele>
        <time>2026-04-17T15:53:55.134Z</time>
      </trkpt>
      <trkpt lat="52.232786" lon="5.030518">
        <ele>-0.119668</ele>
        <time>2026-04-17T15:54:00.377Z</time>
      </trkpt>
      <trkpt lat="52.232994" lon="5.030514">
        <ele>-0.148357</ele>
        <time>2026-04-17T15:54:03.359Z</time>
      </trkpt>
      <trkpt lat="52.233224" lon="5.030562">
        <ele>-0.180335</ele>
        <time>2026-04-17T15:54:06.786Z</time>
      </trkpt>
      <trkpt lat="52.233524" lon="5.030723">
        <ele>-0.207239</ele>
        <time>2026-04-17T15:54:11.651Z</time>
      </trkpt>
      <trkpt lat="52.233669" lon="5.030767">
        <ele>-0.204346</ele>
        <time>2026-04-17T15:54:13.934Z</time>
      </trkpt>
      <trkpt lat="52.234525" lon="5.030848">
        <ele>-0.187526</ele>
        <time>2026-04-17T15:54:26.850Z</time>
      </trkpt>
      <trkpt lat="52.234991" lon="5.030925">
        <ele>-0.178337</ele>
        <time>2026-04-17T15:54:33.785Z</time>
      </trkpt>
      <trkpt lat="52.235320" lon="5.031109">
        <ele>-0.221409</ele>
        <time>2026-04-17T15:54:38.797Z</time>
      </trkpt>
      <trkpt lat="52.235565" lon="5.031292">
        <ele>-0.321056</ele>
        <time>2026-04-17T15:54:42.597Z</time>
      </trkpt>
      <trkpt lat="52.235590" lon="5.031311">
        <ele>-0.331255</ele>
        <time>2026-04-17T15:54:42.972Z</time>
      </trkpt>
      <trkpt lat="52.235889" lon="5.031581">
        <ele>-0.457628</ele>
        <time>2026-04-17T15:54:47.688Z</time>
      </trkpt>
      <trkpt lat="52.236007" lon="5.031743">
        <ele>-0.514648</ele>
        <time>2026-04-17T15:54:49.799Z</time>
      </trkpt>
      <trkpt lat="52.236243" lon="5.032218">
        <ele>-0.653193</ele>
        <time>2026-04-17T15:54:54.916Z</time>
      </trkpt>
      <trkpt lat="52.236446" lon="5.032399">
        <ele>-0.738739</ele>
        <time>2026-04-17T15:54:57.991Z</time>
      </trkpt>
      <trkpt lat="52.237150" lon="5.032830">
        <ele>-0.956411</ele>
        <time>2026-04-17T15:55:07.475Z</time>
      </trkpt>
      <trkpt lat="52.238036" lon="5.033705">
        <ele>-1.209069</ele>
        <time>2026-04-17T15:55:22.009Z</time>
      </trkpt>
      <trkpt lat="52.238131" lon="5.033800">
        <ele>-1.236251</ele>
        <time>2026-04-17T15:55:23.735Z</time>
      </trkpt>
      <trkpt lat="52.238420" lon="5.034150">
        <ele>-1.238787</ele>
        <time>2026-04-17T15:55:29.470Z</time>
      </trkpt>
      <trkpt lat="52.238935" lon="5.034952">
        <ele>-1.089721</ele>
        <time>2026-04-17T15:55:41.873Z</time>
      </trkpt>
      <trkpt lat="52.239398" lon="5.035843">
        <ele>-0.939827</ele>
        <time>2026-04-17T15:55:52.842Z</time>
      </trkpt>
      <trkpt lat="52.240291" lon="5.037151">
        <ele>-0.866296</ele>
        <time>2026-04-17T15:56:09.576Z</time>
      </trkpt>
      <trkpt lat="52.241130" lon="5.038490">
        <ele>-0.782727</ele>
        <time>2026-04-17T15:56:28.355Z</time>
      </trkpt>
      <trkpt lat="52.241551" lon="5.038660">
        <ele>-0.719970</ele>
        <time>2026-04-17T15:56:35.349Z</time>
      </trkpt>
      <trkpt lat="52.242051" lon="5.039042">
        <ele>-0.640089</ele>
        <time>2026-04-17T15:56:43.638Z</time>
      </trkpt>
      <trkpt lat="52.242660" lon="5.039533">
        <ele>-0.614780</ele>
        <time>2026-04-17T15:56:53.936Z</time>
      </trkpt>
      <trkpt lat="52.242720" lon="5.039547">
        <ele>-0.623228</ele>
        <time>2026-04-17T15:56:54.815Z</time>
      </trkpt>
      <trkpt lat="52.242944" lon="5.039475">
        <ele>-0.655048</ele>
        <time>2026-04-17T15:56:58.030Z</time>
      </trkpt>
      <trkpt lat="52.243346" lon="5.039114">
        <ele>-0.718991</ele>
        <time>2026-04-17T15:57:04.451Z</time>
      </trkpt>
      <trkpt lat="52.243866" lon="5.038380">
        <ele>-0.814787</ele>
        <time>2026-04-17T15:57:14.661Z</time>
      </trkpt>
      <trkpt lat="52.244352" lon="5.037627">
        <ele>-0.990439</ele>
        <time>2026-04-17T15:57:23.552Z</time>
      </trkpt>
      <trkpt lat="52.244760" lon="5.036732">
        <ele>-1.185494</ele>
        <time>2026-04-17T15:57:32.552Z</time>
      </trkpt>
      <trkpt lat="52.244879" lon="5.036472">
        <ele>-1.242239</ele>
        <time>2026-04-17T15:57:35.402Z</time>
      </trkpt>
      <trkpt lat="52.245050" lon="5.036159">
        <ele>-1.315568</ele>
        <time>2026-04-17T15:57:39.178Z</time>
      </trkpt>
      <trkpt lat="52.245430" lon="5.035703">
        <ele>-1.216968</ele>
        <time>2026-04-17T15:57:46.267Z</time>
      </trkpt>
      <trkpt lat="52.245638" lon="5.035603">
        <ele>-1.143953</ele>
        <time>2026-04-17T15:57:49.703Z</time>
      </trkpt>
      <trkpt lat="52.245815" lon="5.035595">
        <ele>-1.084327</ele>
        <time>2026-04-17T15:57:52.633Z</time>
      </trkpt>
      <trkpt lat="52.246063" lon="5.035639">
        <ele>-1.000322</ele>
        <time>2026-04-17T15:57:56.935Z</time>
      </trkpt>
      <trkpt lat="52.246317" lon="5.035847">
        <ele>-0.904640</ele>
        <time>2026-04-17T15:58:01.895Z</time>
      </trkpt>
      <trkpt lat="52.246495" lon="5.036166">
        <ele>-0.815653</ele>
        <time>2026-04-17T15:58:06.432Z</time>
      </trkpt>
      <trkpt lat="52.246702" lon="5.036669">
        <ele>-0.738335</ele>
        <time>2026-04-17T15:58:12.455Z</time>
      </trkpt>
      <trkpt lat="52.246972" lon="5.037670">
        <ele>-0.742362</ele>
        <time>2026-04-17T15:58:22.493Z</time>
      </trkpt>
      <trkpt lat="52.246999" lon="5.037758">
        <ele>-0.742725</ele>
        <time>2026-04-17T15:58:23.410Z</time>
      </trkpt>
      <trkpt lat="52.247113" lon="5.038298">
        <ele>-0.744828</ele>
        <time>2026-04-17T15:58:28.528Z</time>
      </trkpt>
      <trkpt lat="52.247200" lon="5.038872">
        <ele>-0.747005</ele>
        <time>2026-04-17T15:58:33.612Z</time>
      </trkpt>
      <trkpt lat="52.247335" lon="5.040344">
        <ele>-0.847077</ele>
        <time>2026-04-17T15:58:46.263Z</time>
      </trkpt>
      <trkpt lat="52.247433" lon="5.041076">
        <ele>-0.912420</ele>
        <time>2026-04-17T15:58:52.928Z</time>
      </trkpt>
      <trkpt lat="52.247432" lon="5.041392">
        <ele>-0.939977</ele>
        <time>2026-04-17T15:58:55.773Z</time>
      </trkpt>
      <trkpt lat="52.247360" lon="5.042013">
        <ele>-0.995095</ele>
        <time>2026-04-17T15:59:01.422Z</time>
      </trkpt>
      <trkpt lat="52.247387" lon="5.042440">
        <ele>-1.005270</ele>
        <time>2026-04-17T15:59:05.224Z</time>
      </trkpt>
      <trkpt lat="52.247451" lon="5.042920">
        <ele>-1.006439</ele>
        <time>2026-04-17T15:59:09.551Z</time>
      </trkpt>
      <trkpt lat="52.247605" lon="5.043758">
        <ele>-1.008521</ele>
        <time>2026-04-17T15:59:17.227Z</time>
      </trkpt>
      <trkpt lat="52.247704" lon="5.043958">
        <ele>-1.009133</ele>
        <time>2026-04-17T15:59:19.534Z</time>
      </trkpt>
      <trkpt lat="52.248070" lon="5.044190">
        <ele>-1.010659</ele>
        <time>2026-04-17T15:59:25.364Z</time>
      </trkpt>
      <trkpt lat="52.248313" lon="5.044287">
        <ele>-1.004135</ele>
        <time>2026-04-17T15:59:29.188Z</time>
      </trkpt>
      <trkpt lat="52.248773" lon="5.044331">
        <ele>-0.906599</ele>
        <time>2026-04-17T15:59:36.663Z</time>
      </trkpt>
      <trkpt lat="52.249304" lon="5.044302">
        <ele>-0.794138</ele>
        <time>2026-04-17T15:59:45.315Z</time>
      </trkpt>
      <trkpt lat="52.249551" lon="5.044239">
        <ele>-0.741222</ele>
        <time>2026-04-17T15:59:49.340Z</time>
      </trkpt>
      <trkpt lat="52.249702" lon="5.044151">
        <ele>-0.707286</ele>
        <time>2026-04-17T15:59:51.858Z</time>
      </trkpt>
      <trkpt lat="52.249930" lon="5.043942">
        <ele>-0.651944</ele>
        <time>2026-04-17T15:59:55.846Z</time>
      </trkpt>
      <trkpt lat="52.250624" lon="5.043534">
        <ele>-0.644711</ele>
        <time>2026-04-17T16:00:06.679Z</time>
      </trkpt>
      <trkpt lat="52.251133" lon="5.043321">
        <ele>-0.656196</ele>
        <time>2026-04-17T16:00:14.137Z</time>
      </trkpt>
      <trkpt lat="52.251888" lon="5.043131">
        <ele>-0.681166</ele>
        <time>2026-04-17T16:00:25.592Z</time>
      </trkpt>
      <trkpt lat="52.252252" lon="5.042850">
        <ele>-0.715929</ele>
        <time>2026-04-17T16:00:31.709Z</time>
      </trkpt>
      <trkpt lat="52.252939" lon="5.042702">
        <ele>-0.775762</ele>
        <time>2026-04-17T16:00:45.618Z</time>
      </trkpt>
      <trkpt lat="52.253822" lon="5.042351">
        <ele>-0.872969</ele>
        <time>2026-04-17T16:01:03.325Z</time>
      </trkpt>
      <trkpt lat="52.253939" lon="5.042256">
        <ele>-0.891582</ele>
        <time>2026-04-17T16:01:05.828Z</time>
      </trkpt>
      <trkpt lat="52.254168" lon="5.041977">
        <ele>-0.932279</ele>
        <time>2026-04-17T16:01:11.347Z</time>
      </trkpt>
      <trkpt lat="52.254241" lon="5.041822">
        <ele>-0.949334</ele>
        <time>2026-04-17T16:01:13.694Z</time>
      </trkpt>
      <trkpt lat="52.254248" lon="5.041720">
        <ele>-0.958285</ele>
        <time>2026-04-17T16:01:14.912Z</time>
      </trkpt>
      <trkpt lat="52.254212" lon="5.041564">
        <ele>-0.972824</ele>
        <time>2026-04-17T16:01:16.915Z</time>
      </trkpt>
      <trkpt lat="52.253552" lon="5.039923">
        <ele>-1.143314</ele>
        <time>2026-04-17T16:01:40.694Z</time>
      </trkpt>
      <trkpt lat="52.253507" lon="5.039759">
        <ele>-1.158802</ele>
        <time>2026-04-17T16:01:42.883Z</time>
      </trkpt>
      <trkpt lat="52.253503" lon="5.039601">
        <ele>-1.172429</ele>
        <time>2026-04-17T16:01:44.805Z</time>
      </trkpt>
      <trkpt lat="52.253602" lon="5.039025">
        <ele>-1.223984</ele>
        <time>2026-04-17T16:01:52.064Z</time>
      </trkpt>
      <trkpt lat="52.253601" lon="5.038890">
        <ele>-1.235618</ele>
        <time>2026-04-17T16:01:53.706Z</time>
      </trkpt>
      <trkpt lat="52.253569" lon="5.038760">
        <ele>-1.247693</ele>
        <time>2026-04-17T16:01:55.409Z</time>
      </trkpt>
      <trkpt lat="52.252650" lon="5.036976">
        <ele>-1.809054</ele>
        <time>2026-04-17T16:02:23.200Z</time>
      </trkpt>
      <trkpt lat="52.252625" lon="5.036911">
        <ele>-1.836622</ele>
        <time>2026-04-17T16:02:24.116Z</time>
      </trkpt>
      <trkpt lat="52.252245" lon="5.035965">
        <ele>-2.242963</ele>
        <time>2026-04-17T16:02:32.446Z</time>
      </trkpt>
      <trkpt lat="52.252183" lon="5.035704">
        <ele>-2.343506</ele>
        <time>2026-04-17T16:02:34.516Z</time>
      </trkpt>
      <trkpt lat="52.252161" lon="5.035496">
        <ele>-2.392196</ele>
        <time>2026-04-17T16:02:36.146Z</time>
      </trkpt>
      <trkpt lat="52.252157" lon="5.035151">
        <ele>-2.401619</ele>
        <time>2026-04-17T16:02:39.070Z</time>
      </trkpt>
      <trkpt lat="52.252181" lon="5.034931">
        <ele>-2.407722</ele>
        <time>2026-04-17T16:02:40.901Z</time>
      </trkpt>
      <trkpt lat="52.252239" lon="5.034742">
        <ele>-2.413495</ele>
        <time>2026-04-17T16:02:42.608Z</time>
      </trkpt>
      <trkpt lat="52.252410" lon="5.034376">
        <ele>-2.426068</ele>
        <time>2026-04-17T16:02:46.538Z</time>
      </trkpt>
      <trkpt lat="52.252823" lon="5.033922">
        <ele>-2.448274</ele>
        <time>2026-04-17T16:02:53.912Z</time>
      </trkpt>
      <trkpt lat="52.252897" lon="5.033829">
        <ele>-2.452439</ele>
        <time>2026-04-17T16:02:55.218Z</time>
      </trkpt>
      <trkpt lat="52.253135" lon="5.033558">
        <ele>-2.465380</ele>
        <time>2026-04-17T16:03:00.191Z</time>
      </trkpt>
      <trkpt lat="52.253629" lon="5.032911">
        <ele>-2.250389</ele>
        <time>2026-04-17T16:03:12.250Z</time>
      </trkpt>
      <trkpt lat="52.254366" lon="5.031741">
        <ele>-1.820258</ele>
        <time>2026-04-17T16:03:28.251Z</time>
      </trkpt>
      <trkpt lat="52.254566" lon="5.031508">
        <ele>-1.717443</ele>
        <time>2026-04-17T16:03:32.223Z</time>
      </trkpt>
      <trkpt lat="52.255116" lon="5.031019">
        <ele>-1.507934</ele>
        <time>2026-04-17T16:03:42.345Z</time>
      </trkpt>
      <trkpt lat="52.255351" lon="5.030829">
        <ele>-1.420209</ele>
        <time>2026-04-17T16:03:46.656Z</time>
      </trkpt>
      <trkpt lat="52.255871" lon="5.030523">
        <ele>-1.235293</ele>
        <time>2026-04-17T16:03:55.745Z</time>
      </trkpt>
      <trkpt lat="52.256325" lon="5.030354">
        <ele>-1.104419</ele>
        <time>2026-04-17T16:04:03.517Z</time>
      </trkpt>
      <trkpt lat="52.256490" lon="5.030184">
        <ele>-1.084164</ele>
        <time>2026-04-17T16:04:06.454Z</time>
      </trkpt>
      <trkpt lat="52.256576" lon="5.029970">
        <ele>-1.067893</ele>
        <time>2026-04-17T16:04:08.758Z</time>
      </trkpt>
      <trkpt lat="52.256689" lon="5.029793">
        <ele>-1.051638</ele>
        <time>2026-04-17T16:04:11.057Z</time>
      </trkpt>
      <trkpt lat="52.256982" lon="5.029808">
        <ele>-1.021200</ele>
        <time>2026-04-17T16:04:15.375Z</time>
      </trkpt>
      <trkpt lat="52.257107" lon="5.029903">
        <ele>-1.006886</ele>
        <time>2026-04-17T16:04:17.399Z</time>
      </trkpt>
      <trkpt lat="52.257279" lon="5.030165">
        <ele>-0.982468</ele>
        <time>2026-04-17T16:04:20.870Z</time>
      </trkpt>
      <trkpt lat="52.257480" lon="5.030600">
        <ele>-0.947827</ele>
        <time>2026-04-17T16:04:25.843Z</time>
      </trkpt>
      <trkpt lat="52.258260" lon="5.031450">
        <ele>-0.694815</ele>
        <time>2026-04-17T16:04:40.600Z</time>
      </trkpt>
      <trkpt lat="52.258447" lon="5.031544">
        <ele>-0.634165</ele>
        <time>2026-04-17T16:04:43.849Z</time>
      </trkpt>
      <trkpt lat="52.258833" lon="5.031537">
        <ele>-0.514503</ele>
        <time>2026-04-17T16:04:50.267Z</time>
      </trkpt>
      <trkpt lat="52.259476" lon="5.031738">
        <ele>-0.336043</ele>
        <time>2026-04-17T16:05:00.999Z</time>
      </trkpt>
      <trkpt lat="52.259588" lon="5.031705">
        <ele>-0.315216</ele>
        <time>2026-04-17T16:05:02.840Z</time>
      </trkpt>
      <trkpt lat="52.259782" lon="5.031344">
        <ele>-0.261408</ele>
        <time>2026-04-17T16:05:07.556Z</time>
      </trkpt>
      <trkpt lat="52.260610" lon="5.030540">
        <ele>-0.085146</ele>
        <time>2026-04-17T16:05:22.561Z</time>
      </trkpt>
      <trkpt lat="52.260928" lon="5.030272">
        <ele>-0.065106</ele>
        <time>2026-04-17T16:05:27.860Z</time>
      </trkpt>
      <trkpt lat="52.261275" lon="5.029908">
        <ele>-0.142018</ele>
        <time>2026-04-17T16:05:33.738Z</time>
      </trkpt>
      <trkpt lat="52.261450" lon="5.029725">
        <ele>-0.180770</ele>
        <time>2026-04-17T16:05:36.658Z</time>
      </trkpt>
      <trkpt lat="52.261673" lon="5.029385">
        <ele>-0.237660</ele>
        <time>2026-04-17T16:05:40.917Z</time>
      </trkpt>
      <trkpt lat="52.262005" lon="5.028768">
        <ele>-0.331443</ele>
        <time>2026-04-17T16:05:47.851Z</time>
      </trkpt>
      <trkpt lat="52.262580" lon="5.027270">
        <ele>-0.613629</ele>
        <time>2026-04-17T16:06:02.813Z</time>
      </trkpt>
      <trkpt lat="52.262674" lon="5.027107">
        <ele>-0.652389</ele>
        <time>2026-04-17T16:06:04.735Z</time>
      </trkpt>
      <trkpt lat="52.263101" lon="5.026492">
        <ele>-0.813350</ele>
        <time>2026-04-17T16:06:12.678Z</time>
      </trkpt>
      <trkpt lat="52.263571" lon="5.025974">
        <ele>-0.931086</ele>
        <time>2026-04-17T16:06:20.524Z</time>
      </trkpt>
      <trkpt lat="52.263802" lon="5.025772">
        <ele>-0.969087</ele>
        <time>2026-04-17T16:06:24.141Z</time>
      </trkpt>
      <trkpt lat="52.264094" lon="5.025689">
        <ele>-1.012074</ele>
        <time>2026-04-17T16:06:28.322Z</time>
      </trkpt>
      <trkpt lat="52.264318" lon="5.025677">
        <ele>-1.044580</ele>
        <time>2026-04-17T16:06:31.554Z</time>
      </trkpt>
      <trkpt lat="52.264512" lon="5.025728">
        <ele>-1.073079</ele>
        <time>2026-04-17T16:06:34.413Z</time>
      </trkpt>
      <trkpt lat="52.264612" lon="5.025769">
        <ele>-1.088033</ele>
        <time>2026-04-17T16:06:35.938Z</time>
      </trkpt>
      <trkpt lat="52.264752" lon="5.025907">
        <ele>-1.111747</ele>
        <time>2026-04-17T16:06:38.321Z</time>
      </trkpt>
      <trkpt lat="52.265214" lon="5.026510">
        <ele>-1.133973</ele>
        <time>2026-04-17T16:06:46.919Z</time>
      </trkpt>
      <trkpt lat="52.265550" lon="5.026800">
        <ele>-1.119588</ele>
        <time>2026-04-17T16:06:52.570Z</time>
      </trkpt>
      <trkpt lat="52.265847" lon="5.026949">
        <ele>-1.107827</ele>
        <time>2026-04-17T16:06:57.262Z</time>
      </trkpt>
      <trkpt lat="52.266039" lon="5.026977">
        <ele>-1.100530</ele>
        <time>2026-04-17T16:07:00.175Z</time>
      </trkpt>
      <trkpt lat="52.266270" lon="5.026916">
        <ele>-1.091672</ele>
        <time>2026-04-17T16:07:03.714Z</time>
      </trkpt>
      <trkpt lat="52.266812" lon="5.026478">
        <ele>-1.000740</ele>
        <time>2026-04-17T16:07:12.928Z</time>
      </trkpt>
      <trkpt lat="52.267663" lon="5.025725">
        <ele>-0.720982</ele>
        <time>2026-04-17T16:07:28.415Z</time>
      </trkpt>
      <trkpt lat="52.268202" lon="5.025196">
        <ele>-0.564802</ele>
        <time>2026-04-17T16:07:38.806Z</time>
      </trkpt>
      <trkpt lat="52.268734" lon="5.024800">
        <ele>-0.613440</ele>
        <time>2026-04-17T16:07:48.123Z</time>
      </trkpt>
      <trkpt lat="52.269155" lon="5.024365">
        <ele>-0.654882</ele>
        <time>2026-04-17T16:07:55.535Z</time>
      </trkpt>
      <trkpt lat="52.269995" lon="5.023576">
        <ele>-1.035473</ele>
        <time>2026-04-17T16:08:08.398Z</time>
      </trkpt>
      <trkpt lat="52.269511" lon="5.021447">
        <ele>-2.447370</ele>
        <time>2026-04-17T16:08:24.932Z</time>
      </trkpt>
      <trkpt lat="52.269160" lon="5.020239">
        <ele>-2.940076</ele>
        <time>2026-04-17T16:08:35.047Z</time>
      </trkpt>
      <trkpt lat="52.269119" lon="5.020248">
        <ele>-2.962942</ele>
        <time>2026-04-17T16:08:35.576Z</time>
      </trkpt>
      <trkpt lat="52.268603" lon="5.020111">
        <ele>-3.251898</ele>
        <time>2026-04-17T16:08:44.930Z</time>
      </trkpt>
      <trkpt lat="52.268534" lon="5.020056">
        <ele>-3.294333</ele>
        <time>2026-04-17T16:08:46.385Z</time>
      </trkpt>
      <trkpt lat="52.268503" lon="5.019904">
        <ele>-3.348528</ele>
        <time>2026-04-17T16:08:48.282Z</time>
      </trkpt>
      <trkpt lat="52.268552" lon="5.019778">
        <ele>-3.399026</ele>
        <time>2026-04-17T16:08:50.125Z</time>
      </trkpt>
      <trkpt lat="52.268595" lon="5.019756">
        <ele>-3.423932</ele>
        <time>2026-04-17T16:08:51.048Z</time>
      </trkpt>
      <trkpt lat="52.268678" lon="5.019787">
        <ele>-3.470993</ele>
        <time>2026-04-17T16:08:52.816Z</time>
      </trkpt>
      <trkpt lat="52.269030" lon="5.020145">
        <ele>-3.395953</ele>
        <time>2026-04-17T16:09:02.017Z</time>
      </trkpt>
      <trkpt lat="52.269136" lon="5.020118">
        <ele>-3.349164</ele>
        <time>2026-04-17T16:09:04.432Z</time>
      </trkpt>
      <trkpt lat="52.269168" lon="5.020068">
        <ele>-3.329853</ele>
        <time>2026-04-17T16:09:05.425Z</time>
      </trkpt>
      <trkpt lat="52.269178" lon="5.019944">
        <ele>-3.296472</ele>
        <time>2026-04-17T16:09:07.121Z</time>
      </trkpt>
      <trkpt lat="52.269162" lon="5.019875">
        <ele>-3.276778</ele>
        <time>2026-04-17T16:09:08.129Z</time>
      </trkpt>
      <trkpt lat="52.269108" lon="5.019811">
        <ele>-3.247684</ele>
        <time>2026-04-17T16:09:09.594Z</time>
      </trkpt>
      <trkpt lat="52.268544" lon="5.019630">
        <ele>-2.996999</ele>
        <time>2026-04-17T16:09:22.210Z</time>
      </trkpt>
      <trkpt lat="52.268485" lon="5.019506">
        <ele>-2.955076</ele>
        <time>2026-04-17T16:09:24.406Z</time>
      </trkpt>
      <trkpt lat="52.268488" lon="5.019410">
        <ele>-2.929420</ele>
        <time>2026-04-17T16:09:25.769Z</time>
      </trkpt>
      <trkpt lat="52.268498" lon="5.019315">
        <ele>-2.903692</ele>
        <time>2026-04-17T16:09:27.136Z</time>
      </trkpt>
      <trkpt lat="52.268703" lon="5.017309">
        <ele>-2.576743</ele>
        <time>2026-04-17T16:09:54.820Z</time>
      </trkpt>
      <trkpt lat="52.268744" lon="5.017185">
        <ele>-2.560230</ele>
        <time>2026-04-17T16:09:56.590Z</time>
      </trkpt>
      <trkpt lat="52.268784" lon="5.017142">
        <ele>-2.551063</ele>
        <time>2026-04-17T16:09:57.566Z</time>
      </trkpt>
      <trkpt lat="52.268847" lon="5.017146">
        <ele>-2.538992</ele>
        <time>2026-04-17T16:09:58.859Z</time>
      </trkpt>
      <trkpt lat="52.270226" lon="5.017525">
        <ele>-2.223237</ele>
        <time>2026-04-17T16:10:26.306Z</time>
      </trkpt>
      <trkpt lat="52.270281" lon="5.017467">
        <ele>-2.206076</ele>
        <time>2026-04-17T16:10:27.641Z</time>
      </trkpt>
      <trkpt lat="52.270301" lon="5.017347">
        <ele>-2.186122</ele>
        <time>2026-04-17T16:10:29.218Z</time>
      </trkpt>
      <trkpt lat="52.270259" lon="5.016751">
        <ele>-2.089871</ele>
        <time>2026-04-17T16:10:37.295Z</time>
      </trkpt>
      <trkpt lat="52.270274" lon="5.016658">
        <ele>-2.074441</ele>
        <time>2026-04-17T16:10:38.635Z</time>
      </trkpt>
      <trkpt lat="52.270332" lon="5.016585">
        <ele>-2.055248</ele>
        <time>2026-04-17T16:10:40.287Z</time>
      </trkpt>
      <trkpt lat="52.270431" lon="5.016597">
        <ele>-2.029221</ele>
        <time>2026-04-17T16:10:42.548Z</time>
      </trkpt>
      <trkpt lat="52.270478" lon="5.016688">
        <ele>-2.010117</ele>
        <time>2026-04-17T16:10:44.222Z</time>
      </trkpt>
      <trkpt lat="52.270497" lon="5.016897">
        <ele>-1.976218</ele>
        <time>2026-04-17T16:10:47.189Z</time>
      </trkpt>
      <trkpt lat="52.270550" lon="5.017892">
        <ele>-1.712131</ele>
        <time>2026-04-17T16:10:58.105Z</time>
      </trkpt>
      <trkpt lat="52.272645" lon="5.018388">
        <ele>-1.325677</ele>
        <time>2026-04-17T16:11:32.971Z</time>
      </trkpt>
      <trkpt lat="52.273315" lon="5.018561">
        <ele>-1.594464</ele>
        <time>2026-04-17T16:11:41.500Z</time>
      </trkpt>
      <trkpt lat="52.273450" lon="5.018536">
        <ele>-1.648302</ele>
        <time>2026-04-17T16:11:43.112Z</time>
      </trkpt>
      <trkpt lat="52.273408" lon="5.017962">
        <ele>-1.826181</ele>
        <time>2026-04-17T16:11:49.106Z</time>
      </trkpt>
      <trkpt lat="52.273436" lon="5.017716">
        <ele>-1.934428</ele>
        <time>2026-04-17T16:11:51.726Z</time>
      </trkpt>
      <trkpt lat="52.273591" lon="5.017006">
        <ele>-2.260540</ele>
        <time>2026-04-17T16:11:59.621Z</time>
      </trkpt>
      <trkpt lat="52.273702" lon="5.016526">
        <ele>-2.482525</ele>
        <time>2026-04-17T16:12:05.029Z</time>
      </trkpt>
      <trkpt lat="52.273904" lon="5.015706">
        <ele>-2.864927</ele>
        <time>2026-04-17T16:12:15.129Z</time>
      </trkpt>
      <trkpt lat="52.274160" lon="5.014244">
        <ele>-3.109449</ele>
        <time>2026-04-17T16:12:34.472Z</time>
      </trkpt>
      <trkpt lat="52.274187" lon="5.014113">
        <ele>-3.120856</ele>
        <time>2026-04-17T16:12:36.182Z</time>
      </trkpt>
      <trkpt lat="52.274531" lon="5.012717">
        <ele>-3.245053</ele>
        <time>2026-04-17T16:12:48.986Z</time>
      </trkpt>
      <trkpt lat="52.274674" lon="5.012052">
        <ele>-3.275998</ele>
        <time>2026-04-17T16:12:54.891Z</time>
      </trkpt>
      <trkpt lat="52.274729" lon="5.011668">
        <ele>-3.290322</ele>
        <time>2026-04-17T16:12:58.278Z</time>
      </trkpt>
      <trkpt lat="52.274650" lon="5.011445">
        <ele>-3.299681</ele>
        <time>2026-04-17T16:13:00.518Z</time>
      </trkpt>
      <trkpt lat="52.274367" lon="5.010957">
        <ele>-3.324102</ele>
        <time>2026-04-17T16:13:06.495Z</time>
      </trkpt>
      <trkpt lat="52.274316" lon="5.010771">
        <ele>-3.331505</ele>
        <time>2026-04-17T16:13:08.357Z</time>
      </trkpt>
      <trkpt lat="52.274325" lon="5.010610">
        <ele>-3.337377</ele>
        <time>2026-04-17T16:13:09.836Z</time>
      </trkpt>
      <trkpt lat="52.274348" lon="5.010551">
        <ele>-3.339918</ele>
        <time>2026-04-17T16:13:10.494Z</time>
      </trkpt>
      <trkpt lat="52.275207" lon="5.008358">
        <ele>-2.988705</ele>
        <time>2026-04-17T16:13:36.208Z</time>
      </trkpt>
      <trkpt lat="52.275502" lon="5.007780">
        <ele>-2.849394</ele>
        <time>2026-04-17T16:13:43.618Z</time>
      </trkpt>
      <trkpt lat="52.275909" lon="5.007312">
        <ele>-2.746048</ele>
        <time>2026-04-17T16:13:51.534Z</time>
      </trkpt>
      <trkpt lat="52.276900" lon="5.006487">
        <ele>-2.543681</ele>
        <time>2026-04-17T16:14:08.605Z</time>
      </trkpt>
      <trkpt lat="52.278239" lon="5.005800">
        <ele>-2.330333</ele>
        <time>2026-04-17T16:14:29.944Z</time>
      </trkpt>
      <trkpt lat="52.278465" lon="5.005626">
        <ele>-2.294346</ele>
        <time>2026-04-17T16:14:33.736Z</time>
      </trkpt>
      <trkpt lat="52.278752" lon="5.005334">
        <ele>-2.245648</ele>
        <time>2026-04-17T16:14:38.883Z</time>
      </trkpt>
      <trkpt lat="52.278929" lon="5.005077">
        <ele>-2.188887</ele>
        <time>2026-04-17T16:14:42.664Z</time>
      </trkpt>
      <trkpt lat="52.279443" lon="5.004128">
        <ele>-1.946485</ele>
        <time>2026-04-17T16:14:55.968Z</time>
      </trkpt>
      <trkpt lat="52.279476" lon="5.003998">
        <ele>-1.919567</ele>
        <time>2026-04-17T16:14:57.396Z</time>
      </trkpt>
      <trkpt lat="52.279374" lon="5.003862">
        <ele>-1.878418</ele>
        <time>2026-04-17T16:14:59.512Z</time>
      </trkpt>
      <trkpt lat="52.279253" lon="5.003548">
        <ele>-1.807446</ele>
        <time>2026-04-17T16:15:03.130Z</time>
      </trkpt>
      <trkpt lat="52.279225" lon="5.003190">
        <ele>-1.738420</ele>
        <time>2026-04-17T16:15:06.592Z</time>
      </trkpt>
      <trkpt lat="52.279235" lon="5.002679">
        <ele>-1.697638</ele>
        <time>2026-04-17T16:15:11.389Z</time>
      </trkpt>
      <trkpt lat="52.279192" lon="5.002363">
        <ele>-1.761712</ele>
        <time>2026-04-17T16:15:14.376Z</time>
      </trkpt>
      <trkpt lat="52.279116" lon="5.002181">
        <ele>-1.805327</ele>
        <time>2026-04-17T16:15:16.372Z</time>
      </trkpt>
      <trkpt lat="52.278594" lon="5.000986">
        <ele>-2.095955</ele>
        <time>2026-04-17T16:15:28.424Z</time>
      </trkpt>
      <trkpt lat="52.278176" lon="5.000443">
        <ele>-2.266166</ele>
        <time>2026-04-17T16:15:35.512Z</time>
      </trkpt>
      <trkpt lat="52.277912" lon="4.999795">
        <ele>-2.398813</ele>
        <time>2026-04-17T16:15:41.612Z</time>
      </trkpt>
      <trkpt lat="52.277640" lon="4.999080">
        <ele>-2.542268</ele>
        <time>2026-04-17T16:15:48.534Z</time>
      </trkpt>
      <trkpt lat="52.277525" lon="4.998875">
        <ele>-2.589656</ele>
        <time>2026-04-17T16:15:50.849Z</time>
      </trkpt>
      <trkpt lat="52.277360" lon="4.998550">
        <ele>-2.661613</ele>
        <time>2026-04-17T16:15:54.498Z</time>
      </trkpt>
      <trkpt lat="52.276990" lon="4.998070">
        <ele>-2.704512</ele>
        <time>2026-04-17T16:16:01.758Z</time>
      </trkpt>
      <trkpt lat="52.276314" lon="4.997382">
        <ele>-2.455214</ele>
        <time>2026-04-17T16:16:15.312Z</time>
      </trkpt>
      <trkpt lat="52.276221" lon="4.997281">
        <ele>-2.420259</ele>
        <time>2026-04-17T16:16:17.229Z</time>
      </trkpt>
      <trkpt lat="52.275855" lon="4.996731">
        <ele>-2.264612</ele>
        <time>2026-04-17T16:16:28.049Z</time>
      </trkpt>
      <trkpt lat="52.275585" lon="4.996367">
        <ele>-2.186951</ele>
        <time>2026-04-17T16:16:35.168Z</time>
      </trkpt>
      <trkpt lat="52.275548" lon="4.996286">
        <ele>-2.186130</ele>
        <time>2026-04-17T16:16:36.374Z</time>
      </trkpt>
      <trkpt lat="52.275523" lon="4.996080">
        <ele>-2.184423</ele>
        <time>2026-04-17T16:16:38.922Z</time>
      </trkpt>
      <trkpt lat="52.275687" lon="4.995244">
        <ele>-2.177290</ele>
        <time>2026-04-17T16:16:49.679Z</time>
      </trkpt>
      <trkpt lat="52.275815" lon="4.994806">
        <ele>-2.173347</ele>
        <time>2026-04-17T16:16:55.615Z</time>
      </trkpt>
      <trkpt lat="52.275862" lon="4.994729">
        <ele>-2.172463</ele>
        <time>2026-04-17T16:16:56.923Z</time>
      </trkpt>
      <trkpt lat="52.275892" lon="4.994680">
        <ele>-2.171900</ele>
        <time>2026-04-17T16:16:57.810Z</time>
      </trkpt>
      <trkpt lat="52.275960" lon="4.994603">
        <ele>-2.170801</ele>
        <time>2026-04-17T16:16:59.494Z</time>
      </trkpt>
      <trkpt lat="52.275990" lon="4.994571">
        <ele>-2.170326</ele>
        <time>2026-04-17T16:17:00.215Z</time>
      </trkpt>
      <trkpt lat="52.276150" lon="4.994341">
        <ele>-2.167496</ele>
        <time>2026-04-17T16:17:04.634Z</time>
      </trkpt>
      <trkpt lat="52.276259" lon="4.993943">
        <ele>-2.158733</ele>
        <time>2026-04-17T16:17:10.089Z</time>
      </trkpt>
      <trkpt lat="52.276343" lon="4.993737">
        <ele>-2.136805</ele>
        <time>2026-04-17T16:17:13.174Z</time>
      </trkpt>
      <trkpt lat="52.276474" lon="4.993572">
        <ele>-2.112862</ele>
        <time>2026-04-17T16:17:16.571Z</time>
      </trkpt>
      <trkpt lat="52.276858" lon="4.993247">
        <ele>-2.050259</ele>
        <time>2026-04-17T16:17:25.633Z</time>
      </trkpt>
      <trkpt lat="52.277597" lon="4.992385">
        <ele>-1.918823</ele>
        <time>2026-04-17T16:17:44.544Z</time>
      </trkpt>
      <trkpt lat="52.277876" lon="4.992079">
        <ele>-1.842192</ele>
        <time>2026-04-17T16:17:51.550Z</time>
      </trkpt>
      <trkpt lat="52.278384" lon="4.991279">
        <ele>-1.655773</ele>
        <time>2026-04-17T16:18:06.544Z</time>
      </trkpt>
      <trkpt lat="52.278517" lon="4.990971">
        <ele>-1.594821</ele>
        <time>2026-04-17T16:18:11.522Z</time>
      </trkpt>
      <trkpt lat="52.278594" lon="4.990670">
        <ele>-1.542072</ele>
        <time>2026-04-17T16:18:15.790Z</time>
      </trkpt>
      <trkpt lat="52.278713" lon="4.989897">
        <ele>-1.423149</ele>
        <time>2026-04-17T16:18:26.170Z</time>
      </trkpt>
      <trkpt lat="52.278836" lon="4.989272">
        <ele>-1.384793</ele>
        <time>2026-04-17T16:18:34.786Z</time>
      </trkpt>
      <trkpt lat="52.278831" lon="4.988980">
        <ele>-1.367727</ele>
        <time>2026-04-17T16:18:38.674Z</time>
      </trkpt>
      <trkpt lat="52.278717" lon="4.988319">
        <ele>-1.327606</ele>
        <time>2026-04-17T16:18:47.622Z</time>
      </trkpt>
      <trkpt lat="52.278521" lon="4.987453">
        <ele>-1.273662</ele>
        <time>2026-04-17T16:18:59.104Z</time>
      </trkpt>
      <trkpt lat="52.278499" lon="4.987357">
        <ele>-1.267673</ele>
        <time>2026-04-17T16:19:00.324Z</time>
      </trkpt>
      <trkpt lat="52.278397" lon="4.986899">
        <ele>-1.363094</ele>
        <time>2026-04-17T16:19:05.930Z</time>
      </trkpt>
      <trkpt lat="52.278268" lon="4.986559">
        <ele>-1.502109</ele>
        <time>2026-04-17T16:19:10.378Z</time>
      </trkpt>
      <trkpt lat="52.278085" lon="4.985910">
        <ele>-1.750421</ele>
        <time>2026-04-17T16:19:18.199Z</time>
      </trkpt>
      <trkpt lat="52.277827" lon="4.985121">
        <ele>-2.061283</ele>
        <time>2026-04-17T16:19:27.904Z</time>
      </trkpt>
      <trkpt lat="52.277631" lon="4.984544">
        <ele>-2.275105</ele>
        <time>2026-04-17T16:19:35.298Z</time>
      </trkpt>
      <trkpt lat="52.277250" lon="4.983840">
        <ele>-2.181971</ele>
        <time>2026-04-17T16:19:46.553Z</time>
      </trkpt>
      <trkpt lat="52.276965" lon="4.983407">
        <ele>-2.118952</ele>
        <time>2026-04-17T16:19:54.791Z</time>
      </trkpt>
      <trkpt lat="52.276543" lon="4.982909">
        <ele>-2.034654</ele>
        <time>2026-04-17T16:20:06.244Z</time>
      </trkpt>
      <trkpt lat="52.276103" lon="4.982570">
        <ele>-1.863786</ele>
        <time>2026-04-17T16:20:17.342Z</time>
      </trkpt>
      <trkpt lat="52.275984" lon="4.982490">
        <ele>-1.781781</ele>
        <time>2026-04-17T16:20:20.289Z</time>
      </trkpt>
      <trkpt lat="52.275384" lon="4.982129">
        <ele>-1.374304</ele>
        <time>2026-04-17T16:20:34.756Z</time>
      </trkpt>
      <trkpt lat="52.274795" lon="4.981998">
        <ele>-0.995466</ele>
        <time>2026-04-17T16:20:48.240Z</time>
      </trkpt>
      <trkpt lat="52.274755" lon="4.981990">
        <ele>-0.969783</ele>
        <time>2026-04-17T16:20:49.157Z</time>
      </trkpt>
      <trkpt lat="52.274580" lon="4.981955">
        <ele>-0.857421</ele>
        <time>2026-04-17T16:20:53.191Z</time>
      </trkpt>
      <trkpt lat="52.274368" lon="4.981883">
        <ele>-0.765699</ele>
        <time>2026-04-17T16:20:58.354Z</time>
      </trkpt>
      <trkpt lat="52.274015" lon="4.981623">
        <ele>-0.612900</ele>
        <time>2026-04-17T16:21:07.198Z</time>
      </trkpt>
      <trkpt lat="52.273655" lon="4.981230">
        <ele>-0.442054</ele>
        <time>2026-04-17T16:21:14.297Z</time>
      </trkpt>
      <trkpt lat="52.273635" lon="4.981207">
        <ele>-0.432403</ele>
        <time>2026-04-17T16:21:14.695Z</time>
      </trkpt>
      <trkpt lat="52.273599" lon="4.981162">
        <ele>-0.414517</ele>
        <time>2026-04-17T16:21:15.441Z</time>
      </trkpt>
      <trkpt lat="52.273542" lon="4.981090">
        <ele>-0.386087</ele>
        <time>2026-04-17T16:21:16.586Z</time>
      </trkpt>
      <trkpt lat="52.273470" lon="4.980977">
        <ele>-0.346694</ele>
        <time>2026-04-17T16:21:18.204Z</time>
      </trkpt>
      <trkpt lat="52.273165" lon="4.980208">
        <ele>-0.127643</ele>
        <time>2026-04-17T16:21:30.076Z</time>
      </trkpt>
      <trkpt lat="52.273012" lon="4.979690">
        <ele>-0.042879</ele>
        <time>2026-04-17T16:21:37.322Z</time>
      </trkpt>
      <trkpt lat="52.272750" lon="4.978783">
        <ele>0.104928</ele>
        <time>2026-04-17T16:21:49.192Z</time>
      </trkpt>
      <trkpt lat="52.272420" lon="4.977638">
        <ele>0.291443</ele>
        <time>2026-04-17T16:22:06.025Z</time>
      </trkpt>
      <trkpt lat="52.271989" lon="4.975895">
        <ele>1.216152</ele>
        <time>2026-04-17T16:22:34.283Z</time>
      </trkpt>
      <trkpt lat="52.271848" lon="4.975469">
        <ele>1.461013</ele>
        <time>2026-04-17T16:22:41.687Z</time>
      </trkpt>
      <trkpt lat="52.271837" lon="4.975441">
        <ele>1.477835</ele>
        <time>2026-04-17T16:22:42.184Z</time>
      </trkpt>
      <trkpt lat="52.271730" lon="4.975154">
        <ele>1.647744</ele>
        <time>2026-04-17T16:22:46.969Z</time>
      </trkpt>
      <trkpt lat="52.271738" lon="4.974583">
        <ele>1.741070</ele>
        <time>2026-04-17T16:22:54.544Z</time>
      </trkpt>
      <trkpt lat="52.271369" lon="4.974518">
        <ele>1.643931</ele>
        <time>2026-04-17T16:23:01.903Z</time>
      </trkpt>
      <trkpt lat="52.271281" lon="4.974494">
        <ele>1.620580</ele>
        <time>2026-04-17T16:23:03.572Z</time>
      </trkpt>
      <trkpt lat="52.271112" lon="4.974436">
        <ele>1.575382</ele>
        <time>2026-04-17T16:23:06.685Z</time>
      </trkpt>
      <trkpt lat="52.271015" lon="4.974401">
        <ele>1.549383</ele>
        <time>2026-04-17T16:23:08.445Z</time>
      </trkpt>
      <trkpt lat="52.270904" lon="4.974354">
        <ele>1.519371</ele>
        <time>2026-04-17T16:23:10.501Z</time>
      </trkpt>
      <trkpt lat="52.270566" lon="4.974171">
        <ele>1.426176</ele>
        <time>2026-04-17T16:23:16.994Z</time>
      </trkpt>
      <trkpt lat="52.270427" lon="4.974082">
        <ele>1.387102</ele>
        <time>2026-04-17T16:23:19.747Z</time>
      </trkpt>
      <trkpt lat="52.270126" lon="4.973893">
        <ele>1.297423</ele>
        <time>2026-04-17T16:23:25.810Z</time>
      </trkpt>
      <trkpt lat="52.270101" lon="4.973947">
        <ele>1.282659</ele>
        <time>2026-04-17T16:23:26.577Z</time>
      </trkpt>
      <trkpt lat="52.270126" lon="4.973893">
        <ele>1.267894</ele>
        <time>2026-04-17T16:23:27.355Z</time>
      </trkpt>
      <trkpt lat="52.270427" lon="4.974082">
        <ele>1.152997</ele>
        <time>2026-04-17T16:23:33.539Z</time>
      </trkpt>
      <trkpt lat="52.270566" lon="4.974171">
        <ele>1.099803</ele>
        <time>2026-04-17T16:23:36.421Z</time>
      </trkpt>
      <trkpt lat="52.270904" lon="4.974354">
        <ele>0.972929</ele>
        <time>2026-04-17T16:23:43.207Z</time>
      </trkpt>
      <trkpt lat="52.270898" lon="4.974477">
        <ele>0.946025</ele>
        <time>2026-04-17T16:23:48.456Z</time>
      </trkpt>
      <trkpt lat="52.270904" lon="4.974354">
        <ele>0.919120</ele>
        <time>2026-04-17T16:23:53.706Z</time>
      </trkpt>
      <trkpt lat="52.270566" lon="4.974171">
        <ele>0.792247</ele>
        <time>2026-04-17T16:24:01.004Z</time>
      </trkpt>
      <trkpt lat="52.270427" lon="4.974082">
        <ele>0.739052</ele>
        <time>2026-04-17T16:24:03.878Z</time>
      </trkpt>
      <trkpt lat="52.270126" lon="4.973893">
        <ele>0.611313</ele>
        <time>2026-04-17T16:24:09.790Z</time>
      </trkpt>
      <trkpt lat="52.269963" lon="4.973776">
        <ele>0.532293</ele>
        <time>2026-04-17T16:24:12.887Z</time>
      </trkpt>
      <trkpt lat="52.269909" lon="4.973738">
        <ele>0.506197</ele>
        <time>2026-04-17T16:24:13.906Z</time>
      </trkpt>
      <trkpt lat="52.269858" lon="4.973706">
        <ele>0.481949</ele>
        <time>2026-04-17T16:24:14.829Z</time>
      </trkpt>
      <trkpt lat="52.269649" lon="4.973643">
        <ele>0.387618</ele>
        <time>2026-04-17T16:24:18.537Z</time>
      </trkpt>
      <trkpt lat="52.269446" lon="4.973745">
        <ele>0.293352</ele>
        <time>2026-04-17T16:24:22.386Z</time>
      </trkpt>
      <trkpt lat="52.269365" lon="4.973727">
        <ele>0.257069</ele>
        <time>2026-04-17T16:24:23.870Z</time>
      </trkpt>
      <trkpt lat="52.269206" lon="4.973608">
        <ele>0.179446</ele>
        <time>2026-04-17T16:24:27.147Z</time>
      </trkpt>
      <trkpt lat="52.269080" lon="4.973496">
        <ele>0.115782</ele>
        <time>2026-04-17T16:24:29.932Z</time>
      </trkpt>
      <trkpt lat="52.268893" lon="4.973325">
        <ele>0.020669</ele>
        <time>2026-04-17T16:24:34.157Z</time>
      </trkpt>
      <trkpt lat="52.268817" lon="4.973257">
        <ele>-0.017789</ele>
        <time>2026-04-17T16:24:35.836Z</time>
      </trkpt>
      <trkpt lat="52.268763" lon="4.973103">
        <ele>-0.065999</ele>
        <time>2026-04-17T16:24:37.941Z</time>
      </trkpt>
      <trkpt lat="52.268351" lon="4.972535">
        <ele>-0.106254</ele>
        <time>2026-04-17T16:24:48.500Z</time>
      </trkpt>
      <trkpt lat="52.268326" lon="4.972488">
        <ele>-0.104810</ele>
        <time>2026-04-17T16:24:49.255Z</time>
      </trkpt>
      <trkpt lat="52.268174" lon="4.972147">
        <ele>-0.095028</ele>
        <time>2026-04-17T16:24:54.627Z</time>
      </trkpt>
      <trkpt lat="52.268034" lon="4.971683">
        <ele>-0.083033</ele>
        <time>2026-04-17T16:25:01.473Z</time>
      </trkpt>
      <trkpt lat="52.267931" lon="4.971146">
        <ele>-0.069984</ele>
        <time>2026-04-17T16:25:08.704Z</time>
      </trkpt>
      <trkpt lat="52.267867" lon="4.970556">
        <ele>-0.056090</ele>
        <time>2026-04-17T16:25:16.232Z</time>
      </trkpt>
      <trkpt lat="52.267736" lon="4.970083">
        <ele>-0.184666</ele>
        <time>2026-04-17T16:25:22.596Z</time>
      </trkpt>
      <trkpt lat="52.267641" lon="4.969577">
        <ele>-0.350226</ele>
        <time>2026-04-17T16:25:28.817Z</time>
      </trkpt>
      <trkpt lat="52.267563" lon="4.969077">
        <ele>-0.511630</ele>
        <time>2026-04-17T16:25:34.763Z</time>
      </trkpt>
      <trkpt lat="52.267497" lon="4.968385">
        <ele>-0.730705</ele>
        <time>2026-04-17T16:25:42.481Z</time>
      </trkpt>
      <trkpt lat="52.267474" lon="4.967867">
        <ele>-0.893164</ele>
        <time>2026-04-17T16:25:47.991Z</time>
      </trkpt>
      <trkpt lat="52.267486" lon="4.967643">
        <ele>-0.963500</ele>
        <time>2026-04-17T16:25:50.349Z</time>
      </trkpt>
      <trkpt lat="52.267573" lon="4.967545">
        <ele>-0.989352</ele>
        <time>2026-04-17T16:25:51.634Z</time>
      </trkpt>
      <trkpt lat="52.267618" lon="4.967342">
        <ele>-1.014051</ele>
        <time>2026-04-17T16:25:53.244Z</time>
      </trkpt>
      <trkpt lat="52.267600" lon="4.967189">
        <ele>-1.031875</ele>
        <time>2026-04-17T16:25:54.414Z</time>
      </trkpt>
      <trkpt lat="52.267525" lon="4.967031">
        <ele>-1.054750</ele>
        <time>2026-04-17T16:25:55.960Z</time>
      </trkpt>
      <trkpt lat="52.267499" lon="4.966344">
        <ele>-1.133492</ele>
        <time>2026-04-17T16:26:01.472Z</time>
      </trkpt>
      <trkpt lat="52.267449" lon="4.965986">
        <ele>-1.175500</ele>
        <time>2026-04-17T16:26:04.669Z</time>
      </trkpt>
      <trkpt lat="52.267378" lon="4.965701">
        <ele>-1.210702</ele>
        <time>2026-04-17T16:26:07.601Z</time>
      </trkpt>
      <trkpt lat="52.267258" lon="4.965310">
        <ele>-1.260742</ele>
        <time>2026-04-17T16:26:12.036Z</time>
      </trkpt>
      <trkpt lat="52.267115" lon="4.964681">
        <ele>-1.238751</ele>
        <time>2026-04-17T16:26:19.341Z</time>
      </trkpt>
      <trkpt lat="52.267107" lon="4.964400">
        <ele>-1.158083</ele>
        <time>2026-04-17T16:26:22.522Z</time>
      </trkpt>
      <trkpt lat="52.267169" lon="4.964144">
        <ele>-1.079132</ele>
        <time>2026-04-17T16:26:25.670Z</time>
      </trkpt>
      <trkpt lat="52.267231" lon="4.963889">
        <ele>-1.000448</ele>
        <time>2026-04-17T16:26:28.800Z</time>
      </trkpt>
      <trkpt lat="52.267250" lon="4.963694">
        <ele>-0.943825</ele>
        <time>2026-04-17T16:26:30.983Z</time>
      </trkpt>
      <trkpt lat="52.267234" lon="4.963495">
        <ele>-0.886268</ele>
        <time>2026-04-17T16:26:33.150Z</time>
      </trkpt>
      <trkpt lat="52.267173" lon="4.963270">
        <ele>-0.815699</ele>
        <time>2026-04-17T16:26:35.746Z</time>
      </trkpt>
      <trkpt lat="52.267068" lon="4.963093">
        <ele>-0.745009</ele>
        <time>2026-04-17T16:26:38.285Z</time>
      </trkpt>
      <trkpt lat="52.266731" lon="4.962796">
        <ele>-0.565593</ele>
        <time>2026-04-17T16:26:44.426Z</time>
      </trkpt>
      <trkpt lat="52.266559" lon="4.962464">
        <ele>-0.497595</ele>
        <time>2026-04-17T16:26:48.218Z</time>
      </trkpt>
      <trkpt lat="52.266504" lon="4.962242">
        <ele>-0.580687</ele>
        <time>2026-04-17T16:26:50.209Z</time>
      </trkpt>
      <trkpt lat="52.266153" lon="4.960660">
        <ele>-1.164501</ele>
        <time>2026-04-17T16:27:03.598Z</time>
      </trkpt>
      <trkpt lat="52.266129" lon="4.960532">
        <ele>-1.210946</ele>
        <time>2026-04-17T16:27:04.628Z</time>
      </trkpt>
      <trkpt lat="52.266021" lon="4.959984">
        <ele>-1.410685</ele>
        <time>2026-04-17T16:27:09.060Z</time>
      </trkpt>
      <trkpt lat="52.265911" lon="4.959704">
        <ele>-1.528678</ele>
        <time>2026-04-17T16:27:11.623Z</time>
      </trkpt>
      <trkpt lat="52.265569" lon="4.959316">
        <ele>-1.779819</ele>
        <time>2026-04-17T16:27:16.849Z</time>
      </trkpt>
      <trkpt lat="52.265300" lon="4.959168">
        <ele>-1.951030</ele>
        <time>2026-04-17T16:27:20.449Z</time>
      </trkpt>
      <trkpt lat="52.265020" lon="4.959153">
        <ele>-2.120015</ele>
        <time>2026-04-17T16:27:24.121Z</time>
      </trkpt>
      <trkpt lat="52.264775" lon="4.959248">
        <ele>-2.271902</ele>
        <time>2026-04-17T16:27:27.430Z</time>
      </trkpt>
      <trkpt lat="52.264593" lon="4.959385">
        <ele>-2.392773</ele>
        <time>2026-04-17T16:27:30.071Z</time>
      </trkpt>
      <trkpt lat="52.263984" lon="4.959959">
        <ele>-2.587924</ele>
        <time>2026-04-17T16:27:39.686Z</time>
      </trkpt>
      <trkpt lat="52.263911" lon="4.959939">
        <ele>-2.590978</ele>
        <time>2026-04-17T16:27:40.728Z</time>
      </trkpt>
      <trkpt lat="52.263852" lon="4.959800">
        <ele>-2.595250</ele>
        <time>2026-04-17T16:27:42.183Z</time>
      </trkpt>
      <trkpt lat="52.263701" lon="4.959956">
        <ele>-2.602621</ele>
        <time>2026-04-17T16:27:44.739Z</time>
      </trkpt>
      <trkpt lat="52.263540" lon="4.960068">
        <ele>-2.609842</ele>
        <time>2026-04-17T16:27:47.270Z</time>
      </trkpt>
      <trkpt lat="52.263440" lon="4.960207">
        <ele>-2.615259</ele>
        <time>2026-04-17T16:27:49.172Z</time>
      </trkpt>
      <trkpt lat="52.263358" lon="4.960666">
        <ele>-2.627334</ele>
        <time>2026-04-17T16:27:53.458Z</time>
      </trkpt>
      <trkpt lat="52.262755" lon="4.961662">
        <ele>-2.374898</ele>
        <time>2026-04-17T16:28:07.166Z</time>
      </trkpt>
      <trkpt lat="52.262407" lon="4.962440">
        <ele>-1.996337</ele>
        <time>2026-04-17T16:28:17.680Z</time>
      </trkpt>
      <trkpt lat="52.262186" lon="4.962831">
        <ele>-1.787251</ele>
        <time>2026-04-17T16:28:23.866Z</time>
      </trkpt>
      <trkpt lat="52.261800" lon="4.963313">
        <ele>-1.484086</ele>
        <time>2026-04-17T16:28:32.823Z</time>
      </trkpt>
      <trkpt lat="52.261293" lon="4.963725">
        <ele>-1.324962</ele>
        <time>2026-04-17T16:28:42.489Z</time>
      </trkpt>
      <trkpt lat="52.261201" lon="4.963342">
        <ele>-1.254195</ele>
        <time>2026-04-17T16:28:46.602Z</time>
      </trkpt>
      <trkpt lat="52.261020" lon="4.962918">
        <ele>-1.165281</ele>
        <time>2026-04-17T16:28:51.618Z</time>
      </trkpt>
      <trkpt lat="52.260984" lon="4.962738">
        <ele>-1.132710</ele>
        <time>2026-04-17T16:28:53.376Z</time>
      </trkpt>
      <trkpt lat="52.260931" lon="4.962078">
        <ele>-1.018218</ele>
        <time>2026-04-17T16:28:59.271Z</time>
      </trkpt>
      <trkpt lat="52.260842" lon="4.961433">
        <ele>-1.094070</ele>
        <time>2026-04-17T16:29:04.839Z</time>
      </trkpt>
      <trkpt lat="52.260777" lon="4.961166">
        <ele>-1.160464</ele>
        <time>2026-04-17T16:29:07.293Z</time>
      </trkpt>
      <trkpt lat="52.260677" lon="4.960925">
        <ele>-1.227740</ele>
        <time>2026-04-17T16:29:09.811Z</time>
      </trkpt>
      <trkpt lat="52.260410" lon="4.960535">
        <ele>-1.362944</ele>
        <time>2026-04-17T16:29:14.762Z</time>
      </trkpt>
      <trkpt lat="52.259973" lon="4.960123">
        <ele>-1.553413</ele>
        <time>2026-04-17T16:29:21.459Z</time>
      </trkpt>
      <trkpt lat="52.259839" lon="4.960069">
        <ele>-1.605515</ele>
        <time>2026-04-17T16:29:23.246Z</time>
      </trkpt>
      <trkpt lat="52.259660" lon="4.960130">
        <ele>-1.670876</ele>
        <time>2026-04-17T16:29:25.598Z</time>
      </trkpt>
      <trkpt lat="52.259397" lon="4.960304">
        <ele>-1.739288</ele>
        <time>2026-04-17T16:29:29.246Z</time>
      </trkpt>
      <trkpt lat="52.258669" lon="4.960886">
        <ele>-1.934696</ele>
        <time>2026-04-17T16:29:40.129Z</time>
      </trkpt>
      <trkpt lat="52.258486" lon="4.960991">
        <ele>-1.981459</ele>
        <time>2026-04-17T16:29:42.924Z</time>
      </trkpt>
      <trkpt lat="52.258310" lon="4.961021">
        <ele>-2.024123</ele>
        <time>2026-04-17T16:29:45.550Z</time>
      </trkpt>
      <trkpt lat="52.258104" lon="4.960979">
        <ele>-2.074175</ele>
        <time>2026-04-17T16:29:48.737Z</time>
      </trkpt>
      <trkpt lat="52.257813" lon="4.960849">
        <ele>-2.048807</ele>
        <time>2026-04-17T16:29:53.482Z</time>
      </trkpt>
      <trkpt lat="52.257075" lon="4.960291">
        <ele>-1.851226</ele>
        <time>2026-04-17T16:30:06.815Z</time>
      </trkpt>
      <trkpt lat="52.256801" lon="4.960048">
        <ele>-1.775477</ele>
        <time>2026-04-17T16:30:11.805Z</time>
      </trkpt>
      <trkpt lat="52.256663" lon="4.959923">
        <ele>-1.737138</ele>
        <time>2026-04-17T16:30:14.281Z</time>
      </trkpt>
      <trkpt lat="52.256287" lon="4.959587">
        <ele>-1.652577</ele>
        <time>2026-04-17T16:30:20.863Z</time>
      </trkpt>
      <trkpt lat="52.255759" lon="4.959350">
        <ele>-1.612407</ele>
        <time>2026-04-17T16:30:29.108Z</time>
      </trkpt>
      <trkpt lat="52.255398" lon="4.959134">
        <ele>-1.584204</ele>
        <time>2026-04-17T16:30:34.840Z</time>
      </trkpt>
      <trkpt lat="52.254656" lon="4.958510">
        <ele>-1.518166</ele>
        <time>2026-04-17T16:30:47.378Z</time>
      </trkpt>
      <trkpt lat="52.254572" lon="4.958369">
        <ele>-1.502367</ele>
        <time>2026-04-17T16:30:49.214Z</time>
      </trkpt>
      <trkpt lat="52.254492" lon="4.958220">
        <ele>-1.486453</ele>
        <time>2026-04-17T16:30:51.068Z</time>
      </trkpt>
      <trkpt lat="52.254399" lon="4.957938">
        <ele>-1.460731</ele>
        <time>2026-04-17T16:30:54.093Z</time>
      </trkpt>
      <trkpt lat="52.254353" lon="4.957622">
        <ele>-1.434649</ele>
        <time>2026-04-17T16:30:57.207Z</time>
      </trkpt>
      <trkpt lat="52.254244" lon="4.956386">
        <ele>-1.334374</ele>
        <time>2026-04-17T16:31:09.156Z</time>
      </trkpt>
      <trkpt lat="52.254294" lon="4.955570">
        <ele>-1.311759</ele>
        <time>2026-04-17T16:31:16.784Z</time>
      </trkpt>
      <trkpt lat="52.254342" lon="4.955139">
        <ele>-1.338324</ele>
        <time>2026-04-17T16:31:20.800Z</time>
      </trkpt>
      <trkpt lat="52.254444" lon="4.954554">
        <ele>-1.375210</ele>
        <time>2026-04-17T16:31:26.324Z</time>
      </trkpt>
      <trkpt lat="52.254805" lon="4.953434">
        <ele>-1.451966</ele>
        <time>2026-04-17T16:31:37.218Z</time>
      </trkpt>
      <trkpt lat="52.255054" lon="4.952535">
        <ele>-1.538990</ele>
        <time>2026-04-17T16:31:45.589Z</time>
      </trkpt>
      <trkpt lat="52.255258" lon="4.952158">
        <ele>-1.590001</ele>
        <time>2026-04-17T16:31:49.873Z</time>
      </trkpt>
      <trkpt lat="52.255427" lon="4.952070">
        <ele>-1.619376</ele>
        <time>2026-04-17T16:31:52.353Z</time>
      </trkpt>
      <trkpt lat="52.255657" lon="4.952068">
        <ele>-1.657467</ele>
        <time>2026-04-17T16:31:55.586Z</time>
      </trkpt>
      <trkpt lat="52.256296" lon="4.952329">
        <ele>-1.766548</ele>
        <time>2026-04-17T16:32:05.040Z</time>
      </trkpt>
      <trkpt lat="52.256619" lon="4.952324">
        <ele>-1.725399</ele>
        <time>2026-04-17T16:32:09.756Z</time>
      </trkpt>
      <trkpt lat="52.256903" lon="4.952221">
        <ele>-1.683892</ele>
        <time>2026-04-17T16:32:14.092Z</time>
      </trkpt>
      <trkpt lat="52.257334" lon="4.951881">
        <ele>-1.615603</ele>
        <time>2026-04-17T16:32:21.361Z</time>
      </trkpt>
      <trkpt lat="52.257461" lon="4.951680">
        <ele>-1.590374</ele>
        <time>2026-04-17T16:32:24.129Z</time>
      </trkpt>
      <trkpt lat="52.257732" lon="4.950879">
        <ele>-1.508524</ele>
        <time>2026-04-17T16:32:33.295Z</time>
      </trkpt>
      <trkpt lat="52.258000" lon="4.950286">
        <ele>-1.386080</ele>
        <time>2026-04-17T16:32:40.896Z</time>
      </trkpt>
      <trkpt lat="52.258187" lon="4.949956">
        <ele>-1.311379</ele>
        <time>2026-04-17T16:32:45.556Z</time>
      </trkpt>
      <trkpt lat="52.258327" lon="4.949728">
        <ele>-1.257734</ele>
        <time>2026-04-17T16:32:48.825Z</time>
      </trkpt>
      <trkpt lat="52.258459" lon="4.949421">
        <ele>-1.195414</ele>
        <time>2026-04-17T16:32:52.541Z</time>
      </trkpt>
      <trkpt lat="52.258561" lon="4.948981">
        <ele>-1.117260</ele>
        <time>2026-04-17T16:32:57.033Z</time>
      </trkpt>
      <trkpt lat="52.258631" lon="4.948388">
        <ele>-1.028684</ele>
        <time>2026-04-17T16:33:02.561Z</time>
      </trkpt>
      <trkpt lat="52.258687" lon="4.948026">
        <ele>-1.063481</ele>
        <time>2026-04-17T16:33:05.778Z</time>
      </trkpt>
      <trkpt lat="52.258726" lon="4.947435">
        <ele>-1.118878</ele>
        <time>2026-04-17T16:33:10.729Z</time>
      </trkpt>
      <trkpt lat="52.258704" lon="4.946903">
        <ele>-1.168571</ele>
        <time>2026-04-17T16:33:15.192Z</time>
      </trkpt>
      <trkpt lat="52.258761" lon="4.946403">
        <ele>-1.215969</ele>
        <time>2026-04-17T16:33:19.520Z</time>
      </trkpt>
      <trkpt lat="52.258840" lon="4.946040">
        <ele>-1.251874</ele>
        <time>2026-04-17T16:33:22.897Z</time>
      </trkpt>
      <trkpt lat="52.258970" lon="4.945648">
        <ele>-1.293423</ele>
        <time>2026-04-17T16:33:26.952Z</time>
      </trkpt>
      <trkpt lat="52.259184" lon="4.945238">
        <ele>-1.299804</ele>
        <time>2026-04-17T16:33:32.011Z</time>
      </trkpt>
      <trkpt lat="52.259392" lon="4.944909">
        <ele>-1.301252</ele>
        <time>2026-04-17T16:33:36.517Z</time>
      </trkpt>
      <trkpt lat="52.259872" lon="4.944265">
        <ele>-1.304358</ele>
        <time>2026-04-17T16:33:46.084Z</time>
      </trkpt>
      <trkpt lat="52.260397" lon="4.943558">
        <ele>-1.334558</ele>
        <time>2026-04-17T16:33:55.742Z</time>
      </trkpt>
      <trkpt lat="52.260534" lon="4.943441">
        <ele>-1.381349</ele>
        <time>2026-04-17T16:33:57.872Z</time>
      </trkpt>
      <trkpt lat="52.260586" lon="4.943410">
        <ele>-1.398104</ele>
        <time>2026-04-17T16:33:58.631Z</time>
      </trkpt>
      <trkpt lat="52.261065" lon="4.943125">
        <ele>-1.552404</ele>
        <time>2026-04-17T16:34:05.564Z</time>
      </trkpt>
      <trkpt lat="52.261732" lon="4.942373">
        <ele>-1.797697</ele>
        <time>2026-04-17T16:34:16.585Z</time>
      </trkpt>
      <trkpt lat="52.261874" lon="4.942274">
        <ele>-1.844427</ele>
        <time>2026-04-17T16:34:18.730Z</time>
      </trkpt>
      <trkpt lat="52.262028" lon="4.942243">
        <ele>-1.865995</ele>
        <time>2026-04-17T16:34:20.880Z</time>
      </trkpt>
      <trkpt lat="52.262346" lon="4.942350">
        <ele>-1.901338</ele>
        <time>2026-04-17T16:34:25.392Z</time>
      </trkpt>
      <trkpt lat="52.262638" lon="4.942548">
        <ele>-1.935753</ele>
        <time>2026-04-17T16:34:29.859Z</time>
      </trkpt>
      <trkpt lat="52.263279" lon="4.943232">
        <ele>-2.019094</ele>
        <time>2026-04-17T16:34:41.140Z</time>
      </trkpt>
      <trkpt lat="52.263768" lon="4.943768">
        <ele>-2.001915</ele>
        <time>2026-04-17T16:34:50.027Z</time>
      </trkpt>
      <trkpt lat="52.264030" lon="4.943984">
        <ele>-1.961062</ele>
        <time>2026-04-17T16:34:54.478Z</time>
      </trkpt>
      <trkpt lat="52.264498" lon="4.944262">
        <ele>-1.891741</ele>
        <time>2026-04-17T16:35:02.211Z</time>
      </trkpt>
      <trkpt lat="52.265110" lon="4.944530">
        <ele>-1.803538</ele>
        <time>2026-04-17T16:35:12.303Z</time>
      </trkpt>
      <trkpt lat="52.265380" lon="4.944629">
        <ele>-1.816962</ele>
        <time>2026-04-17T16:35:16.489Z</time>
      </trkpt>
      <trkpt lat="52.265546" lon="4.944584">
        <ele>-1.831416</ele>
        <time>2026-04-17T16:35:18.993Z</time>
      </trkpt>
      <trkpt lat="52.265673" lon="4.944525">
        <ele>-1.842758</ele>
        <time>2026-04-17T16:35:21.634Z</time>
      </trkpt>
      <trkpt lat="52.265746" lon="4.944482">
        <ele>-1.849424</ele>
        <time>2026-04-17T16:35:23.175Z</time>
      </trkpt>
      <trkpt lat="52.265930" lon="4.944229">
        <ele>-1.870081</ele>
        <time>2026-04-17T16:35:27.934Z</time>
      </trkpt>
      <trkpt lat="52.266116" lon="4.943974">
        <ele>-1.890938</ele>
        <time>2026-04-17T16:35:32.737Z</time>
      </trkpt>
      <trkpt lat="52.266249" lon="4.943668">
        <ele>-1.910669</ele>
        <time>2026-04-17T16:35:37.284Z</time>
      </trkpt>
      <trkpt lat="52.266337" lon="4.943281">
        <ele>-1.932373</ele>
        <time>2026-04-17T16:35:42.216Z</time>
      </trkpt>
      <trkpt lat="52.266337" lon="4.942911">
        <ele>-1.952008</ele>
        <time>2026-04-17T16:35:46.504Z</time>
      </trkpt>
      <trkpt lat="52.266271" lon="4.942560">
        <ele>-1.991167</ele>
        <time>2026-04-17T16:35:50.750Z</time>
      </trkpt>
      <trkpt lat="52.265759" lon="4.940339">
        <ele>-2.244271</ele>
        <time>2026-04-17T16:36:19.222Z</time>
      </trkpt>
      <trkpt lat="52.265677" lon="4.940012">
        <ele>-2.262209</ele>
        <time>2026-04-17T16:36:23.547Z</time>
      </trkpt>
      <trkpt lat="52.265429" lon="4.939313">
        <ele>-2.247602</ele>
        <time>2026-04-17T16:36:33.501Z</time>
      </trkpt>
      <trkpt lat="52.265113" lon="4.938222">
        <ele>-2.225780</ele>
        <time>2026-04-17T16:36:48.551Z</time>
      </trkpt>
      <trkpt lat="52.264644" lon="4.936503">
        <ele>-2.145373</ele>
        <time>2026-04-17T16:37:12.535Z</time>
      </trkpt>
      <trkpt lat="52.264585" lon="4.936118">
        <ele>-2.121710</ele>
        <time>2026-04-17T16:37:17.549Z</time>
      </trkpt>
      <trkpt lat="52.264590" lon="4.935348">
        <ele>-2.075799</ele>
        <time>2026-04-17T16:37:27.182Z</time>
      </trkpt>
      <trkpt lat="52.264656" lon="4.935125">
        <ele>-2.061030</ele>
        <time>2026-04-17T16:37:30.256Z</time>
      </trkpt>
      <trkpt lat="52.264778" lon="4.934975">
        <ele>-2.046157</ele>
        <time>2026-04-17T16:37:33.348Z</time>
      </trkpt>
      <trkpt lat="52.264999" lon="4.934807">
        <ele>-2.041804</ele>
        <time>2026-04-17T16:37:38.247Z</time>
      </trkpt>
      <trkpt lat="52.265698" lon="4.934612">
        <ele>-2.066365</ele>
        <time>2026-04-17T16:37:52.441Z</time>
      </trkpt>
      <trkpt lat="52.265808" lon="4.934587">
        <ele>-2.070212</ele>
        <time>2026-04-17T16:37:54.656Z</time>
      </trkpt>
      <trkpt lat="52.266473" lon="4.934078">
        <ele>-2.095647</ele>
        <time>2026-04-17T16:38:09.464Z</time>
      </trkpt>
      <trkpt lat="52.266969" lon="4.933788">
        <ele>-2.074017</ele>
        <time>2026-04-17T16:38:20.208Z</time>
      </trkpt>
      <trkpt lat="52.267313" lon="4.933692">
        <ele>-2.053706</ele>
        <time>2026-04-17T16:38:27.373Z</time>
      </trkpt>
      <trkpt lat="52.267725" lon="4.933668">
        <ele>-2.029712</ele>
        <time>2026-04-17T16:38:35.766Z</time>
      </trkpt>
      <trkpt lat="52.268126" lon="4.933531">
        <ele>-2.005869</ele>
        <time>2026-04-17T16:38:44.135Z</time>
      </trkpt>
      <trkpt lat="52.268463" lon="4.933255">
        <ele>-1.961325</ele>
        <time>2026-04-17T16:38:51.860Z</time>
      </trkpt>
      <trkpt lat="52.268698" lon="4.932952">
        <ele>-1.906048</ele>
        <time>2026-04-17T16:38:58.003Z</time>
      </trkpt>
      <trkpt lat="52.268729" lon="4.932840">
        <ele>-1.892158</ele>
        <time>2026-04-17T16:38:59.554Z</time>
      </trkpt>
      <trkpt lat="52.268817" lon="4.932402">
        <ele>-1.840063</ele>
        <time>2026-04-17T16:39:05.368Z</time>
      </trkpt>
      <trkpt lat="52.268849" lon="4.931768">
        <ele>-1.768175</ele>
        <time>2026-04-17T16:39:13.484Z</time>
      </trkpt>
      <trkpt lat="52.268816" lon="4.931435">
        <ele>-1.730055</ele>
        <time>2026-04-17T16:39:17.900Z</time>
      </trkpt>
      <trkpt lat="52.268641" lon="4.930330">
        <ele>-1.655132</ele>
        <time>2026-04-17T16:39:33.057Z</time>
      </trkpt>
      <trkpt lat="52.268657" lon="4.930202">
        <ele>-1.653425</ele>
        <time>2026-04-17T16:39:34.353Z</time>
      </trkpt>
      <trkpt lat="52.268698" lon="4.930097">
        <ele>-1.651798</ele>
        <time>2026-04-17T16:39:35.557Z</time>
      </trkpt>
      <trkpt lat="52.268900" lon="4.929938">
        <ele>-1.647012</ele>
        <time>2026-04-17T16:39:39.084Z</time>
      </trkpt>
      <trkpt lat="52.268944" lon="4.929856">
        <ele>-1.645587</ele>
        <time>2026-04-17T16:39:40.107Z</time>
      </trkpt>
      <trkpt lat="52.268978" lon="4.929695">
        <ele>-1.643362</ele>
        <time>2026-04-17T16:39:41.700Z</time>
      </trkpt>
      <trkpt lat="52.268991" lon="4.929588">
        <ele>-1.641937</ele>
        <time>2026-04-17T16:39:44.175Z</time>
      </trkpt>
      <trkpt lat="52.269000" lon="4.929510">
        <ele>-1.640900</ele>
        <time>2026-04-17T16:39:44.911Z</time>
      </trkpt>
      <trkpt lat="52.269061" lon="4.929253">
        <ele>-1.637299</ele>
        <time>2026-04-17T16:39:47.350Z</time>
      </trkpt>
      <trkpt lat="52.268787" lon="4.929121">
        <ele>-1.631201</ele>
        <time>2026-04-17T16:39:51.414Z</time>
      </trkpt>
      <trkpt lat="52.268344" lon="4.928760">
        <ele>-1.665303</ele>
        <time>2026-04-17T16:39:58.213Z</time>
      </trkpt>
      <trkpt lat="52.268276" lon="4.928660">
        <ele>-1.690882</ele>
        <time>2026-04-17T16:39:59.452Z</time>
      </trkpt>
      <trkpt lat="52.268163" lon="4.928394">
        <ele>-1.746287</ele>
        <time>2026-04-17T16:40:02.099Z</time>
      </trkpt>
      <trkpt lat="52.268031" lon="4.927975">
        <ele>-1.826922</ele>
        <time>2026-04-17T16:40:05.940Z</time>
      </trkpt>
      <trkpt lat="52.267889" lon="4.927130">
        <ele>-1.976859</ele>
        <time>2026-04-17T16:40:13.210Z</time>
      </trkpt>
      <trkpt lat="52.267734" lon="4.926206">
        <ele>-2.124211</ele>
        <time>2026-04-17T16:40:21.662Z</time>
      </trkpt>
      <trkpt lat="52.267625" lon="4.925778">
        <ele>-2.110193</ele>
        <time>2026-04-17T16:40:25.915Z</time>
      </trkpt>
      <trkpt lat="52.267479" lon="4.925351">
        <ele>-2.095403</ele>
        <time>2026-04-17T16:40:30.441Z</time>
      </trkpt>
      <trkpt lat="52.267223" lon="4.924828">
        <ele>-2.075152</ele>
        <time>2026-04-17T16:40:36.674Z</time>
      </trkpt>
      <trkpt lat="52.266953" lon="4.924499">
        <ele>-2.058510</ele>
        <time>2026-04-17T16:40:41.798Z</time>
      </trkpt>
      <trkpt lat="52.266581" lon="4.924262">
        <ele>-2.038781</ele>
        <time>2026-04-17T16:40:47.839Z</time>
      </trkpt>
      <trkpt lat="52.265918" lon="4.924029">
        <ele>-1.971181</ele>
        <time>2026-04-17T16:40:57.959Z</time>
      </trkpt>
      <trkpt lat="52.265299" lon="4.923853">
        <ele>-1.907627</ele>
        <time>2026-04-17T16:41:07.387Z</time>
      </trkpt>
      <trkpt lat="52.264962" lon="4.923799">
        <ele>-1.873375</ele>
        <time>2026-04-17T16:41:12.640Z</time>
      </trkpt>
      <trkpt lat="52.264462" lon="4.923749">
        <ele>-1.798131</ele>
        <time>2026-04-17T16:41:20.634Z</time>
      </trkpt>
      <trkpt lat="52.263845" lon="4.923739">
        <ele>-1.689502</ele>
        <time>2026-04-17T16:41:30.461Z</time>
      </trkpt>
      <trkpt lat="52.263662" lon="4.923633">
        <ele>-1.655320</ele>
        <time>2026-04-17T16:41:33.545Z</time>
      </trkpt>
      <trkpt lat="52.263473" lon="4.923431">
        <ele>-1.615560</ele>
        <time>2026-04-17T16:41:37.084Z</time>
      </trkpt>
      <trkpt lat="52.263188" lon="4.923028">
        <ele>-1.549204</ele>
        <time>2026-04-17T16:41:42.869Z</time>
      </trkpt>
      <trkpt lat="52.262937" lon="4.922524">
        <ele>-1.577292</ele>
        <time>2026-04-17T16:41:48.731Z</time>
      </trkpt>
      <trkpt lat="52.262735" lon="4.921927">
        <ele>-1.623870</ele>
        <time>2026-04-17T16:41:54.661Z</time>
      </trkpt>
      <trkpt lat="52.262677" lon="4.921689">
        <ele>-1.641362</ele>
        <time>2026-04-17T16:41:56.887Z</time>
      </trkpt>
      <trkpt lat="52.262529" lon="4.920660">
        <ele>-1.713539</ele>
        <time>2026-04-17T16:42:06.137Z</time>
      </trkpt>
      <trkpt lat="52.262107" lon="4.918790">
        <ele>-1.851186</ele>
        <time>2026-04-17T16:42:23.502Z</time>
      </trkpt>
      <trkpt lat="52.262019" lon="4.918535">
        <ele>-1.871459</ele>
        <time>2026-04-17T16:42:26.039Z</time>
      </trkpt>
      <trkpt lat="52.261838" lon="4.918167">
        <ele>-1.904153</ele>
        <time>2026-04-17T16:42:30.173Z</time>
      </trkpt>
      <trkpt lat="52.261687" lon="4.917953">
        <ele>-1.926770</ele>
        <time>2026-04-17T16:42:33.028Z</time>
      </trkpt>
      <trkpt lat="52.261612" lon="4.917890">
        <ele>-1.936311</ele>
        <time>2026-04-17T16:42:34.251Z</time>
      </trkpt>
      <trkpt lat="52.261477" lon="4.917834">
        <ele>-1.929875</ele>
        <time>2026-04-17T16:42:36.258Z</time>
      </trkpt>
      <trkpt lat="52.261194" lon="4.917859">
        <ele>-1.879728</ele>
        <time>2026-04-17T16:42:40.353Z</time>
      </trkpt>
      <trkpt lat="52.259601" lon="4.918319">
        <ele>-1.555409</ele>
        <time>2026-04-17T16:43:05.890Z</time>
      </trkpt>
      <trkpt lat="52.259255" lon="4.918379">
        <ele>-1.419798</ele>
        <time>2026-04-17T16:43:11.802Z</time>
      </trkpt>
      <trkpt lat="52.258785" lon="4.918274">
        <ele>-1.234911</ele>
        <time>2026-04-17T16:43:19.816Z</time>
      </trkpt>
      <trkpt lat="52.258152" lon="4.918063">
        <ele>-0.983117</ele>
        <time>2026-04-17T16:43:30.625Z</time>
      </trkpt>
      <trkpt lat="52.257828" lon="4.917871">
        <ele>-0.934001</ele>
        <time>2026-04-17T16:43:36.114Z</time>
      </trkpt>
      <trkpt lat="52.257602" lon="4.917705">
        <ele>-0.946632</ele>
        <time>2026-04-17T16:43:39.900Z</time>
      </trkpt>
      <trkpt lat="52.257299" lon="4.917340">
        <ele>-0.965823</ele>
        <time>2026-04-17T16:43:45.474Z</time>
      </trkpt>
      <trkpt lat="52.256765" lon="4.916584">
        <ele>-1.001843</ele>
        <time>2026-04-17T16:43:55.544Z</time>
      </trkpt>
      <trkpt lat="52.256542" lon="4.916310">
        <ele>-1.017087</ele>
        <time>2026-04-17T16:43:59.425Z</time>
      </trkpt>
      <trkpt lat="52.256326" lon="4.915971">
        <ele>-1.098598</ele>
        <time>2026-04-17T16:44:03.540Z</time>
      </trkpt>
      <trkpt lat="52.255790" lon="4.914759">
        <ele>-1.347671</ele>
        <time>2026-04-17T16:44:16.051Z</time>
      </trkpt>
      <trkpt lat="52.255415" lon="4.914097">
        <ele>-1.497921</ele>
        <time>2026-04-17T16:44:23.639Z</time>
      </trkpt>
      <trkpt lat="52.255189" lon="4.913621">
        <ele>-1.545493</ele>
        <time>2026-04-17T16:44:28.868Z</time>
      </trkpt>
      <trkpt lat="52.254971" lon="4.913340">
        <ele>-1.578164</ele>
        <time>2026-04-17T16:44:32.870Z</time>
      </trkpt>
      <trkpt lat="52.254670" lon="4.913103">
        <ele>-1.617476</ele>
        <time>2026-04-17T16:44:37.708Z</time>
      </trkpt>
      <trkpt lat="52.254199" lon="4.912372">
        <ele>-1.693912</ele>
        <time>2026-04-17T16:44:46.997Z</time>
      </trkpt>
      <trkpt lat="52.254164" lon="4.912318">
        <ele>-1.699576</ele>
        <time>2026-04-17T16:44:47.705Z</time>
      </trkpt>
      <trkpt lat="52.253882" lon="4.911996">
        <ele>-1.684378</ele>
        <time>2026-04-17T16:44:52.892Z</time>
      </trkpt>
      <trkpt lat="52.253618" lon="4.911755">
        <ele>-1.634362</ele>
        <time>2026-04-17T16:44:57.511Z</time>
      </trkpt>
      <trkpt lat="52.253308" lon="4.911550">
        <ele>-1.579051</ele>
        <time>2026-04-17T16:45:02.762Z</time>
      </trkpt>
      <trkpt lat="52.252814" lon="4.910941">
        <ele>-1.476697</ele>
        <time>2026-04-17T16:45:12.471Z</time>
      </trkpt>
      <trkpt lat="52.252675" lon="4.910692">
        <ele>-1.442580</ele>
        <time>2026-04-17T16:45:15.768Z</time>
      </trkpt>
      <trkpt lat="52.252571" lon="4.910366">
        <ele>-1.441895</ele>
        <time>2026-04-17T16:45:19.332Z</time>
      </trkpt>
      <trkpt lat="52.252509" lon="4.909847">
        <ele>-1.527218</ele>
        <time>2026-04-17T16:45:24.332Z</time>
      </trkpt>
      <trkpt lat="52.252529" lon="4.909642">
        <ele>-1.560714</ele>
        <time>2026-04-17T16:45:26.235Z</time>
      </trkpt>
      <trkpt lat="52.252561" lon="4.909410">
        <ele>-1.599087</ele>
        <time>2026-04-17T16:45:28.364Z</time>
      </trkpt>
      <trkpt lat="52.252853" lon="4.908332">
        <ele>-1.789296</ele>
        <time>2026-04-17T16:45:38.069Z</time>
      </trkpt>
      <trkpt lat="52.253025" lon="4.907306">
        <ele>-1.927872</ele>
        <time>2026-04-17T16:45:46.426Z</time>
      </trkpt>
      <trkpt lat="52.253109" lon="4.906684">
        <ele>-1.980234</ele>
        <time>2026-04-17T16:45:51.524Z</time>
      </trkpt>
      <trkpt lat="52.253229" lon="4.905890">
        <ele>-2.047465</ele>
        <time>2026-04-17T16:45:58.505Z</time>
      </trkpt>
      <trkpt lat="52.253326" lon="4.905045">
        <ele>-2.118139</ele>
        <time>2026-04-17T16:46:06.772Z</time>
      </trkpt>
      <trkpt lat="52.253370" lon="4.903849">
        <ele>-1.987304</ele>
        <time>2026-04-17T16:46:19.570Z</time>
      </trkpt>
      <trkpt lat="52.253374" lon="4.903707">
        <ele>-1.966139</ele>
        <time>2026-04-17T16:46:21.050Z</time>
      </trkpt>
      <trkpt lat="52.253342" lon="4.903153">
        <ele>-1.883287</ele>
        <time>2026-04-17T16:46:26.778Z</time>
      </trkpt>
      <trkpt lat="52.253284" lon="4.902830">
        <ele>-1.833169</ele>
        <time>2026-04-17T16:46:30.121Z</time>
      </trkpt>
      <trkpt lat="52.253177" lon="4.902370">
        <ele>-1.759901</ele>
        <time>2026-04-17T16:46:34.726Z</time>
      </trkpt>
      <trkpt lat="52.253089" lon="4.902444">
        <ele>-1.735828</ele>
        <time>2026-04-17T16:46:36.160Z</time>
      </trkpt>
      <trkpt lat="52.253038" lon="4.902492">
        <ele>-1.721512</ele>
        <time>2026-04-17T16:46:37.001Z</time>
      </trkpt>
      <trkpt lat="52.252916" lon="4.902601">
        <ele>-1.729517</ele>
        <time>2026-04-17T16:46:38.930Z</time>
      </trkpt>
      <trkpt lat="52.252790" lon="4.902192">
        <ele>-1.949280</ele>
        <time>2026-04-17T16:46:42.631Z</time>
      </trkpt>
      <trkpt lat="52.252629" lon="4.901856">
        <ele>-2.154077</ele>
        <time>2026-04-17T16:46:45.902Z</time>
      </trkpt>
      <trkpt lat="52.252213" lon="4.901293">
        <ele>-2.577636</ele>
        <time>2026-04-17T16:46:52.592Z</time>
      </trkpt>
      <trkpt lat="52.251771" lon="4.900787">
        <ele>-3.000812</ele>
        <time>2026-04-17T16:46:59.114Z</time>
      </trkpt>
      <trkpt lat="52.251360" lon="4.900300">
        <ele>-3.196831</ele>
        <time>2026-04-17T16:47:05.250Z</time>
      </trkpt>
      <trkpt lat="52.251163" lon="4.899985">
        <ele>-3.262937</ele>
        <time>2026-04-17T16:47:08.801Z</time>
      </trkpt>
      <trkpt lat="52.250850" lon="4.898967">
        <ele>-3.430172</ele>
        <time>2026-04-17T16:47:19.035Z</time>
      </trkpt>
      <trkpt lat="52.250822" lon="4.898745">
        <ele>-3.463447</ele>
        <time>2026-04-17T16:47:21.274Z</time>
      </trkpt>
      <trkpt lat="52.250835" lon="4.898523">
        <ele>-3.496186</ele>
        <time>2026-04-17T16:47:23.537Z</time>
      </trkpt>
      <trkpt lat="52.251027" lon="4.897636">
        <ele>-3.456155</ele>
        <time>2026-04-17T16:47:33.355Z</time>
      </trkpt>
      <trkpt lat="52.251116" lon="4.896727">
        <ele>-3.338406</ele>
        <time>2026-04-17T16:47:42.993Z</time>
      </trkpt>
      <trkpt lat="52.251162" lon="4.896442">
        <ele>-3.300706</ele>
        <time>2026-04-17T16:47:45.821Z</time>
      </trkpt>
      <trkpt lat="52.251234" lon="4.896205">
        <ele>-3.266864</ele>
        <time>2026-04-17T16:47:48.260Z</time>
      </trkpt>
      <trkpt lat="52.251256" lon="4.896142">
        <ele>-3.257587</ele>
        <time>2026-04-17T16:47:48.924Z</time>
      </trkpt>
      <trkpt lat="52.251529" lon="4.895523">
        <ele>-3.169832</ele>
        <time>2026-04-17T16:47:55.443Z</time>
      </trkpt>
      <trkpt lat="52.251656" lon="4.895367">
        <ele>-3.235590</ele>
        <time>2026-04-17T16:47:57.566Z</time>
      </trkpt>
      <trkpt lat="52.251902" lon="4.895161">
        <ele>-3.349989</ele>
        <time>2026-04-17T16:48:01.236Z</time>
      </trkpt>
      <trkpt lat="52.252051" lon="4.894806">
        <ele>-3.459032</ele>
        <time>2026-04-17T16:48:04.739Z</time>
      </trkpt>
      <trkpt lat="52.252273" lon="4.894382">
        <ele>-3.600376</ele>
        <time>2026-04-17T16:48:09.270Z</time>
      </trkpt>
      <trkpt lat="52.252479" lon="4.893731">
        <ele>-3.786029</ele>
        <time>2026-04-17T16:48:15.291Z</time>
      </trkpt>
      <trkpt lat="52.252863" lon="4.893037">
        <ele>-3.977965</ele>
        <time>2026-04-17T16:48:23.015Z</time>
      </trkpt>
      <trkpt lat="52.252924" lon="4.892885">
        <ele>-4.006032</ele>
        <time>2026-04-17T16:48:24.516Z</time>
      </trkpt>
      <trkpt lat="52.253029" lon="4.892540">
        <ele>-4.065529</ele>
        <time>2026-04-17T16:48:27.724Z</time>
      </trkpt>
      <trkpt lat="52.253110" lon="4.892144">
        <ele>-4.130004</ele>
        <time>2026-04-17T16:48:31.242Z</time>
      </trkpt>
      <trkpt lat="52.253170" lon="4.891540">
        <ele>-4.224496</ele>
        <time>2026-04-17T16:48:36.603Z</time>
      </trkpt>
      <trkpt lat="52.253140" lon="4.891253">
        <ele>-4.269458</ele>
        <time>2026-04-17T16:48:39.258Z</time>
      </trkpt>
      <trkpt lat="52.253093" lon="4.891084">
        <ele>-4.298122</ele>
        <time>2026-04-17T16:48:40.925Z</time>
      </trkpt>
      <trkpt lat="52.253017" lon="4.890914">
        <ele>-4.330629</ele>
        <time>2026-04-17T16:48:42.780Z</time>
      </trkpt>
      <trkpt lat="52.252855" lon="4.890668">
        <ele>-4.380921</ele>
        <time>2026-04-17T16:48:45.871Z</time>
      </trkpt>
      <trkpt lat="52.252599" lon="4.890378">
        <ele>-4.442263</ele>
        <time>2026-04-17T16:48:50.195Z</time>
      </trkpt>
      <trkpt lat="52.252344" lon="4.890088">
        <ele>-4.503443</ele>
        <time>2026-04-17T16:48:54.596Z</time>
      </trkpt>
      <trkpt lat="52.251914" lon="4.889584">
        <ele>-4.607652</ele>
        <time>2026-04-17T16:49:02.257Z</time>
      </trkpt>
      <trkpt lat="52.251559" lon="4.888956">
        <ele>-4.710690</ele>
        <time>2026-04-17T16:49:09.569Z</time>
      </trkpt>
      <trkpt lat="52.251111" lon="4.888417">
        <ele>-4.651662</ele>
        <time>2026-04-17T16:49:17.219Z</time>
      </trkpt>
      <trkpt lat="52.251007" lon="4.888197">
        <ele>-4.631241</ele>
        <time>2026-04-17T16:49:19.774Z</time>
      </trkpt>
      <trkpt lat="52.250860" lon="4.887745">
        <ele>-4.593639</ele>
        <time>2026-04-17T16:49:24.620Z</time>
      </trkpt>
      <trkpt lat="52.250770" lon="4.887295">
        <ele>-4.558858</ele>
        <time>2026-04-17T16:49:29.251Z</time>
      </trkpt>
      <trkpt lat="52.250771" lon="4.886995">
        <ele>-4.536818</ele>
        <time>2026-04-17T16:49:32.210Z</time>
      </trkpt>
      <trkpt lat="52.250807" lon="4.886737">
        <ele>-4.517377</ele>
        <time>2026-04-17T16:49:34.838Z</time>
      </trkpt>
      <trkpt lat="52.250867" lon="4.886530">
        <ele>-4.500550</ele>
        <time>2026-04-17T16:49:37.116Z</time>
      </trkpt>
      <trkpt lat="52.250972" lon="4.886283">
        <ele>-4.415786</ele>
        <time>2026-04-17T16:49:40.164Z</time>
      </trkpt>
      <trkpt lat="52.251135" lon="4.885976">
        <ele>-4.297654</ele>
        <time>2026-04-17T16:49:44.388Z</time>
      </trkpt>
      <trkpt lat="52.251430" lon="4.885539">
        <ele>-4.108551</ele>
        <time>2026-04-17T16:49:51.370Z</time>
      </trkpt>
      <trkpt lat="52.252969" lon="4.884352">
        <ele>-3.328925</ele>
        <time>2026-04-17T16:50:19.635Z</time>
      </trkpt>
      <trkpt lat="52.253130" lon="4.884183">
        <ele>-3.245560</ele>
        <time>2026-04-17T16:50:22.662Z</time>
      </trkpt>
      <trkpt lat="52.253306" lon="4.883918">
        <ele>-3.141294</ele>
        <time>2026-04-17T16:50:26.507Z</time>
      </trkpt>
      <trkpt lat="52.253524" lon="4.883429">
        <ele>-2.979981</ele>
        <time>2026-04-17T16:50:32.671Z</time>
      </trkpt>
      <trkpt lat="52.253601" lon="4.883055">
        <ele>-2.874759</ele>
        <time>2026-04-17T16:50:36.791Z</time>
      </trkpt>
      <trkpt lat="52.253584" lon="4.882652">
        <ele>-2.837023</ele>
        <time>2026-04-17T16:50:41.042Z</time>
      </trkpt>
      <trkpt lat="52.253442" lon="4.881803">
        <ele>-2.775145</ele>
        <time>2026-04-17T16:50:50.072Z</time>
      </trkpt>
      <trkpt lat="52.253346" lon="4.881134">
        <ele>-2.726835</ele>
        <time>2026-04-17T16:50:56.697Z</time>
      </trkpt>
      <trkpt lat="52.253185" lon="4.880381">
        <ele>-2.670757</ele>
        <time>2026-04-17T16:51:03.727Z</time>
      </trkpt>
      <trkpt lat="52.253006" lon="4.879235">
        <ele>-3.112753</ele>
        <time>2026-04-17T16:51:12.871Z</time>
      </trkpt>
      <trkpt lat="52.252882" lon="4.878459">
        <ele>-3.492433</ele>
        <time>2026-04-17T16:51:18.844Z</time>
      </trkpt>
      <trkpt lat="52.252794" lon="4.878045">
        <ele>-3.699906</ele>
        <time>2026-04-17T16:51:22.254Z</time>
      </trkpt>
      <trkpt lat="52.252434" lon="4.877193">
        <ele>-4.089070</ele>
        <time>2026-04-17T16:51:30.303Z</time>
      </trkpt>
      <trkpt lat="52.252113" lon="4.876564">
        <ele>-4.204151</ele>
        <time>2026-04-17T16:51:36.573Z</time>
      </trkpt>
      <trkpt lat="52.251612" lon="4.875701">
        <ele>-4.371293</ele>
        <time>2026-04-17T16:51:46.886Z</time>
      </trkpt>
      <trkpt lat="52.251346" lon="4.875244">
        <ele>-4.457279</ele>
        <time>2026-04-17T16:51:53.260Z</time>
      </trkpt>
      <trkpt lat="52.251083" lon="4.874917">
        <ele>-4.175925</ele>
        <time>2026-04-17T16:51:58.822Z</time>
      </trkpt>
      <trkpt lat="52.250945" lon="4.874701">
        <ele>-4.013229</ele>
        <time>2026-04-17T16:52:02.290Z</time>
      </trkpt>
      <trkpt lat="52.250729" lon="4.874298">
        <ele>-3.734097</ele>
        <time>2026-04-17T16:52:08.614Z</time>
      </trkpt>
      <trkpt lat="52.250663" lon="4.874114">
        <ele>-3.622962</ele>
        <time>2026-04-17T16:52:11.161Z</time>
      </trkpt>
      <trkpt lat="52.250646" lon="4.873909">
        <ele>-3.515154</ele>
        <time>2026-04-17T16:52:13.639Z</time>
      </trkpt>
      <trkpt lat="52.250662" lon="4.873619">
        <ele>-3.363412</ele>
        <time>2026-04-17T16:52:17.236Z</time>
      </trkpt>
      <trkpt lat="52.250829" lon="4.872894">
        <ele>-2.959731</ele>
        <time>2026-04-17T16:52:26.190Z</time>
      </trkpt>
      <trkpt lat="52.250836" lon="4.872241">
        <ele>-2.684878</ele>
        <time>2026-04-17T16:52:33.011Z</time>
      </trkpt>
      <trkpt lat="52.250834" lon="4.868235">
        <ele>-1.560159</ele>
        <time>2026-04-17T16:53:15.640Z</time>
      </trkpt>
      <trkpt lat="52.250820" lon="4.867544">
        <ele>-1.492844</ele>
        <time>2026-04-17T16:53:24.016Z</time>
      </trkpt>
      <trkpt lat="52.250821" lon="4.867251">
        <ele>-1.464316</ele>
        <time>2026-04-17T16:53:27.425Z</time>
      </trkpt>
      <trkpt lat="52.248292" lon="4.867310">
        <ele>-3.169024</ele>
        <time>2026-04-17T16:54:12.289Z</time>
      </trkpt>
      <trkpt lat="52.248092" lon="4.867387">
        <ele>-3.295075</ele>
        <time>2026-04-17T16:54:15.945Z</time>
      </trkpt>
      <trkpt lat="52.245328" lon="4.870378">
        <ele>-4.752858</ele>
        <time>2026-04-17T16:55:17.481Z</time>
      </trkpt>
      <trkpt lat="52.244848" lon="4.870884">
        <ele>-4.690806</ele>
        <time>2026-04-17T16:55:29.980Z</time>
      </trkpt>
      <trkpt lat="52.244249" lon="4.871431">
        <ele>-4.616266</ele>
        <time>2026-04-17T16:55:44.849Z</time>
      </trkpt>
      <trkpt lat="52.244089" lon="4.871577">
        <ele>-4.600865</ele>
        <time>2026-04-17T16:55:48.749Z</time>
      </trkpt>
      <trkpt lat="52.243559" lon="4.872061">
        <ele>-4.558224</ele>
        <time>2026-04-17T16:56:01.118Z</time>
      </trkpt>
      <trkpt lat="52.242329" lon="4.873179">
        <ele>-4.483129</ele>
        <time>2026-04-17T16:56:21.896Z</time>
      </trkpt>
      <trkpt lat="52.242276" lon="4.873228">
        <ele>-4.483188</ele>
        <time>2026-04-17T16:56:22.891Z</time>
      </trkpt>
      <trkpt lat="52.242025" lon="4.872712">
        <ele>-4.483582</ele>
        <time>2026-04-17T16:56:29.327Z</time>
      </trkpt>
      <trkpt lat="52.241518" lon="4.871670">
        <ele>-4.484379</ele>
        <time>2026-04-17T16:56:41.838Z</time>
      </trkpt>
      <trkpt lat="52.239444" lon="4.867421">
        <ele>-5.785621</ele>
        <time>2026-04-17T16:57:25.733Z</time>
      </trkpt>
      <trkpt lat="52.239160" lon="4.866850">
        <ele>-5.943869</ele>
        <time>2026-04-17T16:57:32.104Z</time>
      </trkpt>
      <trkpt lat="52.238517" lon="4.865557">
        <ele>-5.571445</ele>
        <time>2026-04-17T16:57:49.071Z</time>
      </trkpt>
      <trkpt lat="52.238357" lon="4.865236">
        <ele>-5.477986</ele>
        <time>2026-04-17T16:57:53.620Z</time>
      </trkpt>
      <trkpt lat="52.238233" lon="4.864987">
        <ele>-5.405517</ele>
        <time>2026-04-17T16:57:57.063Z</time>
      </trkpt>
      <trkpt lat="52.237146" lon="4.862796">
        <ele>-5.082338</ele>
        <time>2026-04-17T16:58:24.175Z</time>
      </trkpt>
      <trkpt lat="52.237007" lon="4.862515">
        <ele>-5.050561</ele>
        <time>2026-04-17T16:58:27.363Z</time>
      </trkpt>
      <trkpt lat="52.236944" lon="4.862386">
        <ele>-5.036046</ele>
        <time>2026-04-17T16:58:28.794Z</time>
      </trkpt>
      <trkpt lat="52.236142" lon="4.860759">
        <ele>-5.053656</ele>
        <time>2026-04-17T16:58:47.103Z</time>
      </trkpt>
      <trkpt lat="52.235743" lon="4.859948">
        <ele>-5.062376</ele>
        <time>2026-04-17T16:58:56.682Z</time>
      </trkpt>
      <trkpt lat="52.234899" lon="4.858234">
        <ele>-4.817839</ele>
        <time>2026-04-17T16:59:18.356Z</time>
      </trkpt>
      <trkpt lat="52.234251" lon="4.856919">
        <ele>-5.032547</ele>
        <time>2026-04-17T16:59:33.743Z</time>
      </trkpt>
      <trkpt lat="52.234007" lon="4.856422">
        <ele>-5.216507</ele>
        <time>2026-04-17T16:59:38.502Z</time>
      </trkpt>
      <trkpt lat="52.233699" lon="4.855798">
        <ele>-5.447962</ele>
        <time>2026-04-17T16:59:44.593Z</time>
      </trkpt>
      <trkpt lat="52.233619" lon="4.855633">
        <ele>-5.508740</ele>
        <time>2026-04-17T16:59:47.002Z</time>
      </trkpt>
      <trkpt lat="52.233587" lon="4.855567">
        <ele>-5.533051</ele>
        <time>2026-04-17T16:59:47.668Z</time>
      </trkpt>
      <trkpt lat="52.233304" lon="4.854994">
        <ele>-5.604360</ele>
        <time>2026-04-17T16:59:53.763Z</time>
      </trkpt>
      <trkpt lat="52.233046" lon="4.854468">
        <ele>-5.622095</ele>
        <time>2026-04-17T16:59:59.504Z</time>
      </trkpt>
      <trkpt lat="52.232791" lon="4.853949">
        <ele>-5.639605</ele>
        <time>2026-04-17T17:00:05.706Z</time>
      </trkpt>
      <trkpt lat="52.231907" lon="4.852149">
        <ele>-5.593092</ele>
        <time>2026-04-17T17:00:28.715Z</time>
      </trkpt>
      <trkpt lat="52.231684" lon="4.851695">
        <ele>-5.558400</ele>
        <time>2026-04-17T17:00:33.646Z</time>
      </trkpt>
      <trkpt lat="52.231441" lon="4.851200">
        <ele>-5.520584</ele>
        <time>2026-04-17T17:00:39.198Z</time>
      </trkpt>
      <trkpt lat="52.231198" lon="4.850706">
        <ele>-5.490972</ele>
        <time>2026-04-17T17:00:44.938Z</time>
      </trkpt>
      <trkpt lat="52.230981" lon="4.850262">
        <ele>-5.485864</ele>
        <time>2026-04-17T17:00:50.139Z</time>
      </trkpt>
      <trkpt lat="52.230035" lon="4.848325">
        <ele>-5.499703</ele>
        <time>2026-04-17T17:01:13.030Z</time>
      </trkpt>
      <trkpt lat="52.229828" lon="4.847901">
        <ele>-5.567368</ele>
        <time>2026-04-17T17:01:17.711Z</time>
      </trkpt>
      <trkpt lat="52.229419" lon="4.847062">
        <ele>-5.701185</ele>
        <time>2026-04-17T17:01:26.732Z</time>
      </trkpt>
      <trkpt lat="52.229391" lon="4.847005">
        <ele>-5.710303</ele>
        <time>2026-04-17T17:01:27.337Z</time>
      </trkpt>
      <trkpt lat="52.229088" lon="4.846399">
        <ele>-5.807928</ele>
        <time>2026-04-17T17:01:33.701Z</time>
      </trkpt>
      <trkpt lat="52.228921" lon="4.846027">
        <ele>-5.789500</ele>
        <time>2026-04-17T17:01:37.626Z</time>
      </trkpt>
      <trkpt lat="52.228813" lon="4.845599">
        <ele>-5.714273</ele>
        <time>2026-04-17T17:01:42.153Z</time>
      </trkpt>
      <trkpt lat="52.228744" lon="4.845069">
        <ele>-5.626217</ele>
        <time>2026-04-17T17:01:47.581Z</time>
      </trkpt>
      <trkpt lat="52.228544" lon="4.844880">
        <ele>-5.564905</ele>
        <time>2026-04-17T17:01:51.313Z</time>
      </trkpt>
      <trkpt lat="52.228460" lon="4.844696">
        <ele>-5.527610</ele>
        <time>2026-04-17T17:01:53.604Z</time>
      </trkpt>
      <trkpt lat="52.228397" lon="4.844528">
        <ele>-5.495597</ele>
        <time>2026-04-17T17:01:55.612Z</time>
      </trkpt>
      <trkpt lat="52.228346" lon="4.844382">
        <ele>-5.468283</ele>
        <time>2026-04-17T17:01:57.341Z</time>
      </trkpt>
      <trkpt lat="52.228299" lon="4.844252">
        <ele>-5.443750</ele>
        <time>2026-04-17T17:01:58.854Z</time>
      </trkpt>
      <trkpt lat="52.228099" lon="4.843696">
        <ele>-5.327619</ele>
        <time>2026-04-17T17:02:05.579Z</time>
      </trkpt>
      <trkpt lat="52.227957" lon="4.843532">
        <ele>-5.249347</ele>
        <time>2026-04-17T17:02:08.698Z</time>
      </trkpt>
      <trkpt lat="52.228469" lon="4.841433">
        <ele>-4.626608</ele>
        <time>2026-04-17T17:02:30.618Z</time>
      </trkpt>
      <trkpt lat="52.228642" lon="4.840714">
        <ele>-4.201394</ele>
        <time>2026-04-17T17:02:39.184Z</time>
      </trkpt>
      <trkpt lat="52.228690" lon="4.840406">
        <ele>-3.973112</ele>
        <time>2026-04-17T17:02:42.850Z</time>
      </trkpt>
      <trkpt lat="52.228772" lon="4.839681">
        <ele>-3.443548</ele>
        <time>2026-04-17T17:02:51.702Z</time>
      </trkpt>
      <trkpt lat="52.228982" lon="4.838794">
        <ele>-2.760489</ele>
        <time>2026-04-17T17:03:04.663Z</time>
      </trkpt>
      <trkpt lat="52.229025" lon="4.838461">
        <ele>-2.516042</ele>
        <time>2026-04-17T17:03:09.226Z</time>
      </trkpt>
      <trkpt lat="52.229292" lon="4.837523">
        <ele>-2.269110</ele>
        <time>2026-04-17T17:03:20.500Z</time>
      </trkpt>
      <trkpt lat="52.229430" lon="4.836882">
        <ele>-2.145909</ele>
        <time>2026-04-17T17:03:27.134Z</time>
      </trkpt>
      <trkpt lat="52.229422" lon="4.836613">
        <ele>-2.097075</ele>
        <time>2026-04-17T17:03:29.625Z</time>
      </trkpt>
      <trkpt lat="52.229308" lon="4.836255">
        <ele>-2.023912</ele>
        <time>2026-04-17T17:03:33.127Z</time>
      </trkpt>
      <trkpt lat="52.229098" lon="4.836031">
        <ele>-1.949651</ele>
        <time>2026-04-17T17:03:36.478Z</time>
      </trkpt>
      <trkpt lat="52.228898" lon="4.835543">
        <ele>-1.966283</ele>
        <time>2026-04-17T17:03:41.165Z</time>
      </trkpt>
      <trkpt lat="52.228143" lon="4.834532">
        <ele>-2.260976</ele>
        <time>2026-04-17T17:03:54.804Z</time>
      </trkpt>
      <trkpt lat="52.226498" lon="4.832465">
        <ele>-2.675639</ele>
        <time>2026-04-17T17:04:23.856Z</time>
      </trkpt>
      <trkpt lat="52.225988" lon="4.831826">
        <ele>-2.779722</ele>
        <time>2026-04-17T17:04:33.577Z</time>
      </trkpt>
      <trkpt lat="52.225586" lon="4.831322">
        <ele>-2.864739</ele>
        <time>2026-04-17T17:04:41.286Z</time>
      </trkpt>
      <trkpt lat="52.224454" lon="4.829887">
        <ele>-3.106256</ele>
        <time>2026-04-17T17:05:00.743Z</time>
      </trkpt>
      <trkpt lat="52.224285" lon="4.829707">
        <ele>-3.140613</ele>
        <time>2026-04-17T17:05:03.573Z</time>
      </trkpt>
      <trkpt lat="52.224004" lon="4.829508">
        <ele>-3.192763</ele>
        <time>2026-04-17T17:05:07.895Z</time>
      </trkpt>
      <trkpt lat="52.223879" lon="4.829447">
        <ele>-3.214976</ele>
        <time>2026-04-17T17:05:09.765Z</time>
      </trkpt>
      <trkpt lat="52.219996" lon="4.828563">
        <ele>-3.552461</ele>
        <time>2026-04-17T17:06:07.067Z</time>
      </trkpt>
      <trkpt lat="52.219201" lon="4.828331">
        <ele>-3.554082</ele>
        <time>2026-04-17T17:06:18.609Z</time>
      </trkpt>
      <trkpt lat="52.218408" lon="4.828011">
        <ele>-3.489390</ele>
        <time>2026-04-17T17:06:31.103Z</time>
      </trkpt>
      <trkpt lat="52.218270" lon="4.827916">
        <ele>-3.477528</ele>
        <time>2026-04-17T17:06:33.490Z</time>
      </trkpt>
      <trkpt lat="52.217791" lon="4.827225">
        <ele>-3.377728</ele>
        <time>2026-04-17T17:06:43.513Z</time>
      </trkpt>
      <trkpt lat="52.217438" lon="4.826659">
        <ele>-3.229588</ele>
        <time>2026-04-17T17:06:51.219Z</time>
      </trkpt>
      <trkpt lat="52.216959" lon="4.825898">
        <ele>-3.029472</ele>
        <time>2026-04-17T17:07:01.668Z</time>
      </trkpt>
      <trkpt lat="52.216223" lon="4.824914">
        <ele>-2.744404</ele>
        <time>2026-04-17T17:07:17.552Z</time>
      </trkpt>
      <trkpt lat="52.215959" lon="4.824448">
        <ele>-2.627813</ele>
        <time>2026-04-17T17:07:24.547Z</time>
      </trkpt>
      <trkpt lat="52.215568" lon="4.823678">
        <ele>-2.444096</ele>
        <time>2026-04-17T17:07:34.573Z</time>
      </trkpt>
      <trkpt lat="52.215515" lon="4.823581">
        <ele>-2.420221</ele>
        <time>2026-04-17T17:07:36.136Z</time>
      </trkpt>
      <trkpt lat="52.215151" lon="4.822995">
        <ele>-2.473712</ele>
        <time>2026-04-17T17:07:45.819Z</time>
      </trkpt>
      <trkpt lat="52.214937" lon="4.822751">
        <ele>-2.557437</ele>
        <time>2026-04-17T17:07:50.617Z</time>
      </trkpt>
      <trkpt lat="52.214783" lon="4.822589">
        <ele>-2.616199</ele>
        <time>2026-04-17T17:07:53.967Z</time>
      </trkpt>
      <trkpt lat="52.214597" lon="4.822414">
        <ele>-2.685056</ele>
        <time>2026-04-17T17:07:56.759Z</time>
      </trkpt>
      <trkpt lat="52.214541" lon="4.822353">
        <ele>-2.706649</ele>
        <time>2026-04-17T17:07:57.961Z</time>
      </trkpt>
      <trkpt lat="52.214117" lon="4.821812">
        <ele>-2.879261</ele>
        <time>2026-04-17T17:08:07.736Z</time>
      </trkpt>
      <trkpt lat="52.210922" lon="4.818002">
        <ele>-2.021863</ele>
        <time>2026-04-17T17:09:31.658Z</time>
      </trkpt>
      <trkpt lat="52.210726" lon="4.817714">
        <ele>-1.864221</ele>
        <time>2026-04-17T17:09:37.873Z</time>
      </trkpt>
      <trkpt lat="52.210300" lon="4.817020">
        <ele>-1.504437</ele>
        <time>2026-04-17T17:09:52.068Z</time>
      </trkpt>
      <trkpt lat="52.210251" lon="4.816797">
        <ele>-1.417669</ele>
        <time>2026-04-17T17:09:55.487Z</time>
      </trkpt>
      <trkpt lat="52.209958" lon="4.816097">
        <ele>-1.107180</ele>
        <time>2026-04-17T17:10:07.362Z</time>
      </trkpt>
      <trkpt lat="52.209758" lon="4.815486">
        <ele>-1.095877</ele>
        <time>2026-04-17T17:10:16.495Z</time>
      </trkpt>
      <trkpt lat="52.209490" lon="4.814437">
        <ele>-1.215690</ele>
        <time>2026-04-17T17:10:29.923Z</time>
      </trkpt>
      <trkpt lat="52.209493" lon="4.814330">
        <ele>-1.226982</ele>
        <time>2026-04-17T17:10:31.148Z</time>
      </trkpt>
      <trkpt lat="52.209487" lon="4.813949">
        <ele>-1.267160</ele>
        <time>2026-04-17T17:10:35.523Z</time>
      </trkpt>
      <trkpt lat="52.209461" lon="4.813765">
        <ele>-1.287067</ele>
        <time>2026-04-17T17:10:37.677Z</time>
      </trkpt>
      <trkpt lat="52.209447" lon="4.813689">
        <ele>-1.295433</ele>
        <time>2026-04-17T17:10:38.602Z</time>
      </trkpt>
      <trkpt lat="52.209367" lon="4.813264">
        <ele>-1.342303</ele>
        <time>2026-04-17T17:10:43.653Z</time>
      </trkpt>
      <trkpt lat="52.209343" lon="4.813155">
        <ele>-1.356779</ele>
        <time>2026-04-17T17:10:44.996Z</time>
      </trkpt>
      <trkpt lat="52.208879" lon="4.810898">
        <ele>-1.776024</ele>
        <time>2026-04-17T17:11:12.752Z</time>
      </trkpt>
      <trkpt lat="52.208594" lon="4.809569">
        <ele>-1.901242</ele>
        <time>2026-04-17T17:11:30.288Z</time>
      </trkpt>
      <trkpt lat="52.208475" lon="4.809245">
        <ele>-1.915403</ele>
        <time>2026-04-17T17:11:34.943Z</time>
      </trkpt>
      <trkpt lat="52.208268" lon="4.808498">
        <ele>-1.946138</ele>
        <time>2026-04-17T17:11:44.887Z</time>
      </trkpt>
      <trkpt lat="52.207861" lon="4.807130">
        <ele>-2.037783</ele>
        <time>2026-04-17T17:12:03.297Z</time>
      </trkpt>
      <trkpt lat="52.207821" lon="4.806851">
        <ele>-2.063367</ele>
        <time>2026-04-17T17:12:06.733Z</time>
      </trkpt>
      <trkpt lat="52.207365" lon="4.805313">
        <ele>-2.215924</ele>
        <time>2026-04-17T17:12:27.413Z</time>
      </trkpt>
      <trkpt lat="52.207265" lon="4.805047">
        <ele>-2.249084</ele>
        <time>2026-04-17T17:12:31.236Z</time>
      </trkpt>
      <trkpt lat="52.206594" lon="4.802745">
        <ele>-2.808719</ele>
        <time>2026-04-17T17:13:01.418Z</time>
      </trkpt>
      <trkpt lat="52.206242" lon="4.801434">
        <ele>-3.556820</ele>
        <time>2026-04-17T17:13:16.824Z</time>
      </trkpt>
      <trkpt lat="52.205883" lon="4.800279">
        <ele>-4.358523</ele>
        <time>2026-04-17T17:13:30.200Z</time>
      </trkpt>
      <trkpt lat="52.205761" lon="4.799978">
        <ele>-4.581924</ele>
        <time>2026-04-17T17:13:33.945Z</time>
      </trkpt>
      <trkpt lat="52.205525" lon="4.799068">
        <ele>-4.920472</ele>
        <time>2026-04-17T17:13:44.432Z</time>
      </trkpt>
      <trkpt lat="52.204627" lon="4.795265">
        <ele>-5.705399</ele>
        <time>2026-04-17T17:14:33.091Z</time>
      </trkpt>
      <trkpt lat="52.204603" lon="4.795170">
        <ele>-5.715770</ele>
        <time>2026-04-17T17:14:34.350Z</time>
      </trkpt>
      <trkpt lat="52.204543" lon="4.795015">
        <ele>-5.734275</ele>
        <time>2026-04-17T17:14:36.574Z</time>
      </trkpt>
      <trkpt lat="52.203212" lon="4.789568">
        <ele>-6.035556</ele>
        <time>2026-04-17T17:15:48.246Z</time>
      </trkpt>
      <trkpt lat="52.203182" lon="4.789378">
        <ele>-6.045396</ele>
        <time>2026-04-17T17:15:50.613Z</time>
      </trkpt>
      <trkpt lat="52.203150" lon="4.789256">
        <ele>-6.052051</ele>
        <time>2026-04-17T17:15:52.205Z</time>
      </trkpt>
      <trkpt lat="52.202236" lon="4.785625">
        <ele>-6.379403</ele>
        <time>2026-04-17T17:16:38.991Z</time>
      </trkpt>
      <trkpt lat="52.201921" lon="4.784485">
        <ele>-6.321539</ele>
        <time>2026-04-17T17:16:54.858Z</time>
      </trkpt>
      <trkpt lat="52.201685" lon="4.783709">
        <ele>-6.281453</ele>
        <time>2026-04-17T17:17:06.258Z</time>
      </trkpt>
      <trkpt lat="52.201604" lon="4.783568">
        <ele>-6.272510</ele>
        <time>2026-04-17T17:17:08.791Z</time>
      </trkpt>
      <trkpt lat="52.201497" lon="4.783530">
        <ele>-6.257445</ele>
        <time>2026-04-17T17:17:11.111Z</time>
      </trkpt>
      <trkpt lat="52.201460" lon="4.783452">
        <ele>-6.248543</ele>
        <time>2026-04-17T17:17:12.421Z</time>
      </trkpt>
      <trkpt lat="52.201439" lon="4.783372">
        <ele>-6.240689</ele>
        <time>2026-04-17T17:17:13.574Z</time>
      </trkpt>
      <trkpt lat="52.201393" lon="4.783224">
        <ele>-6.225712</ele>
        <time>2026-04-17T17:17:15.728Z</time>
      </trkpt>
      <trkpt lat="52.201429" lon="4.783101">
        <ele>-6.213410</ele>
        <time>2026-04-17T17:17:17.490Z</time>
      </trkpt>
      <trkpt lat="52.201428" lon="4.783003">
        <ele>-6.204564</ele>
        <time>2026-04-17T17:17:18.785Z</time>
      </trkpt>
      <trkpt lat="52.201045" lon="4.781657">
        <ele>-6.070629</ele>
        <time>2026-04-17T17:17:37.857Z</time>
      </trkpt>
      <trkpt lat="52.200554" lon="4.779774">
        <ele>-5.990780</ele>
        <time>2026-04-17T17:18:02.896Z</time>
      </trkpt>
      <trkpt lat="52.199261" lon="4.774483">
        <ele>-5.512553</ele>
        <time>2026-04-17T17:19:13.845Z</time>
      </trkpt>
      <trkpt lat="52.198683" lon="4.772399">
        <ele>-4.774425</ele>
        <time>2026-04-17T17:19:47.416Z</time>
      </trkpt>
      <trkpt lat="52.198621" lon="4.772282">
        <ele>-4.735438</ele>
        <time>2026-04-17T17:19:49.689Z</time>
      </trkpt>
      <trkpt lat="52.198258" lon="4.771943">
        <ele>-4.563423</ele>
        <time>2026-04-17T17:19:59.439Z</time>
      </trkpt>
      <trkpt lat="52.198214" lon="4.771731">
        <ele>-4.507003</ele>
        <time>2026-04-17T17:20:02.497Z</time>
      </trkpt>
      <trkpt lat="52.198194" lon="4.771638">
        <ele>-4.482159</ele>
        <time>2026-04-17T17:20:03.801Z</time>
      </trkpt>
      <trkpt lat="52.198390" lon="4.771444">
        <ele>-4.387877</ele>
        <time>2026-04-17T17:20:08.725Z</time>
      </trkpt>
      <trkpt lat="52.198775" lon="4.771205">
        <ele>-4.218468</ele>
        <time>2026-04-17T17:20:17.126Z</time>
      </trkpt>
      <trkpt lat="52.198799" lon="4.771133">
        <ele>-4.197808</ele>
        <time>2026-04-17T17:20:18.130Z</time>
      </trkpt>
      <trkpt lat="52.198797" lon="4.771047">
        <ele>-4.176114</ele>
        <time>2026-04-17T17:20:19.154Z</time>
      </trkpt>
      <trkpt lat="52.198781" lon="4.770945">
        <ele>-4.180394</ele>
        <time>2026-04-17T17:20:20.430Z</time>
      </trkpt>
      <trkpt lat="52.198600" lon="4.770494">
        <ele>-4.320767</ele>
        <time>2026-04-17T17:20:26.784Z</time>
      </trkpt>
      <trkpt lat="52.197972" lon="4.768238">
        <ele>-4.973171</ele>
        <time>2026-04-17T17:20:54.890Z</time>
      </trkpt>
      <trkpt lat="52.197800" lon="4.767800">
        <ele>-5.134933</ele>
        <time>2026-04-17T17:21:00.591Z</time>
      </trkpt>
      <trkpt lat="52.197420" lon="4.766190">
        <ele>-5.671436</ele>
        <time>2026-04-17T17:21:19.697Z</time>
      </trkpt>
      <trkpt lat="52.196384" lon="4.762028">
        <ele>-5.878331</ele>
        <time>2026-04-17T17:22:15.391Z</time>
      </trkpt>
      <trkpt lat="52.196244" lon="4.761581">
        <ele>-5.867574</ele>
        <time>2026-04-17T17:22:21.724Z</time>
      </trkpt>
      <trkpt lat="52.196086" lon="4.761200">
        <ele>-5.857716</ele>
        <time>2026-04-17T17:22:27.281Z</time>
      </trkpt>
      <trkpt lat="52.195860" lon="4.760805">
        <ele>-5.846137</ele>
        <time>2026-04-17T17:22:33.987Z</time>
      </trkpt>
      <trkpt lat="52.195649" lon="4.760516">
        <ele>-5.825262</ele>
        <time>2026-04-17T17:22:39.719Z</time>
      </trkpt>
      <trkpt lat="52.195409" lon="4.760264">
        <ele>-5.631954</ele>
        <time>2026-04-17T17:22:45.570Z</time>
      </trkpt>
      <trkpt lat="52.195160" lon="4.760065">
        <ele>-5.444159</ele>
        <time>2026-04-17T17:22:51.451Z</time>
      </trkpt>
      <trkpt lat="52.194790" lon="4.759865">
        <ele>-5.180163</ele>
        <time>2026-04-17T17:23:00.245Z</time>
      </trkpt>
      <trkpt lat="52.194518" lon="4.759793">
        <ele>-4.993531</ele>
        <time>2026-04-17T17:23:06.839Z</time>
      </trkpt>
      <trkpt lat="52.194211" lon="4.759769">
        <ele>-4.785363</ele>
        <time>2026-04-17T17:23:14.683Z</time>
      </trkpt>
      <trkpt lat="52.194043" lon="4.759043">
        <ele>-4.487903</ele>
        <time>2026-04-17T17:23:26.722Z</time>
      </trkpt>
      <trkpt lat="52.193977" lon="4.758755">
        <ele>-4.380512</ele>
        <time>2026-04-17T17:23:48.544Z</time>
      </trkpt>
      <trkpt lat="52.193375" lon="4.759129">
        <ele>-4.013466</ele>
        <time>2026-04-17T17:24:00.003Z</time>
      </trkpt>
      <trkpt lat="52.192849" lon="4.759446">
        <ele>-3.693958</ele>
        <time>2026-04-17T17:24:08.507Z</time>
      </trkpt>
      <trkpt lat="52.192426" lon="4.759726">
        <ele>-3.636885</ele>
        <time>2026-04-17T17:24:15.106Z</time>
      </trkpt>
      <trkpt lat="52.191826" lon="4.760091">
        <ele>-3.734417</ele>
        <time>2026-04-17T17:24:24.029Z</time>
      </trkpt>
      <trkpt lat="52.191245" lon="4.760402">
        <ele>-3.827550</ele>
        <time>2026-04-17T17:24:32.822Z</time>
      </trkpt>
      <trkpt lat="52.191044" lon="4.760378">
        <ele>-3.858246</ele>
        <time>2026-04-17T17:24:36.806Z</time>
      </trkpt>
      <trkpt lat="52.190945" lon="4.760416">
        <ele>-3.873293</ele>
        <time>2026-04-17T17:24:38.795Z</time>
      </trkpt>
      <trkpt lat="52.190428" lon="4.760460">
        <ele>-3.946052</ele>
        <time>2026-04-17T17:24:48.693Z</time>
      </trkpt>
      <trkpt lat="52.190333" lon="4.760463">
        <ele>-3.959406</ele>
        <time>2026-04-17T17:24:50.533Z</time>
      </trkpt>
      <trkpt lat="52.189475" lon="4.760472">
        <ele>-4.079993</ele>
        <time>2026-04-17T17:25:07.754Z</time>
      </trkpt>
      <trkpt lat="52.189413" lon="4.760437">
        <ele>-4.089214</ele>
        <time>2026-04-17T17:25:09.083Z</time>
      </trkpt>
      <trkpt lat="52.189346" lon="4.760331">
        <ele>-4.102331</ele>
        <time>2026-04-17T17:25:10.936Z</time>
      </trkpt>
      <trkpt lat="52.189272" lon="4.760397">
        <ele>-4.114185</ele>
        <time>2026-04-17T17:25:12.677Z</time>
      </trkpt>
      <trkpt lat="52.189225" lon="4.760440">
        <ele>-4.123164</ele>
        <time>2026-04-17T17:25:13.733Z</time>
      </trkpt>
      <trkpt lat="52.189127" lon="4.760522">
        <ele>-4.161128</ele>
        <time>2026-04-17T17:25:15.947Z</time>
      </trkpt>
      <trkpt lat="52.188900" lon="4.761028">
        <ele>-4.293626</ele>
        <time>2026-04-17T17:25:23.479Z</time>
      </trkpt>
      <trkpt lat="52.188414" lon="4.761467">
        <ele>-4.485117</ele>
        <time>2026-04-17T17:25:34.441Z</time>
      </trkpt>
      <trkpt lat="52.188041" lon="4.761971">
        <ele>-4.652071</ele>
        <time>2026-04-17T17:25:43.255Z</time>
      </trkpt>
      <trkpt lat="52.187978" lon="4.762035">
        <ele>-4.677654</ele>
        <time>2026-04-17T17:25:44.577Z</time>
      </trkpt>
      <trkpt lat="52.187878" lon="4.762074">
        <ele>-4.713095</ele>
        <time>2026-04-17T17:25:46.406Z</time>
      </trkpt>
      <trkpt lat="52.187812" lon="4.762253">
        <ele>-4.759552</ele>
        <time>2026-04-17T17:25:48.687Z</time>
      </trkpt>
      <trkpt lat="52.187750" lon="4.762264">
        <ele>-4.784072</ele>
        <time>2026-04-17T17:25:49.800Z</time>
      </trkpt>
      <trkpt lat="52.187646" lon="4.762365">
        <ele>-4.831661</ele>
        <time>2026-04-17T17:25:51.950Z</time>
      </trkpt>
      <trkpt lat="52.187487" lon="4.762534">
        <ele>-4.906277</ele>
        <time>2026-04-17T17:25:55.318Z</time>
      </trkpt>
      <trkpt lat="52.186963" lon="4.762951">
        <ele>-5.135514</ele>
        <time>2026-04-17T17:26:05.910Z</time>
      </trkpt>
      <trkpt lat="52.185462" lon="4.763886">
        <ele>-5.459704</ele>
        <time>2026-04-17T17:26:38.058Z</time>
      </trkpt>
      <trkpt lat="52.185242" lon="4.764023">
        <ele>-5.463113</ele>
        <time>2026-04-17T17:26:42.966Z</time>
      </trkpt>
      <trkpt lat="52.184532" lon="4.764465">
        <ele>-5.475546</ele>
        <time>2026-04-17T17:26:58.522Z</time>
      </trkpt>
      <trkpt lat="52.183147" lon="4.765325">
        <ele>-5.735454</ele>
        <time>2026-04-17T17:27:27.604Z</time>
      </trkpt>
      <trkpt lat="52.181413" lon="4.766404">
        <ele>-6.115574</ele>
        <time>2026-04-17T17:28:03.103Z</time>
      </trkpt>
      <trkpt lat="52.180377" lon="4.767048">
        <ele>-5.995934</ele>
        <time>2026-04-17T17:28:25.701Z</time>
      </trkpt>
      <trkpt lat="52.176643" lon="4.769361">
        <ele>-5.251115</ele>
        <time>2026-04-17T17:29:50.773Z</time>
      </trkpt>
      <trkpt lat="52.176595" lon="4.769160">
        <ele>-5.230611</ele>
        <time>2026-04-17T17:29:52.742Z</time>
      </trkpt>
      <trkpt lat="52.176461" lon="4.768566">
        <ele>-5.170450</ele>
        <time>2026-04-17T17:29:58.421Z</time>
      </trkpt>
      <trkpt lat="52.175245" lon="4.763549">
        <ele>-5.746541</ele>
        <time>2026-04-17T17:30:44.875Z</time>
      </trkpt>
      <trkpt lat="52.174724" lon="4.761419">
        <ele>-5.692765</ele>
        <time>2026-04-17T17:31:06.969Z</time>
      </trkpt>
      <trkpt lat="52.174398" lon="4.760083">
        <ele>-5.640187</ele>
        <time>2026-04-17T17:31:19.897Z</time>
      </trkpt>
      <trkpt lat="52.174231" lon="4.759395">
        <ele>-5.665479</ele>
        <time>2026-04-17T17:31:26.380Z</time>
      </trkpt>
      <trkpt lat="52.172818" lon="4.753606">
        <ele>-5.716307</ele>
        <time>2026-04-17T17:32:22.443Z</time>
      </trkpt>
      <trkpt lat="52.172811" lon="4.753579">
        <ele>-5.715021</ele>
        <time>2026-04-17T17:32:22.748Z</time>
      </trkpt>
      <trkpt lat="52.172762" lon="4.753370">
        <ele>-5.705204</ele>
        <time>2026-04-17T17:32:24.994Z</time>
      </trkpt>
      <trkpt lat="52.172663" lon="4.752968">
        <ele>-5.686197</ele>
        <time>2026-04-17T17:32:29.322Z</time>
      </trkpt>
      <trkpt lat="52.172025" lon="4.750370">
        <ele>-5.601154</ele>
        <time>2026-04-17T17:32:54.367Z</time>
      </trkpt>
      <trkpt lat="52.171456" lon="4.748015">
        <ele>-5.431911</ele>
        <time>2026-04-17T17:33:18.748Z</time>
      </trkpt>
      <trkpt lat="52.171348" lon="4.747567">
        <ele>-5.386689</ele>
        <time>2026-04-17T17:33:23.504Z</time>
      </trkpt>
      <trkpt lat="52.169061" lon="4.738177">
        <ele>-5.197571</ele>
        <time>2026-04-17T17:34:55.982Z</time>
      </trkpt>
      <trkpt lat="52.169046" lon="4.738116">
        <ele>-5.198148</ele>
        <time>2026-04-17T17:34:56.604Z</time>
      </trkpt>
      <trkpt lat="52.169022" lon="4.738015">
        <ele>-5.199098</ele>
        <time>2026-04-17T17:34:57.589Z</time>
      </trkpt>
      <trkpt lat="52.168359" lon="4.738422">
        <ele>-5.209231</ele>
        <time>2026-04-17T17:35:11.997Z</time>
      </trkpt>
      <trkpt lat="52.168081" lon="4.738600">
        <ele>-5.213503</ele>
        <time>2026-04-17T17:35:17.986Z</time>
      </trkpt>
      <trkpt lat="52.167315" lon="4.739078">
        <ele>-5.298084</ele>
        <time>2026-04-17T17:35:34.104Z</time>
      </trkpt>
      <trkpt lat="52.162771" lon="4.741913">
        <ele>-6.242425</ele>
        <time>2026-04-17T17:37:08.514Z</time>
      </trkpt>
      <trkpt lat="52.162709" lon="4.741950">
        <ele>-6.253689</ele>
        <time>2026-04-17T17:37:09.892Z</time>
      </trkpt>
      <trkpt lat="52.162598" lon="4.742016">
        <ele>-6.270247</ele>
        <time>2026-04-17T17:37:12.316Z</time>
      </trkpt>
      <trkpt lat="52.161852" lon="4.742477">
        <ele>-6.320404</ele>
        <time>2026-04-17T17:37:28.599Z</time>
      </trkpt>
      <trkpt lat="52.161107" lon="4.742941">
        <ele>-6.370542</ele>
        <time>2026-04-17T17:37:44.127Z</time>
      </trkpt>
      <trkpt lat="52.160144" lon="4.743544">
        <ele>-6.169591</ele>
        <time>2026-04-17T17:38:05.204Z</time>
      </trkpt>
      <trkpt lat="52.159026" lon="4.744239">
        <ele>-5.960897</ele>
        <time>2026-04-17T17:38:32.028Z</time>
      </trkpt>
      <trkpt lat="52.158015" lon="4.744863">
        <ele>-6.050155</ele>
        <time>2026-04-17T17:38:53.315Z</time>
      </trkpt>
      <trkpt lat="52.157537" lon="4.745160">
        <ele>-6.092930</ele>
        <time>2026-04-17T17:39:02.690Z</time>
      </trkpt>
      <trkpt lat="52.156236" lon="4.745981">
        <ele>-6.222144</ele>
        <time>2026-04-17T17:39:30.529Z</time>
      </trkpt>
      <trkpt lat="52.156012" lon="4.746122">
        <ele>-6.244385</ele>
        <time>2026-04-17T17:39:35.506Z</time>
      </trkpt>
      <trkpt lat="52.154880" lon="4.746828">
        <ele>-6.271471</ele>
        <time>2026-04-17T17:39:59.624Z</time>
      </trkpt>
      <trkpt lat="52.154568" lon="4.747024">
        <ele>-6.276600</ele>
        <time>2026-04-17T17:40:06.150Z</time>
      </trkpt>
      <trkpt lat="52.152424" lon="4.748363">
        <ele>-5.916137</ele>
        <time>2026-04-17T17:40:54.541Z</time>
      </trkpt>
      <trkpt lat="52.151733" lon="4.748796">
        <ele>-5.889316</ele>
        <time>2026-04-17T17:41:10.172Z</time>
      </trkpt>
      <trkpt lat="52.151407" lon="4.749000">
        <ele>-5.876664</ele>
        <time>2026-04-17T17:41:17.103Z</time>
      </trkpt>
      <trkpt lat="52.151055" lon="4.749220">
        <ele>-5.863005</ele>
        <time>2026-04-17T17:41:24.567Z</time>
      </trkpt>
      <trkpt lat="52.150534" lon="4.749545">
        <ele>-5.789628</ele>
        <time>2026-04-17T17:41:35.262Z</time>
      </trkpt>
      <trkpt lat="52.148267" lon="4.750950">
        <ele>-5.419212</ele>
        <time>2026-04-17T17:42:27.521Z</time>
      </trkpt>
      <trkpt lat="52.147869" lon="4.751196">
        <ele>-5.373279</ele>
        <time>2026-04-17T17:42:36.185Z</time>
      </trkpt>
      <trkpt lat="52.147560" lon="4.751387">
        <ele>-5.337618</ele>
        <time>2026-04-17T17:42:42.421Z</time>
      </trkpt>
      <trkpt lat="52.147513" lon="4.751416">
        <ele>-5.332195</ele>
        <time>2026-04-17T17:42:43.352Z</time>
      </trkpt>
      <trkpt lat="52.147466" lon="4.751451">
        <ele>-5.338686</ele>
        <time>2026-04-17T17:42:44.324Z</time>
      </trkpt>
      <trkpt lat="52.147278" lon="4.751375">
        <ele>-5.367354</ele>
        <time>2026-04-17T17:42:48.033Z</time>
      </trkpt>
      <trkpt lat="52.147195" lon="4.751298">
        <ele>-5.381489</ele>
        <time>2026-04-17T17:42:49.855Z</time>
      </trkpt>
      <trkpt lat="52.147140" lon="4.751191">
        <ele>-5.394166</ele>
        <time>2026-04-17T17:42:51.494Z</time>
      </trkpt>
      <trkpt lat="52.147088" lon="4.751223">
        <ele>-5.402392</ele>
        <time>2026-04-17T17:42:52.576Z</time>
      </trkpt>
      <trkpt lat="52.147027" lon="4.751263">
        <ele>-5.412124</ele>
        <time>2026-04-17T17:42:53.860Z</time>
      </trkpt>
      <trkpt lat="52.146993" lon="4.751286">
        <ele>-5.417572</ele>
        <time>2026-04-17T17:42:54.569Z</time>
      </trkpt>
      <trkpt lat="52.146990" lon="4.751401">
        <ele>-5.428026</ele>
        <time>2026-04-17T17:42:55.971Z</time>
      </trkpt>
      <trkpt lat="52.146949" lon="4.751577">
        <ele>-5.445123</ele>
        <time>2026-04-17T17:42:58.237Z</time>
      </trkpt>
      <trkpt lat="52.146750" lon="4.751892">
        <ele>-5.486183</ele>
        <time>2026-04-17T17:43:03.639Z</time>
      </trkpt>
      <trkpt lat="52.146530" lon="4.752035">
        <ele>-5.521238</ele>
        <time>2026-04-17T17:43:08.260Z</time>
      </trkpt>
      <trkpt lat="52.146090" lon="4.752303">
        <ele>-5.590759</ele>
        <time>2026-04-17T17:43:17.644Z</time>
      </trkpt>
      <trkpt lat="52.145729" lon="4.752528">
        <ele>-5.662743</ele>
        <time>2026-04-17T17:43:25.695Z</time>
      </trkpt>
      <trkpt lat="52.145130" lon="4.752901">
        <ele>-5.785676</ele>
        <time>2026-04-17T17:43:38.520Z</time>
      </trkpt>
      <trkpt lat="52.144876" lon="4.753059">
        <ele>-5.837798</ele>
        <time>2026-04-17T17:43:43.653Z</time>
      </trkpt>
      <trkpt lat="52.143878" lon="4.753691">
        <ele>-5.996193</ele>
        <time>2026-04-17T17:44:03.612Z</time>
      </trkpt>
      <trkpt lat="52.138670" lon="4.756948">
        <ele>-6.296445</ele>
        <time>2026-04-17T17:45:55.509Z</time>
      </trkpt>
      <trkpt lat="52.135901" lon="4.758692">
        <ele>-5.716607</ele>
        <time>2026-04-17T17:46:58.249Z</time>
      </trkpt>
      <trkpt lat="52.135134" lon="4.759143">
        <ele>-5.243580</ele>
        <time>2026-04-17T17:47:16.358Z</time>
      </trkpt>
      <trkpt lat="52.134669" lon="4.759299">
        <ele>-4.968175</ele>
        <time>2026-04-17T17:47:26.954Z</time>
      </trkpt>
      <trkpt lat="52.133715" lon="4.759520">
        <ele>-4.153932</ele>
        <time>2026-04-17T17:47:49.635Z</time>
      </trkpt>
      <trkpt lat="52.132934" lon="4.759631">
        <ele>-3.323283</ele>
        <time>2026-04-17T17:48:09.148Z</time>
      </trkpt>
      <trkpt lat="52.132213" lon="4.759785">
        <ele>-2.571341</ele>
        <time>2026-04-17T17:48:27.575Z</time>
      </trkpt>
      <trkpt lat="52.131505" lon="4.759903">
        <ele>-1.871109</ele>
        <time>2026-04-17T17:48:44.962Z</time>
      </trkpt>
      <trkpt lat="52.131376" lon="4.759961">
        <ele>-1.739442</ele>
        <time>2026-04-17T17:48:48.185Z</time>
      </trkpt>
      <trkpt lat="52.131442" lon="4.760116">
        <ele>-1.625510</ele>
        <time>2026-04-17T17:48:50.961Z</time>
      </trkpt>
      <trkpt lat="52.131498" lon="4.760249">
        <ele>-1.528102</ele>
        <time>2026-04-17T17:48:53.344Z</time>
      </trkpt>
      <trkpt lat="52.131576" lon="4.760434">
        <ele>-1.392552</ele>
        <time>2026-04-17T17:48:56.584Z</time>
      </trkpt>
      <trkpt lat="52.131623" lon="4.760546">
        <ele>-1.310613</ele>
        <time>2026-04-17T17:48:58.486Z</time>
      </trkpt>
      <trkpt lat="52.131684" lon="4.760692">
        <ele>-1.203947</ele>
        <time>2026-04-17T17:49:01.037Z</time>
      </trkpt>
      <trkpt lat="52.131736" lon="4.760815">
        <ele>-1.113747</ele>
        <time>2026-04-17T17:49:03.182Z</time>
      </trkpt>
      <trkpt lat="52.131913" lon="4.761236">
        <ele>-1.042628</ele>
        <time>2026-04-17T17:49:10.390Z</time>
      </trkpt>
      <trkpt lat="52.132068" lon="4.761606">
        <ele>-1.042628</ele>
        <time>2026-04-17T17:49:16.603Z</time>
      </trkpt>
      <trkpt lat="52.132129" lon="4.761750">
        <ele>-1.042628</ele>
        <time>2026-04-17T17:49:18.950Z</time>
      </trkpt>
      <trkpt lat="52.132219" lon="4.761967">
        <ele>-1.042628</ele>
        <time>2026-04-17T17:49:22.436Z</time>
      </trkpt>
      <trkpt lat="52.132380" lon="4.762353">
        <ele>-1.042628</ele>
        <time>2026-04-17T17:49:28.650Z</time>
      </trkpt>
      <trkpt lat="52.132495" lon="4.762599">
        <ele>-1.042628</ele>
        <time>2026-04-17T17:49:32.618Z</time>
      </trkpt>
      <trkpt lat="52.132551" lon="4.762695">
        <ele>-1.042628</ele>
        <time>2026-04-17T17:49:34.283Z</time>
      </trkpt>
      <trkpt lat="52.132624" lon="4.762807">
        <ele>-1.042628</ele>
        <time>2026-04-17T17:49:36.312Z</time>
      </trkpt>
    </trkseg>
  </trk>
</gpx>